<?xml version="1.0" encoding="UTF-8" standalone="no" ?>
<gpx xmlns="http://www.topografix.com/GPX/1/1" xmlns:xsi="http://www.w3.org/2001/XMLSchema-instance" xsi:schemaLocation="http://www.topografix.com/GPX/1/1 http://www.topografix.com/GPX/1/1/gpx.xsd" version="1.1" creator="VisuGPX - https://www.visugpx.com">
  <metadata>
    <name>34-Séjour à Aniane - Randonnée : Cirque de Navacelles </name>
    <desc><![CDATA[Cirque de Navacelles]]></desc>
  </metadata>
  <trk>
    <name><![CDATA[2013-04-25-cirque navacelle]]></name>
    <trkseg>
      <trkpt lat="43.90038" lon="3.49189">
        <ele>499.844604</ele>
        <time>2013-04-25T07:40:52Z</time>
      </trkpt>
      <trkpt lat="43.9003" lon="3.49184">
        <ele>499.484497</ele>
        <time>2013-04-25T07:41:37Z</time>
      </trkpt>
      <trkpt lat="43.90029" lon="3.49184">
        <ele>499.656403</ele>
        <time>2013-04-25T07:41:38Z</time>
      </trkpt>
      <trkpt lat="43.90039" lon="3.49186">
        <ele>498.700012</ele>
        <time>2013-04-25T07:45:34Z</time>
      </trkpt>
      <trkpt lat="43.90032" lon="3.49195">
        <ele>499.700012</ele>
        <time>2013-04-25T07:49:31Z</time>
      </trkpt>
      <trkpt lat="43.90026" lon="3.49217">
        <ele>501.700012</ele>
        <time>2013-04-25T07:50:37Z</time>
      </trkpt>
      <trkpt lat="43.90026" lon="3.49217">
        <ele>502.100006</ele>
        <time>2013-04-25T07:50:38Z</time>
      </trkpt>
      <trkpt lat="43.90025" lon="3.49241">
        <ele>502.899994</ele>
        <time>2013-04-25T07:51:06Z</time>
      </trkpt>
      <trkpt lat="43.90026" lon="3.49253">
        <ele>504</ele>
        <time>2013-04-25T07:51:35Z</time>
      </trkpt>
      <trkpt lat="43.90026" lon="3.49265">
        <ele>504.600006</ele>
        <time>2013-04-25T07:51:57Z</time>
      </trkpt>
      <trkpt lat="43.90026" lon="3.49267">
        <ele>504.299988</ele>
        <time>2013-04-25T07:51:58Z</time>
      </trkpt>
      <trkpt lat="43.90025" lon="3.49289">
        <ele>506.600006</ele>
        <time>2013-04-25T07:52:16Z</time>
      </trkpt>
      <trkpt lat="43.90025" lon="3.493">
        <ele>506.899994</ele>
        <time>2013-04-25T07:52:24Z</time>
      </trkpt>
      <trkpt lat="43.90024" lon="3.49312">
        <ele>508.399994</ele>
        <time>2013-04-25T07:52:32Z</time>
      </trkpt>
      <trkpt lat="43.90024" lon="3.49324">
        <ele>510</ele>
        <time>2013-04-25T07:52:41Z</time>
      </trkpt>
      <trkpt lat="43.90022" lon="3.49336">
        <ele>510.399994</ele>
        <time>2013-04-25T07:52:50Z</time>
      </trkpt>
      <trkpt lat="43.90019" lon="3.49348">
        <ele>511.200012</ele>
        <time>2013-04-25T07:52:58Z</time>
      </trkpt>
      <trkpt lat="43.90019" lon="3.49349">
        <ele>510.899994</ele>
        <time>2013-04-25T07:52:59Z</time>
      </trkpt>
      <trkpt lat="43.90012" lon="3.49369">
        <ele>512.299988</ele>
        <time>2013-04-25T07:53:14Z</time>
      </trkpt>
      <trkpt lat="43.90007" lon="3.4938">
        <ele>512.900024</ele>
        <time>2013-04-25T07:53:23Z</time>
      </trkpt>
      <trkpt lat="43.90002" lon="3.49389">
        <ele>513.900024</ele>
        <time>2013-04-25T07:53:31Z</time>
      </trkpt>
      <trkpt lat="43.89997" lon="3.49399">
        <ele>514.700012</ele>
        <time>2013-04-25T07:53:39Z</time>
      </trkpt>
      <trkpt lat="43.89993" lon="3.49409">
        <ele>516</ele>
        <time>2013-04-25T07:53:47Z</time>
      </trkpt>
      <trkpt lat="43.89988" lon="3.49419">
        <ele>515.599976</ele>
        <time>2013-04-25T07:53:55Z</time>
      </trkpt>
      <trkpt lat="43.89983" lon="3.49429">
        <ele>516.799988</ele>
        <time>2013-04-25T07:54:03Z</time>
      </trkpt>
      <trkpt lat="43.89982" lon="3.4943">
        <ele>517.200012</ele>
        <time>2013-04-25T07:54:04Z</time>
      </trkpt>
      <trkpt lat="43.89973" lon="3.49448">
        <ele>519.599976</ele>
        <time>2013-04-25T07:54:19Z</time>
      </trkpt>
      <trkpt lat="43.89968" lon="3.49458">
        <ele>520.099976</ele>
        <time>2013-04-25T07:54:29Z</time>
      </trkpt>
      <trkpt lat="43.89964" lon="3.49468">
        <ele>519.299988</ele>
        <time>2013-04-25T07:54:38Z</time>
      </trkpt>
      <trkpt lat="43.89958" lon="3.49477">
        <ele>520.799988</ele>
        <time>2013-04-25T07:54:46Z</time>
      </trkpt>
      <trkpt lat="43.89952" lon="3.49486">
        <ele>522.599976</ele>
        <time>2013-04-25T07:54:56Z</time>
      </trkpt>
      <trkpt lat="43.89948" lon="3.49495">
        <ele>522.799988</ele>
        <time>2013-04-25T07:55:05Z</time>
      </trkpt>
      <trkpt lat="43.89947" lon="3.49497">
        <ele>523.099976</ele>
        <time>2013-04-25T07:55:06Z</time>
      </trkpt>
      <trkpt lat="43.89936" lon="3.49511">
        <ele>526</ele>
        <time>2013-04-25T07:55:31Z</time>
      </trkpt>
      <trkpt lat="43.8993" lon="3.4952">
        <ele>527.299988</ele>
        <time>2013-04-25T07:55:40Z</time>
      </trkpt>
      <trkpt lat="43.89925" lon="3.49529">
        <ele>527.099976</ele>
        <time>2013-04-25T07:55:48Z</time>
      </trkpt>
      <trkpt lat="43.8992" lon="3.49538">
        <ele>526.799988</ele>
        <time>2013-04-25T07:55:55Z</time>
      </trkpt>
      <trkpt lat="43.89915" lon="3.49547">
        <ele>528</ele>
        <time>2013-04-25T07:56:03Z</time>
      </trkpt>
      <trkpt lat="43.89909" lon="3.49556">
        <ele>529.5</ele>
        <time>2013-04-25T07:56:50Z</time>
      </trkpt>
      <trkpt lat="43.89909" lon="3.49556">
        <ele>529.900024</ele>
        <time>2013-04-25T07:56:51Z</time>
      </trkpt>
      <trkpt lat="43.89898" lon="3.49572">
        <ele>532.400024</ele>
        <time>2013-04-25T07:57:27Z</time>
      </trkpt>
      <trkpt lat="43.89891" lon="3.49581">
        <ele>532.099976</ele>
        <time>2013-04-25T07:57:36Z</time>
      </trkpt>
      <trkpt lat="43.89884" lon="3.49587">
        <ele>533.099976</ele>
        <time>2013-04-25T07:57:44Z</time>
      </trkpt>
      <trkpt lat="43.89877" lon="3.49595">
        <ele>534.299988</ele>
        <time>2013-04-25T07:57:52Z</time>
      </trkpt>
      <trkpt lat="43.89876" lon="3.49595">
        <ele>534.400024</ele>
        <time>2013-04-25T07:57:53Z</time>
      </trkpt>
      <trkpt lat="43.89863" lon="3.49608">
        <ele>537.099976</ele>
        <time>2013-04-25T07:58:07Z</time>
      </trkpt>
      <trkpt lat="43.89857" lon="3.49615">
        <ele>538</ele>
        <time>2013-04-25T07:58:15Z</time>
      </trkpt>
      <trkpt lat="43.8985" lon="3.49621">
        <ele>538.200012</ele>
        <time>2013-04-25T07:58:23Z</time>
      </trkpt>
      <trkpt lat="43.89843" lon="3.49628">
        <ele>538.5</ele>
        <time>2013-04-25T07:58:31Z</time>
      </trkpt>
      <trkpt lat="43.89837" lon="3.49637">
        <ele>539.400024</ele>
        <time>2013-04-25T07:58:39Z</time>
      </trkpt>
      <trkpt lat="43.89832" lon="3.49646">
        <ele>540.599976</ele>
        <time>2013-04-25T07:58:46Z</time>
      </trkpt>
      <trkpt lat="43.89827" lon="3.49656">
        <ele>541.599976</ele>
        <time>2013-04-25T07:58:54Z</time>
      </trkpt>
      <trkpt lat="43.89826" lon="3.49657">
        <ele>541.5</ele>
        <time>2013-04-25T07:58:55Z</time>
      </trkpt>
      <trkpt lat="43.89819" lon="3.49676">
        <ele>543.099976</ele>
        <time>2013-04-25T07:59:09Z</time>
      </trkpt>
      <trkpt lat="43.89818" lon="3.49687">
        <ele>543.700012</ele>
        <time>2013-04-25T07:59:16Z</time>
      </trkpt>
      <trkpt lat="43.89816" lon="3.497">
        <ele>544.299988</ele>
        <time>2013-04-25T07:59:24Z</time>
      </trkpt>
      <trkpt lat="43.89814" lon="3.49711">
        <ele>543.900024</ele>
        <time>2013-04-25T07:59:33Z</time>
      </trkpt>
      <trkpt lat="43.89812" lon="3.49723">
        <ele>544.900024</ele>
        <time>2013-04-25T07:59:41Z</time>
      </trkpt>
      <trkpt lat="43.8981" lon="3.49735">
        <ele>545.5</ele>
        <time>2013-04-25T07:59:49Z</time>
      </trkpt>
      <trkpt lat="43.8981" lon="3.49746">
        <ele>546.599976</ele>
        <time>2013-04-25T07:59:56Z</time>
      </trkpt>
      <trkpt lat="43.8981" lon="3.49748">
        <ele>546.400024</ele>
        <time>2013-04-25T07:59:57Z</time>
      </trkpt>
      <trkpt lat="43.89808" lon="3.49769">
        <ele>547.400024</ele>
        <time>2013-04-25T08:00:10Z</time>
      </trkpt>
      <trkpt lat="43.89807" lon="3.49781">
        <ele>548.099976</ele>
        <time>2013-04-25T08:00:18Z</time>
      </trkpt>
      <trkpt lat="43.89807" lon="3.49793">
        <ele>549.900024</ele>
        <time>2013-04-25T08:00:26Z</time>
      </trkpt>
      <trkpt lat="43.89806" lon="3.49805">
        <ele>550.299988</ele>
        <time>2013-04-25T08:00:34Z</time>
      </trkpt>
      <trkpt lat="43.89804" lon="3.49816">
        <ele>550.200012</ele>
        <time>2013-04-25T08:00:41Z</time>
      </trkpt>
      <trkpt lat="43.89804" lon="3.49827">
        <ele>551.299988</ele>
        <time>2013-04-25T08:00:48Z</time>
      </trkpt>
      <trkpt lat="43.89803" lon="3.49839">
        <ele>551.299988</ele>
        <time>2013-04-25T08:00:55Z</time>
      </trkpt>
      <trkpt lat="43.89805" lon="3.49851">
        <ele>552.799988</ele>
        <time>2013-04-25T08:01:18Z</time>
      </trkpt>
      <trkpt lat="43.89805" lon="3.49852">
        <ele>552.099976</ele>
        <time>2013-04-25T08:01:19Z</time>
      </trkpt>
      <trkpt lat="43.89811" lon="3.49853">
        <ele>550.799988</ele>
        <time>2013-04-25T08:08:02Z</time>
      </trkpt>
      <trkpt lat="43.89811" lon="3.49852">
        <ele>551.299988</ele>
        <time>2013-04-25T08:08:03Z</time>
      </trkpt>
      <trkpt lat="43.89814" lon="3.49829">
        <ele>554.299988</ele>
        <time>2013-04-25T08:09:04Z</time>
      </trkpt>
      <trkpt lat="43.89814" lon="3.49828">
        <ele>554.400024</ele>
        <time>2013-04-25T08:09:05Z</time>
      </trkpt>
      <trkpt lat="43.89818" lon="3.49805">
        <ele>554.799988</ele>
        <time>2013-04-25T08:09:29Z</time>
      </trkpt>
      <trkpt lat="43.89819" lon="3.49793">
        <ele>555.299988</ele>
        <time>2013-04-25T08:09:39Z</time>
      </trkpt>
      <trkpt lat="43.89821" lon="3.49782">
        <ele>555.299988</ele>
        <time>2013-04-25T08:09:49Z</time>
      </trkpt>
      <trkpt lat="43.89823" lon="3.4977">
        <ele>556.200012</ele>
        <time>2013-04-25T08:09:59Z</time>
      </trkpt>
      <trkpt lat="43.89827" lon="3.49759">
        <ele>556.200012</ele>
        <time>2013-04-25T08:10:10Z</time>
      </trkpt>
      <trkpt lat="43.89827" lon="3.49758">
        <ele>556.400024</ele>
        <time>2013-04-25T08:10:11Z</time>
      </trkpt>
      <trkpt lat="43.89835" lon="3.49738">
        <ele>556.599976</ele>
        <time>2013-04-25T08:10:27Z</time>
      </trkpt>
      <trkpt lat="43.89838" lon="3.49727">
        <ele>557.400024</ele>
        <time>2013-04-25T08:10:35Z</time>
      </trkpt>
      <trkpt lat="43.89842" lon="3.49717">
        <ele>556.799988</ele>
        <time>2013-04-25T08:10:44Z</time>
      </trkpt>
      <trkpt lat="43.89845" lon="3.49706">
        <ele>556.799988</ele>
        <time>2013-04-25T08:10:52Z</time>
      </trkpt>
      <trkpt lat="43.8985" lon="3.49697">
        <ele>556.5</ele>
        <time>2013-04-25T08:10:59Z</time>
      </trkpt>
      <trkpt lat="43.89856" lon="3.49688">
        <ele>557.200012</ele>
        <time>2013-04-25T08:11:07Z</time>
      </trkpt>
      <trkpt lat="43.89862" lon="3.4968">
        <ele>557.5</ele>
        <time>2013-04-25T08:11:16Z</time>
      </trkpt>
      <trkpt lat="43.89863" lon="3.4968">
        <ele>557.599976</ele>
        <time>2013-04-25T08:11:17Z</time>
      </trkpt>
      <trkpt lat="43.89878" lon="3.4967">
        <ele>559.200012</ele>
        <time>2013-04-25T08:11:32Z</time>
      </trkpt>
      <trkpt lat="43.89886" lon="3.49669">
        <ele>559.5</ele>
        <time>2013-04-25T08:11:41Z</time>
      </trkpt>
      <trkpt lat="43.89894" lon="3.49666">
        <ele>560.299988</ele>
        <time>2013-04-25T08:11:51Z</time>
      </trkpt>
      <trkpt lat="43.89902" lon="3.4966">
        <ele>561.799988</ele>
        <time>2013-04-25T08:12:01Z</time>
      </trkpt>
      <trkpt lat="43.89909" lon="3.49656">
        <ele>562</ele>
        <time>2013-04-25T08:12:10Z</time>
      </trkpt>
      <trkpt lat="43.89917" lon="3.49651">
        <ele>562.900024</ele>
        <time>2013-04-25T08:12:18Z</time>
      </trkpt>
      <trkpt lat="43.89918" lon="3.49651">
        <ele>563.099976</ele>
        <time>2013-04-25T08:12:19Z</time>
      </trkpt>
      <trkpt lat="43.89933" lon="3.4964">
        <ele>564.099976</ele>
        <time>2013-04-25T08:12:40Z</time>
      </trkpt>
      <trkpt lat="43.89941" lon="3.49635">
        <ele>564.599976</ele>
        <time>2013-04-25T08:12:50Z</time>
      </trkpt>
      <trkpt lat="43.89948" lon="3.49629">
        <ele>565.5</ele>
        <time>2013-04-25T08:12:59Z</time>
      </trkpt>
      <trkpt lat="43.89955" lon="3.49622">
        <ele>567.900024</ele>
        <time>2013-04-25T08:13:09Z</time>
      </trkpt>
      <trkpt lat="43.89962" lon="3.49615">
        <ele>567.5</ele>
        <time>2013-04-25T08:13:18Z</time>
      </trkpt>
      <trkpt lat="43.89968" lon="3.49607">
        <ele>567.799988</ele>
        <time>2013-04-25T08:13:25Z</time>
      </trkpt>
      <trkpt lat="43.89969" lon="3.49605">
        <ele>568</ele>
        <time>2013-04-25T08:13:26Z</time>
      </trkpt>
      <trkpt lat="43.89983" lon="3.49596">
        <ele>568.900024</ele>
        <time>2013-04-25T08:13:38Z</time>
      </trkpt>
      <trkpt lat="43.8999" lon="3.49589">
        <ele>569.700012</ele>
        <time>2013-04-25T08:13:45Z</time>
      </trkpt>
      <trkpt lat="43.89996" lon="3.49582">
        <ele>569.599976</ele>
        <time>2013-04-25T08:13:51Z</time>
      </trkpt>
      <trkpt lat="43.90001" lon="3.49573">
        <ele>569.299988</ele>
        <time>2013-04-25T08:13:58Z</time>
      </trkpt>
      <trkpt lat="43.90006" lon="3.49564">
        <ele>570.700012</ele>
        <time>2013-04-25T08:14:07Z</time>
      </trkpt>
      <trkpt lat="43.90012" lon="3.49557">
        <ele>570.900024</ele>
        <time>2013-04-25T08:14:14Z</time>
      </trkpt>
      <trkpt lat="43.9002" lon="3.49551">
        <ele>572.299988</ele>
        <time>2013-04-25T08:14:22Z</time>
      </trkpt>
      <trkpt lat="43.90027" lon="3.49544">
        <ele>572.099976</ele>
        <time>2013-04-25T08:14:31Z</time>
      </trkpt>
      <trkpt lat="43.90028" lon="3.49543">
        <ele>572.299988</ele>
        <time>2013-04-25T08:14:32Z</time>
      </trkpt>
      <trkpt lat="43.90039" lon="3.49527">
        <ele>573.5</ele>
        <time>2013-04-25T08:14:49Z</time>
      </trkpt>
      <trkpt lat="43.90045" lon="3.49519">
        <ele>574.299988</ele>
        <time>2013-04-25T08:14:58Z</time>
      </trkpt>
      <trkpt lat="43.9005" lon="3.49511">
        <ele>574.700012</ele>
        <time>2013-04-25T08:15:07Z</time>
      </trkpt>
      <trkpt lat="43.90057" lon="3.49505">
        <ele>575.5</ele>
        <time>2013-04-25T08:15:14Z</time>
      </trkpt>
      <trkpt lat="43.90063" lon="3.49497">
        <ele>576</ele>
        <time>2013-04-25T08:15:23Z</time>
      </trkpt>
      <trkpt lat="43.90068" lon="3.49488">
        <ele>576.599976</ele>
        <time>2013-04-25T08:15:32Z</time>
      </trkpt>
      <trkpt lat="43.9007" lon="3.49487">
        <ele>576.900024</ele>
        <time>2013-04-25T08:15:33Z</time>
      </trkpt>
      <trkpt lat="43.90083" lon="3.49476">
        <ele>578.299988</ele>
        <time>2013-04-25T08:15:50Z</time>
      </trkpt>
      <trkpt lat="43.9009" lon="3.49469">
        <ele>579.099976</ele>
        <time>2013-04-25T08:15:58Z</time>
      </trkpt>
      <trkpt lat="43.90099" lon="3.49465">
        <ele>579</ele>
        <time>2013-04-25T08:16:07Z</time>
      </trkpt>
      <trkpt lat="43.90106" lon="3.49459">
        <ele>580.200012</ele>
        <time>2013-04-25T08:16:17Z</time>
      </trkpt>
      <trkpt lat="43.90113" lon="3.49452">
        <ele>580.200012</ele>
        <time>2013-04-25T08:16:27Z</time>
      </trkpt>
      <trkpt lat="43.9012" lon="3.49445">
        <ele>581.599976</ele>
        <time>2013-04-25T08:16:37Z</time>
      </trkpt>
      <trkpt lat="43.90121" lon="3.49444">
        <ele>582</ele>
        <time>2013-04-25T08:16:38Z</time>
      </trkpt>
      <trkpt lat="43.90134" lon="3.49431">
        <ele>582.900024</ele>
        <time>2013-04-25T08:16:56Z</time>
      </trkpt>
      <trkpt lat="43.90139" lon="3.4942">
        <ele>583.200012</ele>
        <time>2013-04-25T08:17:05Z</time>
      </trkpt>
      <trkpt lat="43.90141" lon="3.49409">
        <ele>584.099976</ele>
        <time>2013-04-25T08:17:14Z</time>
      </trkpt>
      <trkpt lat="43.90143" lon="3.49397">
        <ele>583.700012</ele>
        <time>2013-04-25T08:17:22Z</time>
      </trkpt>
      <trkpt lat="43.90145" lon="3.49386">
        <ele>584.599976</ele>
        <time>2013-04-25T08:17:30Z</time>
      </trkpt>
      <trkpt lat="43.90147" lon="3.49374">
        <ele>585.200012</ele>
        <time>2013-04-25T08:17:39Z</time>
      </trkpt>
      <trkpt lat="43.90147" lon="3.49373">
        <ele>585.299988</ele>
        <time>2013-04-25T08:17:40Z</time>
      </trkpt>
      <trkpt lat="43.9015" lon="3.4935">
        <ele>585.5</ele>
        <time>2013-04-25T08:17:56Z</time>
      </trkpt>
      <trkpt lat="43.90152" lon="3.49338">
        <ele>586.299988</ele>
        <time>2013-04-25T08:18:05Z</time>
      </trkpt>
      <trkpt lat="43.90153" lon="3.49326">
        <ele>586.5</ele>
        <time>2013-04-25T08:18:15Z</time>
      </trkpt>
      <trkpt lat="43.90154" lon="3.49314">
        <ele>587</ele>
        <time>2013-04-25T08:19:50Z</time>
      </trkpt>
      <trkpt lat="43.90154" lon="3.49313">
        <ele>586.900024</ele>
        <time>2013-04-25T08:19:51Z</time>
      </trkpt>
      <trkpt lat="43.90159" lon="3.49292">
        <ele>588.099976</ele>
        <time>2013-04-25T08:20:13Z</time>
      </trkpt>
      <trkpt lat="43.90162" lon="3.4928">
        <ele>589.299988</ele>
        <time>2013-04-25T08:20:23Z</time>
      </trkpt>
      <trkpt lat="43.90165" lon="3.49269">
        <ele>589.700012</ele>
        <time>2013-04-25T08:20:32Z</time>
      </trkpt>
      <trkpt lat="43.90168" lon="3.49259">
        <ele>590.200012</ele>
        <time>2013-04-25T08:20:41Z</time>
      </trkpt>
      <trkpt lat="43.9017" lon="3.49247">
        <ele>590.400024</ele>
        <time>2013-04-25T08:20:50Z</time>
      </trkpt>
      <trkpt lat="43.90175" lon="3.49237">
        <ele>591.599976</ele>
        <time>2013-04-25T08:20:59Z</time>
      </trkpt>
      <trkpt lat="43.90176" lon="3.49235">
        <ele>591.799988</ele>
        <time>2013-04-25T08:21:00Z</time>
      </trkpt>
      <trkpt lat="43.90183" lon="3.49215">
        <ele>593.099976</ele>
        <time>2013-04-25T08:21:18Z</time>
      </trkpt>
      <trkpt lat="43.90188" lon="3.49205">
        <ele>593.700012</ele>
        <time>2013-04-25T08:21:27Z</time>
      </trkpt>
      <trkpt lat="43.90192" lon="3.49195">
        <ele>594.200012</ele>
        <time>2013-04-25T08:21:37Z</time>
      </trkpt>
      <trkpt lat="43.90196" lon="3.49184">
        <ele>594.599976</ele>
        <time>2013-04-25T08:21:45Z</time>
      </trkpt>
      <trkpt lat="43.902" lon="3.49173">
        <ele>595.099976</ele>
        <time>2013-04-25T08:21:53Z</time>
      </trkpt>
      <trkpt lat="43.90205" lon="3.49164">
        <ele>596.200012</ele>
        <time>2013-04-25T08:22:03Z</time>
      </trkpt>
      <trkpt lat="43.90206" lon="3.49163">
        <ele>596.5</ele>
        <time>2013-04-25T08:22:04Z</time>
      </trkpt>
      <trkpt lat="43.90216" lon="3.49145">
        <ele>597.700012</ele>
        <time>2013-04-25T08:22:21Z</time>
      </trkpt>
      <trkpt lat="43.90222" lon="3.49136">
        <ele>598.400024</ele>
        <time>2013-04-25T08:22:31Z</time>
      </trkpt>
      <trkpt lat="43.90229" lon="3.4913">
        <ele>599.299988</ele>
        <time>2013-04-25T08:22:41Z</time>
      </trkpt>
      <trkpt lat="43.90236" lon="3.49122">
        <ele>599.700012</ele>
        <time>2013-04-25T08:22:50Z</time>
      </trkpt>
      <trkpt lat="43.90244" lon="3.49118">
        <ele>600.299988</ele>
        <time>2013-04-25T08:22:59Z</time>
      </trkpt>
      <trkpt lat="43.90249" lon="3.49109">
        <ele>601.200012</ele>
        <time>2013-04-25T08:23:08Z</time>
      </trkpt>
      <trkpt lat="43.9025" lon="3.49108">
        <ele>601.299988</ele>
        <time>2013-04-25T08:23:09Z</time>
      </trkpt>
      <trkpt lat="43.9026" lon="3.49092">
        <ele>601.299988</ele>
        <time>2013-04-25T08:23:26Z</time>
      </trkpt>
      <trkpt lat="43.90265" lon="3.49082">
        <ele>602.400024</ele>
        <time>2013-04-25T08:23:38Z</time>
      </trkpt>
      <trkpt lat="43.9027" lon="3.49072">
        <ele>603.200012</ele>
        <time>2013-04-25T08:23:48Z</time>
      </trkpt>
      <trkpt lat="43.90273" lon="3.49063">
        <ele>602.599976</ele>
        <time>2013-04-25T08:23:56Z</time>
      </trkpt>
      <trkpt lat="43.9028" lon="3.49055">
        <ele>602.799988</ele>
        <time>2013-04-25T08:24:02Z</time>
      </trkpt>
      <trkpt lat="43.90285" lon="3.49046">
        <ele>603.900024</ele>
        <time>2013-04-25T08:24:10Z</time>
      </trkpt>
      <trkpt lat="43.90286" lon="3.49045">
        <ele>604</ele>
        <time>2013-04-25T08:24:11Z</time>
      </trkpt>
      <trkpt lat="43.90294" lon="3.49025">
        <ele>607.799988</ele>
        <time>2013-04-25T08:24:28Z</time>
      </trkpt>
      <trkpt lat="43.90293" lon="3.49013">
        <ele>605.799988</ele>
        <time>2013-04-25T08:24:38Z</time>
      </trkpt>
      <trkpt lat="43.90296" lon="3.49001">
        <ele>606.900024</ele>
        <time>2013-04-25T08:24:46Z</time>
      </trkpt>
      <trkpt lat="43.90296" lon="3.48989">
        <ele>606.799988</ele>
        <time>2013-04-25T08:24:54Z</time>
      </trkpt>
      <trkpt lat="43.903" lon="3.48978">
        <ele>607.799988</ele>
        <time>2013-04-25T08:25:04Z</time>
      </trkpt>
      <trkpt lat="43.90302" lon="3.48967">
        <ele>608.599976</ele>
        <time>2013-04-25T08:25:13Z</time>
      </trkpt>
      <trkpt lat="43.90302" lon="3.48965">
        <ele>608.5</ele>
        <time>2013-04-25T08:25:14Z</time>
      </trkpt>
      <trkpt lat="43.9031" lon="3.48947">
        <ele>609.299988</ele>
        <time>2013-04-25T08:25:29Z</time>
      </trkpt>
      <trkpt lat="43.90314" lon="3.48936">
        <ele>609.200012</ele>
        <time>2013-04-25T08:25:37Z</time>
      </trkpt>
      <trkpt lat="43.90315" lon="3.48925">
        <ele>609.799988</ele>
        <time>2013-04-25T08:25:45Z</time>
      </trkpt>
      <trkpt lat="43.90318" lon="3.48914">
        <ele>610.400024</ele>
        <time>2013-04-25T08:25:54Z</time>
      </trkpt>
      <trkpt lat="43.90314" lon="3.48904">
        <ele>610.700012</ele>
        <time>2013-04-25T08:26:00Z</time>
      </trkpt>
      <trkpt lat="43.90311" lon="3.48894">
        <ele>611.200012</ele>
        <time>2013-04-25T08:26:06Z</time>
      </trkpt>
      <trkpt lat="43.90311" lon="3.48882">
        <ele>610.599976</ele>
        <time>2013-04-25T08:26:16Z</time>
      </trkpt>
      <trkpt lat="43.90312" lon="3.48881">
        <ele>610.799988</ele>
        <time>2013-04-25T08:26:17Z</time>
      </trkpt>
      <trkpt lat="43.9031" lon="3.48859">
        <ele>611.599976</ele>
        <time>2013-04-25T08:26:33Z</time>
      </trkpt>
      <trkpt lat="43.90306" lon="3.48848">
        <ele>612.299988</ele>
        <time>2013-04-25T08:26:44Z</time>
      </trkpt>
      <trkpt lat="43.90302" lon="3.48838">
        <ele>613.099976</ele>
        <time>2013-04-25T08:26:50Z</time>
      </trkpt>
      <trkpt lat="43.90298" lon="3.48828">
        <ele>613</ele>
        <time>2013-04-25T08:26:59Z</time>
      </trkpt>
      <trkpt lat="43.9029" lon="3.48822">
        <ele>612.700012</ele>
        <time>2013-04-25T08:27:09Z</time>
      </trkpt>
      <trkpt lat="43.90285" lon="3.48813">
        <ele>612.400024</ele>
        <time>2013-04-25T08:27:19Z</time>
      </trkpt>
      <trkpt lat="43.90284" lon="3.48812">
        <ele>612.599976</ele>
        <time>2013-04-25T08:27:20Z</time>
      </trkpt>
      <trkpt lat="43.90274" lon="3.48794">
        <ele>613.200012</ele>
        <time>2013-04-25T08:27:35Z</time>
      </trkpt>
      <trkpt lat="43.90269" lon="3.48784">
        <ele>613.099976</ele>
        <time>2013-04-25T08:27:44Z</time>
      </trkpt>
      <trkpt lat="43.90265" lon="3.48774">
        <ele>613.299988</ele>
        <time>2013-04-25T08:27:52Z</time>
      </trkpt>
      <trkpt lat="43.90265" lon="3.48764">
        <ele>613.599976</ele>
        <time>2013-04-25T08:27:57Z</time>
      </trkpt>
      <trkpt lat="43.90261" lon="3.48754">
        <ele>614.299988</ele>
        <time>2013-04-25T08:28:07Z</time>
      </trkpt>
      <trkpt lat="43.90257" lon="3.48744">
        <ele>614.700012</ele>
        <time>2013-04-25T08:28:14Z</time>
      </trkpt>
      <trkpt lat="43.90252" lon="3.48735">
        <ele>615.400024</ele>
        <time>2013-04-25T08:28:21Z</time>
      </trkpt>
      <trkpt lat="43.90251" lon="3.48733">
        <ele>615.299988</ele>
        <time>2013-04-25T08:28:22Z</time>
      </trkpt>
      <trkpt lat="43.9025" lon="3.48712">
        <ele>616</ele>
        <time>2013-04-25T08:28:37Z</time>
      </trkpt>
      <trkpt lat="43.90255" lon="3.48702">
        <ele>616.5</ele>
        <time>2013-04-25T08:28:47Z</time>
      </trkpt>
      <trkpt lat="43.90262" lon="3.48697">
        <ele>617.700012</ele>
        <time>2013-04-25T08:28:58Z</time>
      </trkpt>
      <trkpt lat="43.9027" lon="3.48691">
        <ele>618</ele>
        <time>2013-04-25T08:29:08Z</time>
      </trkpt>
      <trkpt lat="43.90278" lon="3.48687">
        <ele>618.599976</ele>
        <time>2013-04-25T08:29:15Z</time>
      </trkpt>
      <trkpt lat="43.90286" lon="3.48683">
        <ele>618.5</ele>
        <time>2013-04-25T08:29:24Z</time>
      </trkpt>
      <trkpt lat="43.90287" lon="3.48683">
        <ele>618.599976</ele>
        <time>2013-04-25T08:29:25Z</time>
      </trkpt>
      <trkpt lat="43.90302" lon="3.48675">
        <ele>619.5</ele>
        <time>2013-04-25T08:29:41Z</time>
      </trkpt>
      <trkpt lat="43.9031" lon="3.48672">
        <ele>620.299988</ele>
        <time>2013-04-25T08:29:51Z</time>
      </trkpt>
      <trkpt lat="43.90318" lon="3.48669">
        <ele>620.900024</ele>
        <time>2013-04-25T08:30:00Z</time>
      </trkpt>
      <trkpt lat="43.90326" lon="3.48663">
        <ele>621.700012</ele>
        <time>2013-04-25T08:30:10Z</time>
      </trkpt>
      <trkpt lat="43.90329" lon="3.48652">
        <ele>621.900024</ele>
        <time>2013-04-25T08:30:42Z</time>
      </trkpt>
      <trkpt lat="43.90329" lon="3.48651">
        <ele>622</ele>
        <time>2013-04-25T08:30:43Z</time>
      </trkpt>
      <trkpt lat="43.90346" lon="3.48654">
        <ele>622.700012</ele>
        <time>2013-04-25T08:32:16Z</time>
      </trkpt>
      <trkpt lat="43.90347" lon="3.48654">
        <ele>622.700012</ele>
        <time>2013-04-25T08:32:17Z</time>
      </trkpt>
      <trkpt lat="43.90362" lon="3.48644">
        <ele>623.299988</ele>
        <time>2013-04-25T08:32:31Z</time>
      </trkpt>
      <trkpt lat="43.9037" lon="3.48641">
        <ele>623.599976</ele>
        <time>2013-04-25T08:32:37Z</time>
      </trkpt>
      <trkpt lat="43.90378" lon="3.48637">
        <ele>623.799988</ele>
        <time>2013-04-25T08:32:44Z</time>
      </trkpt>
      <trkpt lat="43.90385" lon="3.48632">
        <ele>624</ele>
        <time>2013-04-25T08:32:52Z</time>
      </trkpt>
      <trkpt lat="43.90393" lon="3.48629">
        <ele>623.900024</ele>
        <time>2013-04-25T08:32:59Z</time>
      </trkpt>
      <trkpt lat="43.904" lon="3.4863">
        <ele>624.700012</ele>
        <time>2013-04-25T08:33:05Z</time>
      </trkpt>
      <trkpt lat="43.90409" lon="3.48631">
        <ele>625.5</ele>
        <time>2013-04-25T08:33:12Z</time>
      </trkpt>
      <trkpt lat="43.90417" lon="3.48633">
        <ele>626.200012</ele>
        <time>2013-04-25T08:33:20Z</time>
      </trkpt>
      <trkpt lat="43.90419" lon="3.48633">
        <ele>626.200012</ele>
        <time>2013-04-25T08:33:21Z</time>
      </trkpt>
      <trkpt lat="43.90434" lon="3.4864">
        <ele>627</ele>
        <time>2013-04-25T08:33:36Z</time>
      </trkpt>
      <trkpt lat="43.90443" lon="3.48642">
        <ele>627.5</ele>
        <time>2013-04-25T08:33:43Z</time>
      </trkpt>
      <trkpt lat="43.9045" lon="3.48648">
        <ele>627.400024</ele>
        <time>2013-04-25T08:33:50Z</time>
      </trkpt>
      <trkpt lat="43.90457" lon="3.48653">
        <ele>628.700012</ele>
        <time>2013-04-25T08:33:57Z</time>
      </trkpt>
      <trkpt lat="43.90464" lon="3.48661">
        <ele>628.099976</ele>
        <time>2013-04-25T08:34:05Z</time>
      </trkpt>
      <trkpt lat="43.90471" lon="3.48667">
        <ele>628</ele>
        <time>2013-04-25T08:34:13Z</time>
      </trkpt>
      <trkpt lat="43.90479" lon="3.48669">
        <ele>628.599976</ele>
        <time>2013-04-25T08:34:20Z</time>
      </trkpt>
      <trkpt lat="43.90486" lon="3.48676">
        <ele>628.799988</ele>
        <time>2013-04-25T08:34:39Z</time>
      </trkpt>
      <trkpt lat="43.90487" lon="3.48677">
        <ele>628.700012</ele>
        <time>2013-04-25T08:34:40Z</time>
      </trkpt>
      <trkpt lat="43.905" lon="3.48688">
        <ele>629.299988</ele>
        <time>2013-04-25T08:34:55Z</time>
      </trkpt>
      <trkpt lat="43.90508" lon="3.48695">
        <ele>629.5</ele>
        <time>2013-04-25T08:35:01Z</time>
      </trkpt>
      <trkpt lat="43.90515" lon="3.48698">
        <ele>630.400024</ele>
        <time>2013-04-25T08:35:10Z</time>
      </trkpt>
      <trkpt lat="43.90522" lon="3.48701">
        <ele>630.900024</ele>
        <time>2013-04-25T08:35:18Z</time>
      </trkpt>
      <trkpt lat="43.9053" lon="3.48704">
        <ele>631</ele>
        <time>2013-04-25T08:35:25Z</time>
      </trkpt>
      <trkpt lat="43.90539" lon="3.48707">
        <ele>631.099976</ele>
        <time>2013-04-25T08:35:31Z</time>
      </trkpt>
      <trkpt lat="43.90546" lon="3.48711">
        <ele>631.299988</ele>
        <time>2013-04-25T08:35:35Z</time>
      </trkpt>
      <trkpt lat="43.90554" lon="3.48716">
        <ele>631.599976</ele>
        <time>2013-04-25T08:35:42Z</time>
      </trkpt>
      <trkpt lat="43.90555" lon="3.48715">
        <ele>631.700012</ele>
        <time>2013-04-25T08:35:43Z</time>
      </trkpt>
      <trkpt lat="43.90557" lon="3.48694">
        <ele>632</ele>
        <time>2013-04-25T08:36:00Z</time>
      </trkpt>
      <trkpt lat="43.90559" lon="3.48682">
        <ele>632.5</ele>
        <time>2013-04-25T08:36:07Z</time>
      </trkpt>
      <trkpt lat="43.90559" lon="3.4867">
        <ele>632.900024</ele>
        <time>2013-04-25T08:36:13Z</time>
      </trkpt>
      <trkpt lat="43.9056" lon="3.48659">
        <ele>632.099976</ele>
        <time>2013-04-25T08:36:19Z</time>
      </trkpt>
      <trkpt lat="43.90563" lon="3.48649">
        <ele>632.599976</ele>
        <time>2013-04-25T08:36:26Z</time>
      </trkpt>
      <trkpt lat="43.90568" lon="3.48641">
        <ele>633.400024</ele>
        <time>2013-04-25T08:36:32Z</time>
      </trkpt>
      <trkpt lat="43.90571" lon="3.4863">
        <ele>633.700012</ele>
        <time>2013-04-25T08:36:39Z</time>
      </trkpt>
      <trkpt lat="43.90576" lon="3.48621">
        <ele>633.700012</ele>
        <time>2013-04-25T08:36:45Z</time>
      </trkpt>
      <trkpt lat="43.90576" lon="3.4862">
        <ele>633.700012</ele>
        <time>2013-04-25T08:36:46Z</time>
      </trkpt>
      <trkpt lat="43.90585" lon="3.48602">
        <ele>633.900024</ele>
        <time>2013-04-25T08:36:58Z</time>
      </trkpt>
      <trkpt lat="43.90589" lon="3.48593">
        <ele>633.700012</ele>
        <time>2013-04-25T08:37:07Z</time>
      </trkpt>
      <trkpt lat="43.90595" lon="3.48584">
        <ele>634.5</ele>
        <time>2013-04-25T08:37:14Z</time>
      </trkpt>
      <trkpt lat="43.90598" lon="3.48572">
        <ele>633</ele>
        <time>2013-04-25T08:37:47Z</time>
      </trkpt>
      <trkpt lat="43.90598" lon="3.48572">
        <ele>632.900024</ele>
        <time>2013-04-25T08:37:48Z</time>
      </trkpt>
      <trkpt lat="43.90597" lon="3.48574">
        <ele>631.200012</ele>
        <time>2013-04-25T08:39:52Z</time>
      </trkpt>
      <trkpt lat="43.90597" lon="3.48575">
        <ele>631.299988</ele>
        <time>2013-04-25T08:39:53Z</time>
      </trkpt>
      <trkpt lat="43.90606" lon="3.48568">
        <ele>634.200012</ele>
        <time>2013-04-25T08:40:58Z</time>
      </trkpt>
      <trkpt lat="43.90615" lon="3.4855">
        <ele>634.099976</ele>
        <time>2013-04-25T08:41:17Z</time>
      </trkpt>
      <trkpt lat="43.90621" lon="3.48542">
        <ele>634.700012</ele>
        <time>2013-04-25T08:41:24Z</time>
      </trkpt>
      <trkpt lat="43.90629" lon="3.4854">
        <ele>635.5</ele>
        <time>2013-04-25T08:41:29Z</time>
      </trkpt>
      <trkpt lat="43.90637" lon="3.48535">
        <ele>635.099976</ele>
        <time>2013-04-25T08:41:40Z</time>
      </trkpt>
      <trkpt lat="43.90645" lon="3.4853">
        <ele>636</ele>
        <time>2013-04-25T08:41:48Z</time>
      </trkpt>
      <trkpt lat="43.90653" lon="3.48529">
        <ele>635.5</ele>
        <time>2013-04-25T08:41:56Z</time>
      </trkpt>
      <trkpt lat="43.9066" lon="3.48534">
        <ele>636.200012</ele>
        <time>2013-04-25T08:42:02Z</time>
      </trkpt>
      <trkpt lat="43.90661" lon="3.48535">
        <ele>636.099976</ele>
        <time>2013-04-25T08:42:03Z</time>
      </trkpt>
      <trkpt lat="43.90676" lon="3.48539">
        <ele>636.200012</ele>
        <time>2013-04-25T08:42:14Z</time>
      </trkpt>
      <trkpt lat="43.90684" lon="3.48545">
        <ele>637.200012</ele>
        <time>2013-04-25T08:42:22Z</time>
      </trkpt>
      <trkpt lat="43.90691" lon="3.48551">
        <ele>637.599976</ele>
        <time>2013-04-25T08:42:30Z</time>
      </trkpt>
      <trkpt lat="43.90699" lon="3.48554">
        <ele>638.099976</ele>
        <time>2013-04-25T08:42:40Z</time>
      </trkpt>
      <trkpt lat="43.90707" lon="3.48559">
        <ele>638.599976</ele>
        <time>2013-04-25T08:42:47Z</time>
      </trkpt>
      <trkpt lat="43.90715" lon="3.48565">
        <ele>639.200012</ele>
        <time>2013-04-25T08:42:54Z</time>
      </trkpt>
      <trkpt lat="43.90723" lon="3.48569">
        <ele>639.5</ele>
        <time>2013-04-25T08:43:00Z</time>
      </trkpt>
      <trkpt lat="43.90731" lon="3.48573">
        <ele>639.799988</ele>
        <time>2013-04-25T08:43:07Z</time>
      </trkpt>
      <trkpt lat="43.90732" lon="3.48573">
        <ele>639.900024</ele>
        <time>2013-04-25T08:43:08Z</time>
      </trkpt>
      <trkpt lat="43.90746" lon="3.48584">
        <ele>640.5</ele>
        <time>2013-04-25T08:43:22Z</time>
      </trkpt>
      <trkpt lat="43.90752" lon="3.48589">
        <ele>641.099976</ele>
        <time>2013-04-25T08:43:30Z</time>
      </trkpt>
      <trkpt lat="43.90759" lon="3.48595">
        <ele>641.299988</ele>
        <time>2013-04-25T08:43:36Z</time>
      </trkpt>
      <trkpt lat="43.90767" lon="3.486">
        <ele>641.400024</ele>
        <time>2013-04-25T08:43:42Z</time>
      </trkpt>
      <trkpt lat="43.90775" lon="3.48603">
        <ele>641.900024</ele>
        <time>2013-04-25T08:43:50Z</time>
      </trkpt>
      <trkpt lat="43.90783" lon="3.48607">
        <ele>642.700012</ele>
        <time>2013-04-25T08:43:56Z</time>
      </trkpt>
      <trkpt lat="43.9079" lon="3.48607">
        <ele>642.099976</ele>
        <time>2013-04-25T08:44:01Z</time>
      </trkpt>
      <trkpt lat="43.90798" lon="3.48611">
        <ele>642.700012</ele>
        <time>2013-04-25T08:44:07Z</time>
      </trkpt>
      <trkpt lat="43.90806" lon="3.48614">
        <ele>643.799988</ele>
        <time>2013-04-25T08:44:29Z</time>
      </trkpt>
      <trkpt lat="43.90808" lon="3.48615">
        <ele>643.799988</ele>
        <time>2013-04-25T08:44:30Z</time>
      </trkpt>
      <trkpt lat="43.90822" lon="3.4862">
        <ele>644.700012</ele>
        <time>2013-04-25T08:44:44Z</time>
      </trkpt>
      <trkpt lat="43.9083" lon="3.48623">
        <ele>644.700012</ele>
        <time>2013-04-25T08:44:51Z</time>
      </trkpt>
      <trkpt lat="43.90837" lon="3.48627">
        <ele>645.200012</ele>
        <time>2013-04-25T08:44:57Z</time>
      </trkpt>
      <trkpt lat="43.90844" lon="3.48634">
        <ele>645.5</ele>
        <time>2013-04-25T08:45:07Z</time>
      </trkpt>
      <trkpt lat="43.9085" lon="3.48644">
        <ele>645.599976</ele>
        <time>2013-04-25T08:45:17Z</time>
      </trkpt>
      <trkpt lat="43.90852" lon="3.48653">
        <ele>646.599976</ele>
        <time>2013-04-25T08:45:24Z</time>
      </trkpt>
      <trkpt lat="43.90859" lon="3.48662">
        <ele>646.799988</ele>
        <time>2013-04-25T08:45:33Z</time>
      </trkpt>
      <trkpt lat="43.9086" lon="3.48663">
        <ele>646.599976</ele>
        <time>2013-04-25T08:45:34Z</time>
      </trkpt>
      <trkpt lat="43.90871" lon="3.48679">
        <ele>647.5</ele>
        <time>2013-04-25T08:45:49Z</time>
      </trkpt>
      <trkpt lat="43.90876" lon="3.48687">
        <ele>648.299988</ele>
        <time>2013-04-25T08:45:54Z</time>
      </trkpt>
      <trkpt lat="43.90882" lon="3.48694">
        <ele>648.5</ele>
        <time>2013-04-25T08:46:00Z</time>
      </trkpt>
      <trkpt lat="43.90888" lon="3.48703">
        <ele>648.200012</ele>
        <time>2013-04-25T08:46:07Z</time>
      </trkpt>
      <trkpt lat="43.90894" lon="3.48712">
        <ele>649.200012</ele>
        <time>2013-04-25T08:46:15Z</time>
      </trkpt>
      <trkpt lat="43.90898" lon="3.48722">
        <ele>649.700012</ele>
        <time>2013-04-25T08:46:22Z</time>
      </trkpt>
      <trkpt lat="43.90906" lon="3.48727">
        <ele>649.599976</ele>
        <time>2013-04-25T08:46:32Z</time>
      </trkpt>
      <trkpt lat="43.90908" lon="3.48715">
        <ele>650.5</ele>
        <time>2013-04-25T08:46:42Z</time>
      </trkpt>
      <trkpt lat="43.90908" lon="3.48714">
        <ele>650.299988</ele>
        <time>2013-04-25T08:46:43Z</time>
      </trkpt>
      <trkpt lat="43.90904" lon="3.48692">
        <ele>651.299988</ele>
        <time>2013-04-25T08:47:00Z</time>
      </trkpt>
      <trkpt lat="43.90905" lon="3.4868">
        <ele>652.400024</ele>
        <time>2013-04-25T08:47:08Z</time>
      </trkpt>
      <trkpt lat="43.90907" lon="3.48668">
        <ele>652.599976</ele>
        <time>2013-04-25T08:47:15Z</time>
      </trkpt>
      <trkpt lat="43.90908" lon="3.48657">
        <ele>652.599976</ele>
        <time>2013-04-25T08:47:21Z</time>
      </trkpt>
      <trkpt lat="43.90908" lon="3.48645">
        <ele>652.599976</ele>
        <time>2013-04-25T08:47:27Z</time>
      </trkpt>
      <trkpt lat="43.90912" lon="3.48634">
        <ele>653.799988</ele>
        <time>2013-04-25T08:47:34Z</time>
      </trkpt>
      <trkpt lat="43.90915" lon="3.48625">
        <ele>653.900024</ele>
        <time>2013-04-25T08:47:40Z</time>
      </trkpt>
      <trkpt lat="43.9092" lon="3.48616">
        <ele>654.400024</ele>
        <time>2013-04-25T08:47:46Z</time>
      </trkpt>
      <trkpt lat="43.9092" lon="3.48614">
        <ele>654.599976</ele>
        <time>2013-04-25T08:47:47Z</time>
      </trkpt>
      <trkpt lat="43.90928" lon="3.48597">
        <ele>654.900024</ele>
        <time>2013-04-25T08:48:02Z</time>
      </trkpt>
      <trkpt lat="43.90933" lon="3.48588">
        <ele>655.400024</ele>
        <time>2013-04-25T08:48:09Z</time>
      </trkpt>
      <trkpt lat="43.90937" lon="3.48577">
        <ele>656.299988</ele>
        <time>2013-04-25T08:48:18Z</time>
      </trkpt>
      <trkpt lat="43.9093" lon="3.48569">
        <ele>656.400024</ele>
        <time>2013-04-25T08:48:25Z</time>
      </trkpt>
      <trkpt lat="43.90928" lon="3.48558">
        <ele>656.700012</ele>
        <time>2013-04-25T08:48:32Z</time>
      </trkpt>
      <trkpt lat="43.90924" lon="3.48549">
        <ele>657.400024</ele>
        <time>2013-04-25T08:48:38Z</time>
      </trkpt>
      <trkpt lat="43.9092" lon="3.48538">
        <ele>658.099976</ele>
        <time>2013-04-25T08:48:46Z</time>
      </trkpt>
      <trkpt lat="43.90915" lon="3.48529">
        <ele>658.200012</ele>
        <time>2013-04-25T08:48:54Z</time>
      </trkpt>
      <trkpt lat="43.90914" lon="3.48527">
        <ele>658.099976</ele>
        <time>2013-04-25T08:48:55Z</time>
      </trkpt>
      <trkpt lat="43.90909" lon="3.48507">
        <ele>658.799988</ele>
        <time>2013-04-25T08:49:09Z</time>
      </trkpt>
      <trkpt lat="43.90909" lon="3.48495">
        <ele>659.200012</ele>
        <time>2013-04-25T08:49:17Z</time>
      </trkpt>
      <trkpt lat="43.90906" lon="3.48484">
        <ele>659.400024</ele>
        <time>2013-04-25T08:49:27Z</time>
      </trkpt>
      <trkpt lat="43.90904" lon="3.48473">
        <ele>659.900024</ele>
        <time>2013-04-25T08:49:34Z</time>
      </trkpt>
      <trkpt lat="43.90907" lon="3.48462">
        <ele>660.5</ele>
        <time>2013-04-25T08:49:42Z</time>
      </trkpt>
      <trkpt lat="43.90908" lon="3.48451">
        <ele>661</ele>
        <time>2013-04-25T08:49:49Z</time>
      </trkpt>
      <trkpt lat="43.90909" lon="3.48439">
        <ele>661</ele>
        <time>2013-04-25T08:49:57Z</time>
      </trkpt>
      <trkpt lat="43.90909" lon="3.48438">
        <ele>660.700012</ele>
        <time>2013-04-25T08:49:58Z</time>
      </trkpt>
      <trkpt lat="43.90914" lon="3.48417">
        <ele>662.299988</ele>
        <time>2013-04-25T08:50:14Z</time>
      </trkpt>
      <trkpt lat="43.90917" lon="3.48406">
        <ele>662.5</ele>
        <time>2013-04-25T08:50:22Z</time>
      </trkpt>
      <trkpt lat="43.90921" lon="3.48397">
        <ele>663</ele>
        <time>2013-04-25T08:50:30Z</time>
      </trkpt>
      <trkpt lat="43.90927" lon="3.48388">
        <ele>663.099976</ele>
        <time>2013-04-25T08:50:58Z</time>
      </trkpt>
      <trkpt lat="43.90928" lon="3.48386">
        <ele>663.200012</ele>
        <time>2013-04-25T08:50:59Z</time>
      </trkpt>
      <trkpt lat="43.90938" lon="3.48372">
        <ele>664.099976</ele>
        <time>2013-04-25T08:51:37Z</time>
      </trkpt>
      <trkpt lat="43.90944" lon="3.48365">
        <ele>664</ele>
        <time>2013-04-25T08:51:45Z</time>
      </trkpt>
      <trkpt lat="43.90952" lon="3.48362">
        <ele>664.200012</ele>
        <time>2013-04-25T08:51:53Z</time>
      </trkpt>
      <trkpt lat="43.90959" lon="3.48355">
        <ele>664.799988</ele>
        <time>2013-04-25T08:52:01Z</time>
      </trkpt>
      <trkpt lat="43.9096" lon="3.48354">
        <ele>665</ele>
        <time>2013-04-25T08:52:02Z</time>
      </trkpt>
      <trkpt lat="43.90973" lon="3.48343">
        <ele>665.299988</ele>
        <time>2013-04-25T08:52:16Z</time>
      </trkpt>
      <trkpt lat="43.90981" lon="3.4834">
        <ele>666.5</ele>
        <time>2013-04-25T08:52:28Z</time>
      </trkpt>
      <trkpt lat="43.9099" lon="3.48337">
        <ele>666.799988</ele>
        <time>2013-04-25T08:52:34Z</time>
      </trkpt>
      <trkpt lat="43.90998" lon="3.48337">
        <ele>667.700012</ele>
        <time>2013-04-25T08:52:41Z</time>
      </trkpt>
      <trkpt lat="43.91005" lon="3.48335">
        <ele>668.099976</ele>
        <time>2013-04-25T08:52:47Z</time>
      </trkpt>
      <trkpt lat="43.91014" lon="3.48333">
        <ele>668</ele>
        <time>2013-04-25T08:52:52Z</time>
      </trkpt>
      <trkpt lat="43.91022" lon="3.48332">
        <ele>668.299988</ele>
        <time>2013-04-25T08:53:02Z</time>
      </trkpt>
      <trkpt lat="43.9103" lon="3.48333">
        <ele>668.5</ele>
        <time>2013-04-25T08:53:08Z</time>
      </trkpt>
      <trkpt lat="43.91031" lon="3.48334">
        <ele>668.799988</ele>
        <time>2013-04-25T08:53:09Z</time>
      </trkpt>
      <trkpt lat="43.91044" lon="3.48327">
        <ele>669.599976</ele>
        <time>2013-04-25T08:53:20Z</time>
      </trkpt>
      <trkpt lat="43.91053" lon="3.48324">
        <ele>670.099976</ele>
        <time>2013-04-25T08:53:26Z</time>
      </trkpt>
      <trkpt lat="43.91061" lon="3.48321">
        <ele>671.200012</ele>
        <time>2013-04-25T08:53:33Z</time>
      </trkpt>
      <trkpt lat="43.91069" lon="3.48317">
        <ele>671.599976</ele>
        <time>2013-04-25T08:53:38Z</time>
      </trkpt>
      <trkpt lat="43.91077" lon="3.48312">
        <ele>671.799988</ele>
        <time>2013-04-25T08:53:47Z</time>
      </trkpt>
      <trkpt lat="43.91084" lon="3.48307">
        <ele>671.900024</ele>
        <time>2013-04-25T08:53:56Z</time>
      </trkpt>
      <trkpt lat="43.91092" lon="3.48303">
        <ele>672.599976</ele>
        <time>2013-04-25T08:54:05Z</time>
      </trkpt>
      <trkpt lat="43.91099" lon="3.48296">
        <ele>673</ele>
        <time>2013-04-25T08:54:16Z</time>
      </trkpt>
      <trkpt lat="43.911" lon="3.48296">
        <ele>673</ele>
        <time>2013-04-25T08:54:17Z</time>
      </trkpt>
      <trkpt lat="43.91108" lon="3.48292">
        <ele>673.599976</ele>
        <time>2013-04-25T08:57:43Z</time>
      </trkpt>
      <trkpt lat="43.91099" lon="3.48298">
        <ele>673.400024</ele>
        <time>2013-04-25T09:00:20Z</time>
      </trkpt>
      <trkpt lat="43.91109" lon="3.48296">
        <ele>671</ele>
        <time>2013-04-25T09:01:55Z</time>
      </trkpt>
      <trkpt lat="43.91125" lon="3.48285">
        <ele>672.299988</ele>
        <time>2013-04-25T09:02:17Z</time>
      </trkpt>
      <trkpt lat="43.91132" lon="3.48279">
        <ele>672.799988</ele>
        <time>2013-04-25T09:02:27Z</time>
      </trkpt>
      <trkpt lat="43.9114" lon="3.48276">
        <ele>673.299988</ele>
        <time>2013-04-25T09:02:40Z</time>
      </trkpt>
      <trkpt lat="43.91149" lon="3.48274">
        <ele>674.299988</ele>
        <time>2013-04-25T09:02:49Z</time>
      </trkpt>
      <trkpt lat="43.91158" lon="3.48275">
        <ele>674.5</ele>
        <time>2013-04-25T09:02:59Z</time>
      </trkpt>
      <trkpt lat="43.91159" lon="3.48274">
        <ele>674.400024</ele>
        <time>2013-04-25T09:03:00Z</time>
      </trkpt>
      <trkpt lat="43.9117" lon="3.48259">
        <ele>674.599976</ele>
        <time>2013-04-25T09:03:22Z</time>
      </trkpt>
      <trkpt lat="43.91172" lon="3.48247">
        <ele>674.5</ele>
        <time>2013-04-25T09:03:29Z</time>
      </trkpt>
      <trkpt lat="43.91175" lon="3.48236">
        <ele>675.299988</ele>
        <time>2013-04-25T09:03:36Z</time>
      </trkpt>
      <trkpt lat="43.91178" lon="3.48226">
        <ele>675.5</ele>
        <time>2013-04-25T09:03:43Z</time>
      </trkpt>
      <trkpt lat="43.91181" lon="3.48215">
        <ele>676.900024</ele>
        <time>2013-04-25T09:03:51Z</time>
      </trkpt>
      <trkpt lat="43.91183" lon="3.48204">
        <ele>676.599976</ele>
        <time>2013-04-25T09:03:59Z</time>
      </trkpt>
      <trkpt lat="43.91186" lon="3.48192">
        <ele>678.200012</ele>
        <time>2013-04-25T09:04:07Z</time>
      </trkpt>
      <trkpt lat="43.91186" lon="3.48191">
        <ele>678</ele>
        <time>2013-04-25T09:04:08Z</time>
      </trkpt>
      <trkpt lat="43.9119" lon="3.4817">
        <ele>681.299988</ele>
        <time>2013-04-25T09:04:24Z</time>
      </trkpt>
      <trkpt lat="43.91193" lon="3.48159">
        <ele>681.599976</ele>
        <time>2013-04-25T09:04:45Z</time>
      </trkpt>
      <trkpt lat="43.9119" lon="3.48148">
        <ele>682.599976</ele>
        <time>2013-04-25T09:04:52Z</time>
      </trkpt>
      <trkpt lat="43.91191" lon="3.48137">
        <ele>684.099976</ele>
        <time>2013-04-25T09:05:00Z</time>
      </trkpt>
      <trkpt lat="43.91195" lon="3.48126">
        <ele>685.599976</ele>
        <time>2013-04-25T09:05:10Z</time>
      </trkpt>
      <trkpt lat="43.91196" lon="3.48125">
        <ele>685.799988</ele>
        <time>2013-04-25T09:05:11Z</time>
      </trkpt>
      <trkpt lat="43.91198" lon="3.48103">
        <ele>687.700012</ele>
        <time>2013-04-25T09:05:28Z</time>
      </trkpt>
      <trkpt lat="43.91199" lon="3.4809">
        <ele>689.200012</ele>
        <time>2013-04-25T09:05:38Z</time>
      </trkpt>
      <trkpt lat="43.91201" lon="3.48079">
        <ele>690</ele>
        <time>2013-04-25T09:05:47Z</time>
      </trkpt>
      <trkpt lat="43.91202" lon="3.48067">
        <ele>691.400024</ele>
        <time>2013-04-25T09:05:56Z</time>
      </trkpt>
      <trkpt lat="43.91202" lon="3.48054">
        <ele>692.599976</ele>
        <time>2013-04-25T09:06:07Z</time>
      </trkpt>
      <trkpt lat="43.91204" lon="3.48043">
        <ele>693.700012</ele>
        <time>2013-04-25T09:06:17Z</time>
      </trkpt>
      <trkpt lat="43.91204" lon="3.48042">
        <ele>693.900024</ele>
        <time>2013-04-25T09:06:18Z</time>
      </trkpt>
      <trkpt lat="43.9121" lon="3.48022">
        <ele>695.900024</ele>
        <time>2013-04-25T09:06:35Z</time>
      </trkpt>
      <trkpt lat="43.91213" lon="3.48011">
        <ele>695.799988</ele>
        <time>2013-04-25T09:06:45Z</time>
      </trkpt>
      <trkpt lat="43.91216" lon="3.48">
        <ele>697.099976</ele>
        <time>2013-04-25T09:06:53Z</time>
      </trkpt>
      <trkpt lat="43.91218" lon="3.47988">
        <ele>697.200012</ele>
        <time>2013-04-25T09:07:02Z</time>
      </trkpt>
      <trkpt lat="43.91219" lon="3.47977">
        <ele>698</ele>
        <time>2013-04-25T09:07:10Z</time>
      </trkpt>
      <trkpt lat="43.91218" lon="3.47965">
        <ele>699</ele>
        <time>2013-04-25T09:07:19Z</time>
      </trkpt>
      <trkpt lat="43.91218" lon="3.47964">
        <ele>699.200012</ele>
        <time>2013-04-25T09:07:20Z</time>
      </trkpt>
      <trkpt lat="43.91221" lon="3.47942">
        <ele>700.599976</ele>
        <time>2013-04-25T09:07:35Z</time>
      </trkpt>
      <trkpt lat="43.91223" lon="3.4793">
        <ele>701.700012</ele>
        <time>2013-04-25T09:07:44Z</time>
      </trkpt>
      <trkpt lat="43.91227" lon="3.47919">
        <ele>702.599976</ele>
        <time>2013-04-25T09:07:53Z</time>
      </trkpt>
      <trkpt lat="43.91231" lon="3.47909">
        <ele>703.200012</ele>
        <time>2013-04-25T09:08:02Z</time>
      </trkpt>
      <trkpt lat="43.91235" lon="3.47897">
        <ele>704.200012</ele>
        <time>2013-04-25T09:08:12Z</time>
      </trkpt>
      <trkpt lat="43.91239" lon="3.47886">
        <ele>705.400024</ele>
        <time>2013-04-25T09:08:23Z</time>
      </trkpt>
      <trkpt lat="43.91239" lon="3.47885">
        <ele>705.599976</ele>
        <time>2013-04-25T09:08:24Z</time>
      </trkpt>
      <trkpt lat="43.91248" lon="3.47866">
        <ele>707.599976</ele>
        <time>2013-04-25T09:08:42Z</time>
      </trkpt>
      <trkpt lat="43.91252" lon="3.47856">
        <ele>708</ele>
        <time>2013-04-25T09:08:53Z</time>
      </trkpt>
      <trkpt lat="43.91256" lon="3.47845">
        <ele>709</ele>
        <time>2013-04-25T09:09:02Z</time>
      </trkpt>
      <trkpt lat="43.9126" lon="3.47835">
        <ele>709.299988</ele>
        <time>2013-04-25T09:09:10Z</time>
      </trkpt>
      <trkpt lat="43.91264" lon="3.47824">
        <ele>710.400024</ele>
        <time>2013-04-25T09:09:19Z</time>
      </trkpt>
      <trkpt lat="43.91265" lon="3.47812">
        <ele>711.099976</ele>
        <time>2013-04-25T09:09:27Z</time>
      </trkpt>
      <trkpt lat="43.91265" lon="3.4781">
        <ele>711.099976</ele>
        <time>2013-04-25T09:09:28Z</time>
      </trkpt>
      <trkpt lat="43.9127" lon="3.47789">
        <ele>712.299988</ele>
        <time>2013-04-25T09:09:42Z</time>
      </trkpt>
      <trkpt lat="43.91273" lon="3.47778">
        <ele>712.400024</ele>
        <time>2013-04-25T09:09:49Z</time>
      </trkpt>
      <trkpt lat="43.91277" lon="3.47767">
        <ele>712.5</ele>
        <time>2013-04-25T09:09:55Z</time>
      </trkpt>
      <trkpt lat="43.91278" lon="3.47755">
        <ele>713.099976</ele>
        <time>2013-04-25T09:10:02Z</time>
      </trkpt>
      <trkpt lat="43.91279" lon="3.47744">
        <ele>712.900024</ele>
        <time>2013-04-25T09:10:09Z</time>
      </trkpt>
      <trkpt lat="43.91279" lon="3.47733">
        <ele>713.200012</ele>
        <time>2013-04-25T09:10:16Z</time>
      </trkpt>
      <trkpt lat="43.91277" lon="3.47721">
        <ele>712.299988</ele>
        <time>2013-04-25T09:10:22Z</time>
      </trkpt>
      <trkpt lat="43.91278" lon="3.4771">
        <ele>712.599976</ele>
        <time>2013-04-25T09:10:29Z</time>
      </trkpt>
      <trkpt lat="43.91277" lon="3.47709">
        <ele>712.900024</ele>
        <time>2013-04-25T09:10:30Z</time>
      </trkpt>
      <trkpt lat="43.9128" lon="3.47687">
        <ele>712.700012</ele>
        <time>2013-04-25T09:10:45Z</time>
      </trkpt>
      <trkpt lat="43.91282" lon="3.47675">
        <ele>713.5</ele>
        <time>2013-04-25T09:10:52Z</time>
      </trkpt>
      <trkpt lat="43.91286" lon="3.47664">
        <ele>713.599976</ele>
        <time>2013-04-25T09:10:59Z</time>
      </trkpt>
      <trkpt lat="43.91289" lon="3.47653">
        <ele>712.599976</ele>
        <time>2013-04-25T09:11:06Z</time>
      </trkpt>
      <trkpt lat="43.91291" lon="3.47641">
        <ele>713.299988</ele>
        <time>2013-04-25T09:11:13Z</time>
      </trkpt>
      <trkpt lat="43.91292" lon="3.47629">
        <ele>713.299988</ele>
        <time>2013-04-25T09:11:21Z</time>
      </trkpt>
      <trkpt lat="43.91294" lon="3.47617">
        <ele>713.599976</ele>
        <time>2013-04-25T09:11:28Z</time>
      </trkpt>
      <trkpt lat="43.91296" lon="3.47607">
        <ele>714</ele>
        <time>2013-04-25T09:11:35Z</time>
      </trkpt>
      <trkpt lat="43.91296" lon="3.47604">
        <ele>713.799988</ele>
        <time>2013-04-25T09:11:36Z</time>
      </trkpt>
      <trkpt lat="43.91299" lon="3.47584">
        <ele>714.200012</ele>
        <time>2013-04-25T09:11:49Z</time>
      </trkpt>
      <trkpt lat="43.91302" lon="3.47573">
        <ele>713.900024</ele>
        <time>2013-04-25T09:11:56Z</time>
      </trkpt>
      <trkpt lat="43.91302" lon="3.47561">
        <ele>714.799988</ele>
        <time>2013-04-25T09:13:38Z</time>
      </trkpt>
      <trkpt lat="43.91301" lon="3.47559">
        <ele>714.900024</ele>
        <time>2013-04-25T09:13:39Z</time>
      </trkpt>
      <trkpt lat="43.91302" lon="3.47538">
        <ele>714.5</ele>
        <time>2013-04-25T09:13:51Z</time>
      </trkpt>
      <trkpt lat="43.91302" lon="3.47526">
        <ele>714.900024</ele>
        <time>2013-04-25T09:13:58Z</time>
      </trkpt>
      <trkpt lat="43.91302" lon="3.47515">
        <ele>715.200012</ele>
        <time>2013-04-25T09:14:04Z</time>
      </trkpt>
      <trkpt lat="43.91303" lon="3.47504">
        <ele>715.900024</ele>
        <time>2013-04-25T09:14:12Z</time>
      </trkpt>
      <trkpt lat="43.91304" lon="3.47491">
        <ele>715.700012</ele>
        <time>2013-04-25T09:14:20Z</time>
      </trkpt>
      <trkpt lat="43.91305" lon="3.4748">
        <ele>715.900024</ele>
        <time>2013-04-25T09:14:26Z</time>
      </trkpt>
      <trkpt lat="43.91306" lon="3.47469">
        <ele>716.700012</ele>
        <time>2013-04-25T09:14:34Z</time>
      </trkpt>
      <trkpt lat="43.91305" lon="3.47457">
        <ele>716.5</ele>
        <time>2013-04-25T09:14:42Z</time>
      </trkpt>
      <trkpt lat="43.91305" lon="3.47456">
        <ele>716.599976</ele>
        <time>2013-04-25T09:14:43Z</time>
      </trkpt>
      <trkpt lat="43.91305" lon="3.47437">
        <ele>716.700012</ele>
        <time>2013-04-25T09:14:54Z</time>
      </trkpt>
      <trkpt lat="43.91305" lon="3.47424">
        <ele>717.099976</ele>
        <time>2013-04-25T09:15:02Z</time>
      </trkpt>
      <trkpt lat="43.91309" lon="3.47413">
        <ele>716.900024</ele>
        <time>2013-04-25T09:15:09Z</time>
      </trkpt>
      <trkpt lat="43.91313" lon="3.47403">
        <ele>716.900024</ele>
        <time>2013-04-25T09:15:16Z</time>
      </trkpt>
      <trkpt lat="43.91317" lon="3.47393">
        <ele>716.900024</ele>
        <time>2013-04-25T09:15:23Z</time>
      </trkpt>
      <trkpt lat="43.91316" lon="3.47383">
        <ele>716.200012</ele>
        <time>2013-04-25T09:15:29Z</time>
      </trkpt>
      <trkpt lat="43.91318" lon="3.47372">
        <ele>715.599976</ele>
        <time>2013-04-25T09:15:36Z</time>
      </trkpt>
      <trkpt lat="43.91323" lon="3.47362">
        <ele>715.299988</ele>
        <time>2013-04-25T09:15:41Z</time>
      </trkpt>
      <trkpt lat="43.91327" lon="3.47352">
        <ele>716</ele>
        <time>2013-04-25T09:15:49Z</time>
      </trkpt>
      <trkpt lat="43.91328" lon="3.4735">
        <ele>716.099976</ele>
        <time>2013-04-25T09:15:50Z</time>
      </trkpt>
      <trkpt lat="43.91335" lon="3.4733">
        <ele>716.400024</ele>
        <time>2013-04-25T09:16:04Z</time>
      </trkpt>
      <trkpt lat="43.9134" lon="3.47321">
        <ele>716.200012</ele>
        <time>2013-04-25T09:16:10Z</time>
      </trkpt>
      <trkpt lat="43.91345" lon="3.47312">
        <ele>715.799988</ele>
        <time>2013-04-25T09:16:16Z</time>
      </trkpt>
      <trkpt lat="43.91348" lon="3.47301">
        <ele>715.299988</ele>
        <time>2013-04-25T09:16:23Z</time>
      </trkpt>
      <trkpt lat="43.91353" lon="3.47291">
        <ele>715.400024</ele>
        <time>2013-04-25T09:16:30Z</time>
      </trkpt>
      <trkpt lat="43.91357" lon="3.47283">
        <ele>715.400024</ele>
        <time>2013-04-25T09:16:35Z</time>
      </trkpt>
      <trkpt lat="43.91362" lon="3.47274">
        <ele>715.400024</ele>
        <time>2013-04-25T09:16:39Z</time>
      </trkpt>
      <trkpt lat="43.91367" lon="3.47265">
        <ele>715.900024</ele>
        <time>2013-04-25T09:16:47Z</time>
      </trkpt>
      <trkpt lat="43.91373" lon="3.47256">
        <ele>715.200012</ele>
        <time>2013-04-25T09:16:52Z</time>
      </trkpt>
      <trkpt lat="43.91373" lon="3.47256">
        <ele>715.299988</ele>
        <time>2013-04-25T09:16:53Z</time>
      </trkpt>
      <trkpt lat="43.91386" lon="3.4724">
        <ele>715.5</ele>
        <time>2013-04-25T09:17:09Z</time>
      </trkpt>
      <trkpt lat="43.91393" lon="3.47232">
        <ele>715.900024</ele>
        <time>2013-04-25T09:17:15Z</time>
      </trkpt>
      <trkpt lat="43.91398" lon="3.47223">
        <ele>716.200012</ele>
        <time>2013-04-25T09:17:21Z</time>
      </trkpt>
      <trkpt lat="43.91404" lon="3.47215">
        <ele>716.400024</ele>
        <time>2013-04-25T09:17:29Z</time>
      </trkpt>
      <trkpt lat="43.91411" lon="3.47208">
        <ele>716.799988</ele>
        <time>2013-04-25T09:17:33Z</time>
      </trkpt>
      <trkpt lat="43.91418" lon="3.47201">
        <ele>716.900024</ele>
        <time>2013-04-25T09:17:42Z</time>
      </trkpt>
      <trkpt lat="43.91425" lon="3.47196">
        <ele>716.900024</ele>
        <time>2013-04-25T09:17:50Z</time>
      </trkpt>
      <trkpt lat="43.91434" lon="3.47191">
        <ele>717.200012</ele>
        <time>2013-04-25T09:17:55Z</time>
      </trkpt>
      <trkpt lat="43.91435" lon="3.47189">
        <ele>716.900024</ele>
        <time>2013-04-25T09:17:56Z</time>
      </trkpt>
      <trkpt lat="43.91449" lon="3.4718">
        <ele>717.599976</ele>
        <time>2013-04-25T09:18:08Z</time>
      </trkpt>
      <trkpt lat="43.91456" lon="3.47174">
        <ele>717.799988</ele>
        <time>2013-04-25T09:18:15Z</time>
      </trkpt>
      <trkpt lat="43.91464" lon="3.47169">
        <ele>717.400024</ele>
        <time>2013-04-25T09:18:22Z</time>
      </trkpt>
      <trkpt lat="43.91471" lon="3.47163">
        <ele>717.299988</ele>
        <time>2013-04-25T09:18:28Z</time>
      </trkpt>
      <trkpt lat="43.91476" lon="3.47152">
        <ele>717.599976</ele>
        <time>2013-04-25T09:18:48Z</time>
      </trkpt>
      <trkpt lat="43.91477" lon="3.4714">
        <ele>715.900024</ele>
        <time>2013-04-25T09:24:15Z</time>
      </trkpt>
      <trkpt lat="43.91477" lon="3.47139">
        <ele>715.700012</ele>
        <time>2013-04-25T09:24:16Z</time>
      </trkpt>
      <trkpt lat="43.91471" lon="3.47119">
        <ele>715.200012</ele>
        <time>2013-04-25T09:24:33Z</time>
      </trkpt>
      <trkpt lat="43.9147" lon="3.47107">
        <ele>714.700012</ele>
        <time>2013-04-25T09:24:41Z</time>
      </trkpt>
      <trkpt lat="43.91469" lon="3.47096">
        <ele>714.299988</ele>
        <time>2013-04-25T09:24:48Z</time>
      </trkpt>
      <trkpt lat="43.91466" lon="3.47085">
        <ele>713.599976</ele>
        <time>2013-04-25T09:24:56Z</time>
      </trkpt>
      <trkpt lat="43.91465" lon="3.47074">
        <ele>713</ele>
        <time>2013-04-25T09:25:03Z</time>
      </trkpt>
      <trkpt lat="43.91464" lon="3.47063">
        <ele>714.400024</ele>
        <time>2013-04-25T09:25:10Z</time>
      </trkpt>
      <trkpt lat="43.91462" lon="3.47051">
        <ele>713.799988</ele>
        <time>2013-04-25T09:25:18Z</time>
      </trkpt>
      <trkpt lat="43.91461" lon="3.47049">
        <ele>714.299988</ele>
        <time>2013-04-25T09:25:19Z</time>
      </trkpt>
      <trkpt lat="43.91458" lon="3.47027">
        <ele>712.599976</ele>
        <time>2013-04-25T09:25:34Z</time>
      </trkpt>
      <trkpt lat="43.91455" lon="3.47016">
        <ele>713.400024</ele>
        <time>2013-04-25T09:25:41Z</time>
      </trkpt>
      <trkpt lat="43.9145" lon="3.47006">
        <ele>712.700012</ele>
        <time>2013-04-25T09:25:55Z</time>
      </trkpt>
      <trkpt lat="43.91448" lon="3.46996">
        <ele>713.200012</ele>
        <time>2013-04-25T09:26:30Z</time>
      </trkpt>
      <trkpt lat="43.91447" lon="3.46994">
        <ele>712.799988</ele>
        <time>2013-04-25T09:26:31Z</time>
      </trkpt>
      <trkpt lat="43.91444" lon="3.46973">
        <ele>711.099976</ele>
        <time>2013-04-25T09:26:43Z</time>
      </trkpt>
      <trkpt lat="43.91442" lon="3.46961">
        <ele>711.700012</ele>
        <time>2013-04-25T09:26:50Z</time>
      </trkpt>
      <trkpt lat="43.91441" lon="3.4695">
        <ele>711.099976</ele>
        <time>2013-04-25T09:26:56Z</time>
      </trkpt>
      <trkpt lat="43.91439" lon="3.46939">
        <ele>709.900024</ele>
        <time>2013-04-25T09:27:03Z</time>
      </trkpt>
      <trkpt lat="43.9144" lon="3.46929">
        <ele>710.900024</ele>
        <time>2013-04-25T09:27:08Z</time>
      </trkpt>
      <trkpt lat="43.91443" lon="3.46918">
        <ele>709.599976</ele>
        <time>2013-04-25T09:27:12Z</time>
      </trkpt>
      <trkpt lat="43.91439" lon="3.46907">
        <ele>709.700012</ele>
        <time>2013-04-25T09:27:19Z</time>
      </trkpt>
      <trkpt lat="43.91437" lon="3.46895">
        <ele>709.799988</ele>
        <time>2013-04-25T09:27:27Z</time>
      </trkpt>
      <trkpt lat="43.91439" lon="3.46884">
        <ele>708.700012</ele>
        <time>2013-04-25T09:27:51Z</time>
      </trkpt>
      <trkpt lat="43.91438" lon="3.46882">
        <ele>708.799988</ele>
        <time>2013-04-25T09:27:52Z</time>
      </trkpt>
      <trkpt lat="43.91437" lon="3.46861">
        <ele>707.700012</ele>
        <time>2013-04-25T09:28:05Z</time>
      </trkpt>
      <trkpt lat="43.91437" lon="3.4685">
        <ele>708.700012</ele>
        <time>2013-04-25T09:28:12Z</time>
      </trkpt>
      <trkpt lat="43.91439" lon="3.46839">
        <ele>708.200012</ele>
        <time>2013-04-25T09:28:19Z</time>
      </trkpt>
      <trkpt lat="43.91442" lon="3.46827">
        <ele>707.900024</ele>
        <time>2013-04-25T09:28:26Z</time>
      </trkpt>
      <trkpt lat="43.91446" lon="3.46816">
        <ele>707</ele>
        <time>2013-04-25T09:28:32Z</time>
      </trkpt>
      <trkpt lat="43.91448" lon="3.46804">
        <ele>705.200012</ele>
        <time>2013-04-25T09:28:40Z</time>
      </trkpt>
      <trkpt lat="43.91452" lon="3.46795">
        <ele>704.5</ele>
        <time>2013-04-25T09:28:45Z</time>
      </trkpt>
      <trkpt lat="43.91457" lon="3.46786">
        <ele>704.900024</ele>
        <time>2013-04-25T09:28:51Z</time>
      </trkpt>
      <trkpt lat="43.91462" lon="3.46777">
        <ele>704.299988</ele>
        <time>2013-04-25T09:28:56Z</time>
      </trkpt>
      <trkpt lat="43.91463" lon="3.46775">
        <ele>704.099976</ele>
        <time>2013-04-25T09:28:57Z</time>
      </trkpt>
      <trkpt lat="43.91456" lon="3.46755">
        <ele>704.200012</ele>
        <time>2013-04-25T09:29:09Z</time>
      </trkpt>
      <trkpt lat="43.9145" lon="3.46749">
        <ele>703.599976</ele>
        <time>2013-04-25T09:29:15Z</time>
      </trkpt>
      <trkpt lat="43.91444" lon="3.46741">
        <ele>703.400024</ele>
        <time>2013-04-25T09:29:20Z</time>
      </trkpt>
      <trkpt lat="43.91439" lon="3.46733">
        <ele>702.900024</ele>
        <time>2013-04-25T09:29:27Z</time>
      </trkpt>
      <trkpt lat="43.91432" lon="3.46725">
        <ele>703</ele>
        <time>2013-04-25T09:29:33Z</time>
      </trkpt>
      <trkpt lat="43.91426" lon="3.46718">
        <ele>704.099976</ele>
        <time>2013-04-25T09:29:40Z</time>
      </trkpt>
      <trkpt lat="43.91421" lon="3.46708">
        <ele>703.200012</ele>
        <time>2013-04-25T09:29:46Z</time>
      </trkpt>
      <trkpt lat="43.91414" lon="3.46701">
        <ele>703.200012</ele>
        <time>2013-04-25T09:29:53Z</time>
      </trkpt>
      <trkpt lat="43.91408" lon="3.46694">
        <ele>702.5</ele>
        <time>2013-04-25T09:29:59Z</time>
      </trkpt>
      <trkpt lat="43.91408" lon="3.46693">
        <ele>702.700012</ele>
        <time>2013-04-25T09:30:00Z</time>
      </trkpt>
      <trkpt lat="43.91397" lon="3.46678">
        <ele>702.400024</ele>
        <time>2013-04-25T09:30:11Z</time>
      </trkpt>
      <trkpt lat="43.91391" lon="3.46671">
        <ele>702.599976</ele>
        <time>2013-04-25T09:30:17Z</time>
      </trkpt>
      <trkpt lat="43.91385" lon="3.46661">
        <ele>703.400024</ele>
        <time>2013-04-25T09:30:23Z</time>
      </trkpt>
      <trkpt lat="43.9138" lon="3.46652">
        <ele>702.799988</ele>
        <time>2013-04-25T09:30:30Z</time>
      </trkpt>
      <trkpt lat="43.91375" lon="3.46645">
        <ele>702.400024</ele>
        <time>2013-04-25T09:30:35Z</time>
      </trkpt>
      <trkpt lat="43.9137" lon="3.46635">
        <ele>701.799988</ele>
        <time>2013-04-25T09:30:42Z</time>
      </trkpt>
      <trkpt lat="43.91365" lon="3.46625">
        <ele>702.299988</ele>
        <time>2013-04-25T09:30:48Z</time>
      </trkpt>
      <trkpt lat="43.91361" lon="3.46615">
        <ele>701.299988</ele>
        <time>2013-04-25T09:30:55Z</time>
      </trkpt>
      <trkpt lat="43.91357" lon="3.46604">
        <ele>701.599976</ele>
        <time>2013-04-25T09:31:01Z</time>
      </trkpt>
      <trkpt lat="43.91356" lon="3.46602">
        <ele>701.599976</ele>
        <time>2013-04-25T09:31:02Z</time>
      </trkpt>
      <trkpt lat="43.91349" lon="3.46584">
        <ele>702.799988</ele>
        <time>2013-04-25T09:31:14Z</time>
      </trkpt>
      <trkpt lat="43.91346" lon="3.46573">
        <ele>701.799988</ele>
        <time>2013-04-25T09:31:21Z</time>
      </trkpt>
      <trkpt lat="43.9134" lon="3.46564">
        <ele>701.200012</ele>
        <time>2013-04-25T09:31:27Z</time>
      </trkpt>
      <trkpt lat="43.91335" lon="3.46556">
        <ele>701.200012</ele>
        <time>2013-04-25T09:31:33Z</time>
      </trkpt>
      <trkpt lat="43.91331" lon="3.46546">
        <ele>702.200012</ele>
        <time>2013-04-25T09:31:39Z</time>
      </trkpt>
      <trkpt lat="43.91327" lon="3.46537">
        <ele>701.299988</ele>
        <time>2013-04-25T09:31:46Z</time>
      </trkpt>
      <trkpt lat="43.91322" lon="3.46527">
        <ele>702.799988</ele>
        <time>2013-04-25T09:31:52Z</time>
      </trkpt>
      <trkpt lat="43.91317" lon="3.46518">
        <ele>703</ele>
        <time>2013-04-25T09:32:00Z</time>
      </trkpt>
      <trkpt lat="43.91312" lon="3.46507">
        <ele>703.700012</ele>
        <time>2013-04-25T09:32:08Z</time>
      </trkpt>
      <trkpt lat="43.91311" lon="3.46506">
        <ele>703.599976</ele>
        <time>2013-04-25T09:32:09Z</time>
      </trkpt>
      <trkpt lat="43.91304" lon="3.46487">
        <ele>704.700012</ele>
        <time>2013-04-25T09:32:21Z</time>
      </trkpt>
      <trkpt lat="43.91302" lon="3.46476">
        <ele>705.799988</ele>
        <time>2013-04-25T09:32:29Z</time>
      </trkpt>
      <trkpt lat="43.91299" lon="3.46464">
        <ele>705.099976</ele>
        <time>2013-04-25T09:32:36Z</time>
      </trkpt>
      <trkpt lat="43.91296" lon="3.46453">
        <ele>706.200012</ele>
        <time>2013-04-25T09:32:43Z</time>
      </trkpt>
      <trkpt lat="43.91295" lon="3.46441">
        <ele>706.599976</ele>
        <time>2013-04-25T09:32:51Z</time>
      </trkpt>
      <trkpt lat="43.91295" lon="3.46429">
        <ele>708</ele>
        <time>2013-04-25T09:33:00Z</time>
      </trkpt>
      <trkpt lat="43.91292" lon="3.46417">
        <ele>708</ele>
        <time>2013-04-25T09:33:17Z</time>
      </trkpt>
      <trkpt lat="43.91292" lon="3.46416">
        <ele>708.200012</ele>
        <time>2013-04-25T09:33:18Z</time>
      </trkpt>
      <trkpt lat="43.91289" lon="3.46395">
        <ele>708.400024</ele>
        <time>2013-04-25T09:33:53Z</time>
      </trkpt>
      <trkpt lat="43.91287" lon="3.46384">
        <ele>707</ele>
        <time>2013-04-25T09:34:00Z</time>
      </trkpt>
      <trkpt lat="43.91282" lon="3.46373">
        <ele>706.900024</ele>
        <time>2013-04-25T09:34:07Z</time>
      </trkpt>
      <trkpt lat="43.91277" lon="3.46365">
        <ele>705.5</ele>
        <time>2013-04-25T09:34:14Z</time>
      </trkpt>
      <trkpt lat="43.9127" lon="3.46358">
        <ele>704.5</ele>
        <time>2013-04-25T09:34:20Z</time>
      </trkpt>
      <trkpt lat="43.9127" lon="3.46357">
        <ele>704.299988</ele>
        <time>2013-04-25T09:34:21Z</time>
      </trkpt>
      <trkpt lat="43.91258" lon="3.46341">
        <ele>702.700012</ele>
        <time>2013-04-25T09:34:34Z</time>
      </trkpt>
      <trkpt lat="43.91252" lon="3.46334">
        <ele>701.400024</ele>
        <time>2013-04-25T09:34:41Z</time>
      </trkpt>
      <trkpt lat="43.91245" lon="3.46327">
        <ele>701.599976</ele>
        <time>2013-04-25T09:34:46Z</time>
      </trkpt>
      <trkpt lat="43.9124" lon="3.46317">
        <ele>700.799988</ele>
        <time>2013-04-25T09:34:53Z</time>
      </trkpt>
      <trkpt lat="43.91234" lon="3.4631">
        <ele>700</ele>
        <time>2013-04-25T09:34:59Z</time>
      </trkpt>
      <trkpt lat="43.91227" lon="3.46304">
        <ele>699.5</ele>
        <time>2013-04-25T09:35:05Z</time>
      </trkpt>
      <trkpt lat="43.91221" lon="3.46297">
        <ele>698.599976</ele>
        <time>2013-04-25T09:35:11Z</time>
      </trkpt>
      <trkpt lat="43.91214" lon="3.46291">
        <ele>698.799988</ele>
        <time>2013-04-25T09:35:17Z</time>
      </trkpt>
      <trkpt lat="43.91208" lon="3.46284">
        <ele>698.200012</ele>
        <time>2013-04-25T09:35:27Z</time>
      </trkpt>
      <trkpt lat="43.91207" lon="3.46282">
        <ele>698.400024</ele>
        <time>2013-04-25T09:35:28Z</time>
      </trkpt>
      <trkpt lat="43.91193" lon="3.46271">
        <ele>697.200012</ele>
        <time>2013-04-25T09:35:40Z</time>
      </trkpt>
      <trkpt lat="43.91187" lon="3.46263">
        <ele>696.599976</ele>
        <time>2013-04-25T09:35:47Z</time>
      </trkpt>
      <trkpt lat="43.91181" lon="3.46255">
        <ele>696.400024</ele>
        <time>2013-04-25T09:35:56Z</time>
      </trkpt>
      <trkpt lat="43.91176" lon="3.46247">
        <ele>695.900024</ele>
        <time>2013-04-25T09:36:03Z</time>
      </trkpt>
      <trkpt lat="43.9117" lon="3.46239">
        <ele>695.099976</ele>
        <time>2013-04-25T09:36:09Z</time>
      </trkpt>
      <trkpt lat="43.91164" lon="3.4623">
        <ele>695.299988</ele>
        <time>2013-04-25T09:36:16Z</time>
      </trkpt>
      <trkpt lat="43.91158" lon="3.46224">
        <ele>694.900024</ele>
        <time>2013-04-25T09:36:22Z</time>
      </trkpt>
      <trkpt lat="43.91151" lon="3.46217">
        <ele>695.299988</ele>
        <time>2013-04-25T09:36:28Z</time>
      </trkpt>
      <trkpt lat="43.91144" lon="3.46212">
        <ele>694.900024</ele>
        <time>2013-04-25T09:36:34Z</time>
      </trkpt>
      <trkpt lat="43.91143" lon="3.46211">
        <ele>694.700012</ele>
        <time>2013-04-25T09:36:35Z</time>
      </trkpt>
      <trkpt lat="43.9113" lon="3.46201">
        <ele>694.299988</ele>
        <time>2013-04-25T09:36:47Z</time>
      </trkpt>
      <trkpt lat="43.91122" lon="3.46197">
        <ele>693.200012</ele>
        <time>2013-04-25T09:36:53Z</time>
      </trkpt>
      <trkpt lat="43.91114" lon="3.46193">
        <ele>692.5</ele>
        <time>2013-04-25T09:37:00Z</time>
      </trkpt>
      <trkpt lat="43.91106" lon="3.46196">
        <ele>691.5</ele>
        <time>2013-04-25T09:37:11Z</time>
      </trkpt>
      <trkpt lat="43.911" lon="3.46204">
        <ele>693.099976</ele>
        <time>2013-04-25T09:37:19Z</time>
      </trkpt>
      <trkpt lat="43.91093" lon="3.4621">
        <ele>691</ele>
        <time>2013-04-25T09:37:26Z</time>
      </trkpt>
      <trkpt lat="43.91085" lon="3.46216">
        <ele>690.799988</ele>
        <time>2013-04-25T09:37:36Z</time>
      </trkpt>
      <trkpt lat="43.91084" lon="3.46216">
        <ele>690.799988</ele>
        <time>2013-04-25T09:37:37Z</time>
      </trkpt>
      <trkpt lat="43.91071" lon="3.46227">
        <ele>691.400024</ele>
        <time>2013-04-25T09:37:52Z</time>
      </trkpt>
      <trkpt lat="43.91064" lon="3.46234">
        <ele>691</ele>
        <time>2013-04-25T09:38:00Z</time>
      </trkpt>
      <trkpt lat="43.91057" lon="3.4624">
        <ele>690.299988</ele>
        <time>2013-04-25T09:38:08Z</time>
      </trkpt>
      <trkpt lat="43.91051" lon="3.46248">
        <ele>691.099976</ele>
        <time>2013-04-25T09:38:26Z</time>
      </trkpt>
      <trkpt lat="43.91044" lon="3.46257">
        <ele>691.099976</ele>
        <time>2013-04-25T09:38:36Z</time>
      </trkpt>
      <trkpt lat="43.91038" lon="3.46264">
        <ele>689.599976</ele>
        <time>2013-04-25T09:38:44Z</time>
      </trkpt>
      <trkpt lat="43.91037" lon="3.46264">
        <ele>689.900024</ele>
        <time>2013-04-25T09:38:45Z</time>
      </trkpt>
      <trkpt lat="43.91035" lon="3.46262">
        <ele>690.400024</ele>
        <time>2013-04-25T09:39:36Z</time>
      </trkpt>
      <trkpt lat="43.91036" lon="3.4625">
        <ele>692.299988</ele>
        <time>2013-04-25T09:39:50Z</time>
      </trkpt>
      <trkpt lat="43.91036" lon="3.46249">
        <ele>692.5</ele>
        <time>2013-04-25T09:39:51Z</time>
      </trkpt>
      <trkpt lat="43.91036" lon="3.46227">
        <ele>691.400024</ele>
        <time>2013-04-25T09:40:09Z</time>
      </trkpt>
      <trkpt lat="43.91031" lon="3.46217">
        <ele>692.599976</ele>
        <time>2013-04-25T09:40:18Z</time>
      </trkpt>
      <trkpt lat="43.91026" lon="3.46207">
        <ele>695.200012</ele>
        <time>2013-04-25T09:40:29Z</time>
      </trkpt>
      <trkpt lat="43.9102" lon="3.46199">
        <ele>695.700012</ele>
        <time>2013-04-25T09:40:37Z</time>
      </trkpt>
      <trkpt lat="43.91017" lon="3.46188">
        <ele>696.799988</ele>
        <time>2013-04-25T09:40:47Z</time>
      </trkpt>
      <trkpt lat="43.91011" lon="3.46179">
        <ele>697.299988</ele>
        <time>2013-04-25T09:40:57Z</time>
      </trkpt>
      <trkpt lat="43.9101" lon="3.46178">
        <ele>697.299988</ele>
        <time>2013-04-25T09:40:58Z</time>
      </trkpt>
      <trkpt lat="43.91003" lon="3.46157">
        <ele>699.900024</ele>
        <time>2013-04-25T09:41:19Z</time>
      </trkpt>
      <trkpt lat="43.91006" lon="3.46145">
        <ele>699.400024</ele>
        <time>2013-04-25T09:41:41Z</time>
      </trkpt>
      <trkpt lat="43.91003" lon="3.46134">
        <ele>698.5</ele>
        <time>2013-04-25T09:41:52Z</time>
      </trkpt>
      <trkpt lat="43.90998" lon="3.46124">
        <ele>699.900024</ele>
        <time>2013-04-25T09:42:01Z</time>
      </trkpt>
      <trkpt lat="43.90997" lon="3.46123">
        <ele>699.400024</ele>
        <time>2013-04-25T09:42:02Z</time>
      </trkpt>
      <trkpt lat="43.90984" lon="3.46113">
        <ele>699.900024</ele>
        <time>2013-04-25T09:42:16Z</time>
      </trkpt>
      <trkpt lat="43.90976" lon="3.46109">
        <ele>699.799988</ele>
        <time>2013-04-25T09:42:23Z</time>
      </trkpt>
      <trkpt lat="43.90967" lon="3.46107">
        <ele>701</ele>
        <time>2013-04-25T09:42:33Z</time>
      </trkpt>
      <trkpt lat="43.90962" lon="3.46117">
        <ele>700.400024</ele>
        <time>2013-04-25T09:43:05Z</time>
      </trkpt>
      <trkpt lat="43.90962" lon="3.46117">
        <ele>700.400024</ele>
        <time>2013-04-25T09:43:06Z</time>
      </trkpt>
      <trkpt lat="43.90945" lon="3.46122">
        <ele>696.200012</ele>
        <time>2013-04-25T09:43:49Z</time>
      </trkpt>
      <trkpt lat="43.90937" lon="3.46126">
        <ele>694.200012</ele>
        <time>2013-04-25T09:44:04Z</time>
      </trkpt>
      <trkpt lat="43.90929" lon="3.46131">
        <ele>691.799988</ele>
        <time>2013-04-25T09:44:21Z</time>
      </trkpt>
      <trkpt lat="43.90929" lon="3.46132">
        <ele>691.599976</ele>
        <time>2013-04-25T09:44:22Z</time>
      </trkpt>
      <trkpt lat="43.90916" lon="3.46147">
        <ele>688.299988</ele>
        <time>2013-04-25T09:44:57Z</time>
      </trkpt>
      <trkpt lat="43.90909" lon="3.46153">
        <ele>685.5</ele>
        <time>2013-04-25T09:45:16Z</time>
      </trkpt>
      <trkpt lat="43.90901" lon="3.46149">
        <ele>684.400024</ele>
        <time>2013-04-25T09:45:34Z</time>
      </trkpt>
      <trkpt lat="43.909" lon="3.46149">
        <ele>684</ele>
        <time>2013-04-25T09:45:35Z</time>
      </trkpt>
      <trkpt lat="43.90884" lon="3.46156">
        <ele>675.900024</ele>
        <time>2013-04-25T09:46:35Z</time>
      </trkpt>
      <trkpt lat="43.90876" lon="3.46161">
        <ele>673.299988</ele>
        <time>2013-04-25T09:46:54Z</time>
      </trkpt>
      <trkpt lat="43.90875" lon="3.46161">
        <ele>673.5</ele>
        <time>2013-04-25T09:46:55Z</time>
      </trkpt>
      <trkpt lat="43.90868" lon="3.46179">
        <ele>669.799988</ele>
        <time>2013-04-25T09:47:38Z</time>
      </trkpt>
      <trkpt lat="43.90866" lon="3.46168">
        <ele>668.099976</ele>
        <time>2013-04-25T09:47:56Z</time>
      </trkpt>
      <trkpt lat="43.90865" lon="3.46167">
        <ele>667.700012</ele>
        <time>2013-04-25T09:47:57Z</time>
      </trkpt>
      <trkpt lat="43.90852" lon="3.46159">
        <ele>659.5</ele>
        <time>2013-04-25T09:49:05Z</time>
      </trkpt>
      <trkpt lat="43.90851" lon="3.46159">
        <ele>659.099976</ele>
        <time>2013-04-25T09:49:06Z</time>
      </trkpt>
      <trkpt lat="43.90845" lon="3.46179">
        <ele>654.200012</ele>
        <time>2013-04-25T09:49:56Z</time>
      </trkpt>
      <trkpt lat="43.9084" lon="3.46169">
        <ele>653.400024</ele>
        <time>2013-04-25T09:50:23Z</time>
      </trkpt>
      <trkpt lat="43.9084" lon="3.46169">
        <ele>653.200012</ele>
        <time>2013-04-25T09:50:24Z</time>
      </trkpt>
      <trkpt lat="43.90824" lon="3.46163">
        <ele>647.400024</ele>
        <time>2013-04-25T09:50:53Z</time>
      </trkpt>
      <trkpt lat="43.90815" lon="3.46163">
        <ele>646.5</ele>
        <time>2013-04-25T09:51:03Z</time>
      </trkpt>
      <trkpt lat="43.90807" lon="3.46164">
        <ele>644.799988</ele>
        <time>2013-04-25T09:51:13Z</time>
      </trkpt>
      <trkpt lat="43.90798" lon="3.46161">
        <ele>643.299988</ele>
        <time>2013-04-25T09:51:22Z</time>
      </trkpt>
      <trkpt lat="43.90791" lon="3.46155">
        <ele>642.200012</ele>
        <time>2013-04-25T09:51:32Z</time>
      </trkpt>
      <trkpt lat="43.9079" lon="3.46155">
        <ele>642.400024</ele>
        <time>2013-04-25T09:51:33Z</time>
      </trkpt>
      <trkpt lat="43.90774" lon="3.46149">
        <ele>640</ele>
        <time>2013-04-25T09:51:51Z</time>
      </trkpt>
      <trkpt lat="43.90766" lon="3.46145">
        <ele>638.200012</ele>
        <time>2013-04-25T09:51:59Z</time>
      </trkpt>
      <trkpt lat="43.90757" lon="3.46143">
        <ele>637.099976</ele>
        <time>2013-04-25T09:52:06Z</time>
      </trkpt>
      <trkpt lat="43.90749" lon="3.46141">
        <ele>637.700012</ele>
        <time>2013-04-25T09:52:14Z</time>
      </trkpt>
      <trkpt lat="43.90741" lon="3.4614">
        <ele>637.299988</ele>
        <time>2013-04-25T09:52:23Z</time>
      </trkpt>
      <trkpt lat="43.90732" lon="3.46142">
        <ele>638</ele>
        <time>2013-04-25T09:53:03Z</time>
      </trkpt>
      <trkpt lat="43.90732" lon="3.46142">
        <ele>638</ele>
        <time>2013-04-25T09:53:04Z</time>
      </trkpt>
      <trkpt lat="43.90716" lon="3.46145">
        <ele>637.799988</ele>
        <time>2013-04-25T09:53:15Z</time>
      </trkpt>
      <trkpt lat="43.90708" lon="3.46145">
        <ele>637.400024</ele>
        <time>2013-04-25T09:53:22Z</time>
      </trkpt>
      <trkpt lat="43.90699" lon="3.46145">
        <ele>636.5</ele>
        <time>2013-04-25T09:53:29Z</time>
      </trkpt>
      <trkpt lat="43.90691" lon="3.46149">
        <ele>635.299988</ele>
        <time>2013-04-25T09:53:35Z</time>
      </trkpt>
      <trkpt lat="43.90682" lon="3.46152">
        <ele>634.099976</ele>
        <time>2013-04-25T09:53:42Z</time>
      </trkpt>
      <trkpt lat="43.90675" lon="3.46157">
        <ele>631.400024</ele>
        <time>2013-04-25T09:53:51Z</time>
      </trkpt>
      <trkpt lat="43.90667" lon="3.4616">
        <ele>630.700012</ele>
        <time>2013-04-25T09:53:57Z</time>
      </trkpt>
      <trkpt lat="43.90659" lon="3.46162">
        <ele>628.299988</ele>
        <time>2013-04-25T09:54:03Z</time>
      </trkpt>
      <trkpt lat="43.90651" lon="3.46165">
        <ele>627.099976</ele>
        <time>2013-04-25T09:54:12Z</time>
      </trkpt>
      <trkpt lat="43.9065" lon="3.46166">
        <ele>626.700012</ele>
        <time>2013-04-25T09:54:13Z</time>
      </trkpt>
      <trkpt lat="43.90633" lon="3.46167">
        <ele>627.299988</ele>
        <time>2013-04-25T09:54:25Z</time>
      </trkpt>
      <trkpt lat="43.90626" lon="3.46171">
        <ele>626</ele>
        <time>2013-04-25T09:54:33Z</time>
      </trkpt>
      <trkpt lat="43.90617" lon="3.46171">
        <ele>626.099976</ele>
        <time>2013-04-25T09:54:39Z</time>
      </trkpt>
      <trkpt lat="43.90609" lon="3.4617">
        <ele>625</ele>
        <time>2013-04-25T09:54:46Z</time>
      </trkpt>
      <trkpt lat="43.906" lon="3.4617">
        <ele>625.700012</ele>
        <time>2013-04-25T09:54:53Z</time>
      </trkpt>
      <trkpt lat="43.90593" lon="3.46172">
        <ele>624.5</ele>
        <time>2013-04-25T09:54:59Z</time>
      </trkpt>
      <trkpt lat="43.90585" lon="3.46174">
        <ele>623.5</ele>
        <time>2013-04-25T09:55:06Z</time>
      </trkpt>
      <trkpt lat="43.90577" lon="3.46177">
        <ele>623.400024</ele>
        <time>2013-04-25T09:55:13Z</time>
      </trkpt>
      <trkpt lat="43.90569" lon="3.46177">
        <ele>622.799988</ele>
        <time>2013-04-25T09:55:19Z</time>
      </trkpt>
      <trkpt lat="43.90567" lon="3.46177">
        <ele>623</ele>
        <time>2013-04-25T09:55:20Z</time>
      </trkpt>
      <trkpt lat="43.90559" lon="3.46174">
        <ele>623.299988</ele>
        <time>2013-04-25T09:56:37Z</time>
      </trkpt>
      <trkpt lat="43.90554" lon="3.46152">
        <ele>620.900024</ele>
        <time>2013-04-25T09:57:50Z</time>
      </trkpt>
      <trkpt lat="43.90554" lon="3.46151">
        <ele>621</ele>
        <time>2013-04-25T09:57:51Z</time>
      </trkpt>
      <trkpt lat="43.90556" lon="3.46128">
        <ele>618</ele>
        <time>2013-04-25T09:58:45Z</time>
      </trkpt>
      <trkpt lat="43.90554" lon="3.46117">
        <ele>617.299988</ele>
        <time>2013-04-25T09:59:03Z</time>
      </trkpt>
      <trkpt lat="43.90554" lon="3.46116">
        <ele>617</ele>
        <time>2013-04-25T09:59:04Z</time>
      </trkpt>
      <trkpt lat="43.90553" lon="3.46093">
        <ele>615.5</ele>
        <time>2013-04-25T09:59:25Z</time>
      </trkpt>
      <trkpt lat="43.90551" lon="3.46083">
        <ele>614.900024</ele>
        <time>2013-04-25T09:59:32Z</time>
      </trkpt>
      <trkpt lat="43.90548" lon="3.46072">
        <ele>614</ele>
        <time>2013-04-25T09:59:40Z</time>
      </trkpt>
      <trkpt lat="43.90544" lon="3.46061">
        <ele>612.200012</ele>
        <time>2013-04-25T09:59:51Z</time>
      </trkpt>
      <trkpt lat="43.9054" lon="3.46051">
        <ele>610.799988</ele>
        <time>2013-04-25T10:00:02Z</time>
      </trkpt>
      <trkpt lat="43.90534" lon="3.46041">
        <ele>609.299988</ele>
        <time>2013-04-25T10:00:12Z</time>
      </trkpt>
      <trkpt lat="43.90534" lon="3.4604">
        <ele>608.799988</ele>
        <time>2013-04-25T10:00:13Z</time>
      </trkpt>
      <trkpt lat="43.90523" lon="3.46023">
        <ele>606.400024</ele>
        <time>2013-04-25T10:00:35Z</time>
      </trkpt>
      <trkpt lat="43.90516" lon="3.46015">
        <ele>605</ele>
        <time>2013-04-25T10:00:46Z</time>
      </trkpt>
      <trkpt lat="43.90512" lon="3.46004">
        <ele>602.799988</ele>
        <time>2013-04-25T10:00:59Z</time>
      </trkpt>
      <trkpt lat="43.90506" lon="3.45997">
        <ele>601.599976</ele>
        <time>2013-04-25T10:01:10Z</time>
      </trkpt>
      <trkpt lat="43.90501" lon="3.45988">
        <ele>601.400024</ele>
        <time>2013-04-25T10:01:19Z</time>
      </trkpt>
      <trkpt lat="43.905" lon="3.45987">
        <ele>601.400024</ele>
        <time>2013-04-25T10:01:20Z</time>
      </trkpt>
      <trkpt lat="43.90487" lon="3.45972">
        <ele>600.900024</ele>
        <time>2013-04-25T10:01:44Z</time>
      </trkpt>
      <trkpt lat="43.90483" lon="3.45961">
        <ele>601.099976</ele>
        <time>2013-04-25T10:01:55Z</time>
      </trkpt>
      <trkpt lat="43.90479" lon="3.45951">
        <ele>599.299988</ele>
        <time>2013-04-25T10:02:02Z</time>
      </trkpt>
      <trkpt lat="43.90475" lon="3.45941">
        <ele>597.599976</ele>
        <time>2013-04-25T10:02:09Z</time>
      </trkpt>
      <trkpt lat="43.9047" lon="3.45931">
        <ele>595.099976</ele>
        <time>2013-04-25T10:02:23Z</time>
      </trkpt>
      <trkpt lat="43.9047" lon="3.4593">
        <ele>595</ele>
        <time>2013-04-25T10:02:24Z</time>
      </trkpt>
      <trkpt lat="43.9046" lon="3.45912">
        <ele>592.299988</ele>
        <time>2013-04-25T10:02:46Z</time>
      </trkpt>
      <trkpt lat="43.90455" lon="3.45903">
        <ele>591.200012</ele>
        <time>2013-04-25T10:02:58Z</time>
      </trkpt>
      <trkpt lat="43.90451" lon="3.45893">
        <ele>588.799988</ele>
        <time>2013-04-25T10:03:08Z</time>
      </trkpt>
      <trkpt lat="43.90445" lon="3.45883">
        <ele>586.5</ele>
        <time>2013-04-25T10:03:19Z</time>
      </trkpt>
      <trkpt lat="43.9044" lon="3.45873">
        <ele>584.200012</ele>
        <time>2013-04-25T10:03:30Z</time>
      </trkpt>
      <trkpt lat="43.9044" lon="3.45872">
        <ele>584.099976</ele>
        <time>2013-04-25T10:03:31Z</time>
      </trkpt>
      <trkpt lat="43.9043" lon="3.45853">
        <ele>584.599976</ele>
        <time>2013-04-25T10:03:53Z</time>
      </trkpt>
      <trkpt lat="43.90425" lon="3.45845">
        <ele>583.299988</ele>
        <time>2013-04-25T10:04:05Z</time>
      </trkpt>
      <trkpt lat="43.90417" lon="3.45839">
        <ele>580.5</ele>
        <time>2013-04-25T10:04:23Z</time>
      </trkpt>
      <trkpt lat="43.9041" lon="3.45833">
        <ele>577.700012</ele>
        <time>2013-04-25T10:04:37Z</time>
      </trkpt>
      <trkpt lat="43.90409" lon="3.45833">
        <ele>577.099976</ele>
        <time>2013-04-25T10:04:38Z</time>
      </trkpt>
      <trkpt lat="43.90395" lon="3.4582">
        <ele>572.700012</ele>
        <time>2013-04-25T10:05:15Z</time>
      </trkpt>
      <trkpt lat="43.90386" lon="3.45816">
        <ele>569.900024</ele>
        <time>2013-04-25T10:05:45Z</time>
      </trkpt>
      <trkpt lat="43.90386" lon="3.45816">
        <ele>569.5</ele>
        <time>2013-04-25T10:05:46Z</time>
      </trkpt>
      <trkpt lat="43.90371" lon="3.45805">
        <ele>565.099976</ele>
        <time>2013-04-25T10:06:37Z</time>
      </trkpt>
      <trkpt lat="43.90364" lon="3.45798">
        <ele>564.799988</ele>
        <time>2013-04-25T10:06:52Z</time>
      </trkpt>
      <trkpt lat="43.90364" lon="3.45798">
        <ele>563.700012</ele>
        <time>2013-04-25T10:06:53Z</time>
      </trkpt>
      <trkpt lat="43.90348" lon="3.4579">
        <ele>560.5</ele>
        <time>2013-04-25T10:07:16Z</time>
      </trkpt>
      <trkpt lat="43.9034" lon="3.45789">
        <ele>560.299988</ele>
        <time>2013-04-25T10:07:26Z</time>
      </trkpt>
      <trkpt lat="43.90331" lon="3.45788">
        <ele>557.900024</ele>
        <time>2013-04-25T10:07:35Z</time>
      </trkpt>
      <trkpt lat="43.90322" lon="3.45787">
        <ele>555.299988</ele>
        <time>2013-04-25T10:07:49Z</time>
      </trkpt>
      <trkpt lat="43.90313" lon="3.45787">
        <ele>553.799988</ele>
        <time>2013-04-25T10:08:04Z</time>
      </trkpt>
      <trkpt lat="43.90313" lon="3.45787">
        <ele>554</ele>
        <time>2013-04-25T10:08:05Z</time>
      </trkpt>
      <trkpt lat="43.90297" lon="3.45791">
        <ele>548.599976</ele>
        <time>2013-04-25T10:08:35Z</time>
      </trkpt>
      <trkpt lat="43.90289" lon="3.45794">
        <ele>544</ele>
        <time>2013-04-25T10:09:01Z</time>
      </trkpt>
      <trkpt lat="43.9028" lon="3.45795">
        <ele>540.400024</ele>
        <time>2013-04-25T10:09:16Z</time>
      </trkpt>
      <trkpt lat="43.90279" lon="3.45796">
        <ele>540.5</ele>
        <time>2013-04-25T10:09:17Z</time>
      </trkpt>
      <trkpt lat="43.90263" lon="3.45795">
        <ele>536.599976</ele>
        <time>2013-04-25T10:09:51Z</time>
      </trkpt>
      <trkpt lat="43.90255" lon="3.45792">
        <ele>533.299988</ele>
        <time>2013-04-25T10:10:10Z</time>
      </trkpt>
      <trkpt lat="43.90246" lon="3.45788">
        <ele>534.200012</ele>
        <time>2013-04-25T10:10:20Z</time>
      </trkpt>
      <trkpt lat="43.90246" lon="3.45787">
        <ele>534.099976</ele>
        <time>2013-04-25T10:10:21Z</time>
      </trkpt>
      <trkpt lat="43.90229" lon="3.45783">
        <ele>532.099976</ele>
        <time>2013-04-25T10:10:56Z</time>
      </trkpt>
      <trkpt lat="43.90221" lon="3.45785">
        <ele>528.799988</ele>
        <time>2013-04-25T10:11:16Z</time>
      </trkpt>
      <trkpt lat="43.90212" lon="3.45784">
        <ele>527.099976</ele>
        <time>2013-04-25T10:11:33Z</time>
      </trkpt>
      <trkpt lat="43.90211" lon="3.45784">
        <ele>527</ele>
        <time>2013-04-25T10:11:34Z</time>
      </trkpt>
      <trkpt lat="43.90207" lon="3.45793">
        <ele>523.099976</ele>
        <time>2013-04-25T10:12:21Z</time>
      </trkpt>
      <trkpt lat="43.90202" lon="3.45803">
        <ele>518.700012</ele>
        <time>2013-04-25T10:12:56Z</time>
      </trkpt>
      <trkpt lat="43.90201" lon="3.45803">
        <ele>518.599976</ele>
        <time>2013-04-25T10:12:57Z</time>
      </trkpt>
      <trkpt lat="43.90193" lon="3.45814">
        <ele>513.900024</ele>
        <time>2013-04-25T10:13:31Z</time>
      </trkpt>
      <trkpt lat="43.90198" lon="3.45824">
        <ele>510.600006</ele>
        <time>2013-04-25T10:13:48Z</time>
      </trkpt>
      <trkpt lat="43.90204" lon="3.45832">
        <ele>508.700012</ele>
        <time>2013-04-25T10:14:04Z</time>
      </trkpt>
      <trkpt lat="43.90204" lon="3.45832">
        <ele>508.5</ele>
        <time>2013-04-25T10:14:05Z</time>
      </trkpt>
      <trkpt lat="43.90191" lon="3.45844">
        <ele>499.700012</ele>
        <time>2013-04-25T10:15:06Z</time>
      </trkpt>
      <trkpt lat="43.9019" lon="3.45844">
        <ele>499.399994</ele>
        <time>2013-04-25T10:15:07Z</time>
      </trkpt>
      <trkpt lat="43.90174" lon="3.45847">
        <ele>494.899994</ele>
        <time>2013-04-25T10:15:38Z</time>
      </trkpt>
      <trkpt lat="43.90167" lon="3.45854">
        <ele>491.299988</ele>
        <time>2013-04-25T10:16:02Z</time>
      </trkpt>
      <trkpt lat="43.90158" lon="3.45857">
        <ele>488.399994</ele>
        <time>2013-04-25T10:16:21Z</time>
      </trkpt>
      <trkpt lat="43.90158" lon="3.45857">
        <ele>488.100006</ele>
        <time>2013-04-25T10:16:22Z</time>
      </trkpt>
      <trkpt lat="43.90142" lon="3.45864">
        <ele>484.600006</ele>
        <time>2013-04-25T10:16:52Z</time>
      </trkpt>
      <trkpt lat="43.90133" lon="3.45868">
        <ele>483.200012</ele>
        <time>2013-04-25T10:17:05Z</time>
      </trkpt>
      <trkpt lat="43.90126" lon="3.45873">
        <ele>481.799988</ele>
        <time>2013-04-25T10:17:16Z</time>
      </trkpt>
      <trkpt lat="43.90118" lon="3.45877">
        <ele>479.299988</ele>
        <time>2013-04-25T10:17:31Z</time>
      </trkpt>
      <trkpt lat="43.90117" lon="3.45878">
        <ele>479.399994</ele>
        <time>2013-04-25T10:17:32Z</time>
      </trkpt>
      <trkpt lat="43.90101" lon="3.45877">
        <ele>476.399994</ele>
        <time>2013-04-25T10:18:05Z</time>
      </trkpt>
      <trkpt lat="43.90093" lon="3.45871">
        <ele>473.5</ele>
        <time>2013-04-25T10:18:14Z</time>
      </trkpt>
      <trkpt lat="43.90087" lon="3.45879">
        <ele>473.799988</ele>
        <time>2013-04-25T10:18:24Z</time>
      </trkpt>
      <trkpt lat="43.90083" lon="3.4589">
        <ele>472</ele>
        <time>2013-04-25T10:18:38Z</time>
      </trkpt>
      <trkpt lat="43.90083" lon="3.45891">
        <ele>471.700012</ele>
        <time>2013-04-25T10:18:39Z</time>
      </trkpt>
      <trkpt lat="43.9007" lon="3.45902">
        <ele>469.899994</ele>
        <time>2013-04-25T10:19:09Z</time>
      </trkpt>
      <trkpt lat="43.90062" lon="3.45904">
        <ele>470.200012</ele>
        <time>2013-04-25T10:19:16Z</time>
      </trkpt>
      <trkpt lat="43.90054" lon="3.45906">
        <ele>469.899994</ele>
        <time>2013-04-25T10:19:24Z</time>
      </trkpt>
      <trkpt lat="43.90045" lon="3.45909">
        <ele>469.299988</ele>
        <time>2013-04-25T10:19:33Z</time>
      </trkpt>
      <trkpt lat="43.90037" lon="3.45908">
        <ele>469.200012</ele>
        <time>2013-04-25T10:19:39Z</time>
      </trkpt>
      <trkpt lat="43.90036" lon="3.45909">
        <ele>468.799988</ele>
        <time>2013-04-25T10:19:40Z</time>
      </trkpt>
      <trkpt lat="43.90023" lon="3.45921">
        <ele>469.100006</ele>
        <time>2013-04-25T10:20:01Z</time>
      </trkpt>
      <trkpt lat="43.90014" lon="3.45923">
        <ele>469.399994</ele>
        <time>2013-04-25T10:20:09Z</time>
      </trkpt>
      <trkpt lat="43.90006" lon="3.45928">
        <ele>470.200012</ele>
        <time>2013-04-25T10:20:17Z</time>
      </trkpt>
      <trkpt lat="43.90003" lon="3.45939">
        <ele>469.799988</ele>
        <time>2013-04-25T10:20:29Z</time>
      </trkpt>
      <trkpt lat="43.89995" lon="3.45944">
        <ele>469.700012</ele>
        <time>2013-04-25T10:20:39Z</time>
      </trkpt>
      <trkpt lat="43.89987" lon="3.45949">
        <ele>470.299988</ele>
        <time>2013-04-25T10:20:47Z</time>
      </trkpt>
      <trkpt lat="43.89986" lon="3.45949">
        <ele>470</ele>
        <time>2013-04-25T10:20:48Z</time>
      </trkpt>
      <trkpt lat="43.89971" lon="3.45953">
        <ele>468.5</ele>
        <time>2013-04-25T10:21:17Z</time>
      </trkpt>
      <trkpt lat="43.89963" lon="3.45955">
        <ele>467.100006</ele>
        <time>2013-04-25T10:21:23Z</time>
      </trkpt>
      <trkpt lat="43.89955" lon="3.45958">
        <ele>467.200012</ele>
        <time>2013-04-25T10:21:33Z</time>
      </trkpt>
      <trkpt lat="43.89947" lon="3.45961">
        <ele>467.700012</ele>
        <time>2013-04-25T10:21:44Z</time>
      </trkpt>
      <trkpt lat="43.89944" lon="3.45973">
        <ele>467.600006</ele>
        <time>2013-04-25T10:22:36Z</time>
      </trkpt>
      <trkpt lat="43.89944" lon="3.45974">
        <ele>467.399994</ele>
        <time>2013-04-25T10:22:37Z</time>
      </trkpt>
      <trkpt lat="43.89938" lon="3.4599">
        <ele>466.600006</ele>
        <time>2013-04-25T10:23:16Z</time>
      </trkpt>
      <trkpt lat="43.89946" lon="3.45995">
        <ele>468.5</ele>
        <time>2013-04-25T10:24:29Z</time>
      </trkpt>
      <trkpt lat="43.89947" lon="3.45996">
        <ele>468.299988</ele>
        <time>2013-04-25T10:24:30Z</time>
      </trkpt>
      <trkpt lat="43.89958" lon="3.46011">
        <ele>468</ele>
        <time>2013-04-25T10:25:00Z</time>
      </trkpt>
      <trkpt lat="43.89963" lon="3.46021">
        <ele>465.899994</ele>
        <time>2013-04-25T10:25:29Z</time>
      </trkpt>
      <trkpt lat="43.89967" lon="3.46032">
        <ele>464.399994</ele>
        <time>2013-04-25T10:26:07Z</time>
      </trkpt>
      <trkpt lat="43.89968" lon="3.46032">
        <ele>465</ele>
        <time>2013-04-25T10:26:08Z</time>
      </trkpt>
      <trkpt lat="43.89984" lon="3.46039">
        <ele>464.700012</ele>
        <time>2013-04-25T10:26:32Z</time>
      </trkpt>
      <trkpt lat="43.89989" lon="3.46041">
        <ele>466.600006</ele>
        <time>2013-04-25T10:28:48Z</time>
      </trkpt>
      <trkpt lat="43.89983" lon="3.46052">
        <ele>466.5</ele>
        <time>2013-04-25T10:28:49Z</time>
      </trkpt>
      <trkpt lat="43.89978" lon="3.46061">
        <ele>466.299988</ele>
        <time>2013-04-25T10:28:50Z</time>
      </trkpt>
      <trkpt lat="43.89977" lon="3.46073">
        <ele>467.100006</ele>
        <time>2013-04-25T10:28:54Z</time>
      </trkpt>
      <trkpt lat="43.89969" lon="3.46078">
        <ele>466.100006</ele>
        <time>2013-04-25T10:29:03Z</time>
      </trkpt>
      <trkpt lat="43.89973" lon="3.4607">
        <ele>465.200012</ele>
        <time>2013-04-25T10:29:24Z</time>
      </trkpt>
      <trkpt lat="43.89974" lon="3.46059">
        <ele>463.299988</ele>
        <time>2013-04-25T10:29:30Z</time>
      </trkpt>
      <trkpt lat="43.89976" lon="3.46048">
        <ele>464.5</ele>
        <time>2013-04-25T10:29:39Z</time>
      </trkpt>
      <trkpt lat="43.89985" lon="3.46053">
        <ele>463.200012</ele>
        <time>2013-04-25T10:29:48Z</time>
      </trkpt>
      <trkpt lat="43.89989" lon="3.46063">
        <ele>460.700012</ele>
        <time>2013-04-25T10:29:55Z</time>
      </trkpt>
      <trkpt lat="43.8999" lon="3.46064">
        <ele>460.600006</ele>
        <time>2013-04-25T10:29:56Z</time>
      </trkpt>
      <trkpt lat="43.90005" lon="3.46066">
        <ele>458.5</ele>
        <time>2013-04-25T10:30:08Z</time>
      </trkpt>
      <trkpt lat="43.90013" lon="3.46064">
        <ele>457.600006</ele>
        <time>2013-04-25T10:30:13Z</time>
      </trkpt>
      <trkpt lat="43.90022" lon="3.46063">
        <ele>457.700012</ele>
        <time>2013-04-25T10:30:22Z</time>
      </trkpt>
      <trkpt lat="43.90028" lon="3.46072">
        <ele>457.5</ele>
        <time>2013-04-25T10:30:32Z</time>
      </trkpt>
      <trkpt lat="43.90036" lon="3.46074">
        <ele>456.700012</ele>
        <time>2013-04-25T10:30:59Z</time>
      </trkpt>
      <trkpt lat="43.90036" lon="3.46075">
        <ele>456.399994</ele>
        <time>2013-04-25T10:31:00Z</time>
      </trkpt>
      <trkpt lat="43.90043" lon="3.46065">
        <ele>456.799988</ele>
        <time>2013-04-25T10:34:15Z</time>
      </trkpt>
      <trkpt lat="43.90047" lon="3.46046">
        <ele>457.600006</ele>
        <time>2013-04-25T10:34:31Z</time>
      </trkpt>
      <trkpt lat="43.90046" lon="3.46034">
        <ele>458.299988</ele>
        <time>2013-04-25T10:35:01Z</time>
      </trkpt>
      <trkpt lat="43.9004" lon="3.46043">
        <ele>458</ele>
        <time>2013-04-25T10:37:10Z</time>
      </trkpt>
      <trkpt lat="43.9004" lon="3.46044">
        <ele>458</ele>
        <time>2013-04-25T10:37:11Z</time>
      </trkpt>
      <trkpt lat="43.90029" lon="3.46061">
        <ele>458.5</ele>
        <time>2013-04-25T10:37:27Z</time>
      </trkpt>
      <trkpt lat="43.9003" lon="3.46073">
        <ele>458.299988</ele>
        <time>2013-04-25T10:38:19Z</time>
      </trkpt>
      <trkpt lat="43.90029" lon="3.46074">
        <ele>458.200012</ele>
        <time>2013-04-25T10:38:20Z</time>
      </trkpt>
      <trkpt lat="43.90035" lon="3.46084">
        <ele>458.200012</ele>
        <time>2013-04-25T10:39:41Z</time>
      </trkpt>
      <trkpt lat="43.90035" lon="3.46084">
        <ele>458.899994</ele>
        <time>2013-04-25T10:58:05Z</time>
      </trkpt>
      <trkpt lat="43.90035" lon="3.46084">
        <ele>458.799988</ele>
        <time>2013-04-25T10:58:06Z</time>
      </trkpt>
      <trkpt lat="43.90039" lon="3.46096">
        <ele>459.600006</ele>
        <time>2013-04-25T11:02:05Z</time>
      </trkpt>
      <trkpt lat="43.90034" lon="3.46092">
        <ele>458.200012</ele>
        <time>2013-04-25T11:03:14Z</time>
      </trkpt>
      <trkpt lat="43.90035" lon="3.4609">
        <ele>457.799988</ele>
        <time>2013-04-25T11:03:15Z</time>
      </trkpt>
      <trkpt lat="43.90039" lon="3.46072">
        <ele>458.200012</ele>
        <time>2013-04-25T11:04:38Z</time>
      </trkpt>
      <trkpt lat="43.9004" lon="3.4607">
        <ele>457.899994</ele>
        <time>2013-04-25T11:04:39Z</time>
      </trkpt>
      <trkpt lat="43.90038" lon="3.46085">
        <ele>458.299988</ele>
        <time>2013-04-25T11:05:44Z</time>
      </trkpt>
      <trkpt lat="43.9004" lon="3.46071">
        <ele>458.600006</ele>
        <time>2013-04-25T11:08:13Z</time>
      </trkpt>
      <trkpt lat="43.90035" lon="3.4606">
        <ele>458.5</ele>
        <time>2013-04-25T11:09:17Z</time>
      </trkpt>
      <trkpt lat="43.90035" lon="3.46062">
        <ele>458.200012</ele>
        <time>2013-04-25T11:09:18Z</time>
      </trkpt>
      <trkpt lat="43.90037" lon="3.46082">
        <ele>458.100006</ele>
        <time>2013-04-25T11:11:01Z</time>
      </trkpt>
      <trkpt lat="43.90037" lon="3.46082">
        <ele>457.899994</ele>
        <time>2013-04-25T11:11:02Z</time>
      </trkpt>
      <trkpt lat="43.90029" lon="3.46076">
        <ele>459.100006</ele>
        <time>2013-04-25T11:14:59Z</time>
      </trkpt>
      <trkpt lat="43.90032" lon="3.461">
        <ele>458.299988</ele>
        <time>2013-04-25T11:15:47Z</time>
      </trkpt>
      <trkpt lat="43.90034" lon="3.46111">
        <ele>459.5</ele>
        <time>2013-04-25T11:15:57Z</time>
      </trkpt>
      <trkpt lat="43.90039" lon="3.46121">
        <ele>458.299988</ele>
        <time>2013-04-25T11:16:12Z</time>
      </trkpt>
      <trkpt lat="43.90039" lon="3.46122">
        <ele>458.200012</ele>
        <time>2013-04-25T11:16:13Z</time>
      </trkpt>
      <trkpt lat="43.90035" lon="3.461">
        <ele>459.5</ele>
        <time>2013-04-25T11:16:50Z</time>
      </trkpt>
      <trkpt lat="43.90035" lon="3.46088">
        <ele>459.5</ele>
        <time>2013-04-25T11:17:00Z</time>
      </trkpt>
      <trkpt lat="43.90041" lon="3.46078">
        <ele>459.299988</ele>
        <time>2013-04-25T11:17:09Z</time>
      </trkpt>
      <trkpt lat="43.90048" lon="3.46072">
        <ele>459.5</ele>
        <time>2013-04-25T11:20:45Z</time>
      </trkpt>
      <trkpt lat="43.90049" lon="3.4607">
        <ele>459.799988</ele>
        <time>2013-04-25T11:20:46Z</time>
      </trkpt>
      <trkpt lat="43.90054" lon="3.4605">
        <ele>457.799988</ele>
        <time>2013-04-25T11:20:59Z</time>
      </trkpt>
      <trkpt lat="43.90058" lon="3.46039">
        <ele>459.399994</ele>
        <time>2013-04-25T11:21:07Z</time>
      </trkpt>
      <trkpt lat="43.90057" lon="3.46027">
        <ele>460.799988</ele>
        <time>2013-04-25T11:25:18Z</time>
      </trkpt>
      <trkpt lat="43.90057" lon="3.46026">
        <ele>460.600006</ele>
        <time>2013-04-25T11:25:19Z</time>
      </trkpt>
      <trkpt lat="43.90043" lon="3.46038">
        <ele>461.100006</ele>
        <time>2013-04-25T11:25:47Z</time>
      </trkpt>
      <trkpt lat="43.90035" lon="3.46042">
        <ele>460.399994</ele>
        <time>2013-04-25T11:25:52Z</time>
      </trkpt>
      <trkpt lat="43.9003" lon="3.46052">
        <ele>459.899994</ele>
        <time>2013-04-25T11:26:01Z</time>
      </trkpt>
      <trkpt lat="43.90029" lon="3.46063">
        <ele>461.200012</ele>
        <time>2013-04-25T11:26:09Z</time>
      </trkpt>
      <trkpt lat="43.90033" lon="3.46074">
        <ele>461.399994</ele>
        <time>2013-04-25T11:26:37Z</time>
      </trkpt>
      <trkpt lat="43.90033" lon="3.46075">
        <ele>461.399994</ele>
        <time>2013-04-25T11:26:38Z</time>
      </trkpt>
      <trkpt lat="43.90042" lon="3.46086">
        <ele>460.100006</ele>
        <time>2013-04-25T11:29:29Z</time>
      </trkpt>
      <trkpt lat="43.90042" lon="3.46087">
        <ele>459.799988</ele>
        <time>2013-04-25T11:29:30Z</time>
      </trkpt>
      <trkpt lat="43.90058" lon="3.46082">
        <ele>458.899994</ele>
        <time>2013-04-25T11:29:48Z</time>
      </trkpt>
      <trkpt lat="43.90066" lon="3.46076">
        <ele>459</ele>
        <time>2013-04-25T11:29:58Z</time>
      </trkpt>
      <trkpt lat="43.90073" lon="3.46072">
        <ele>459</ele>
        <time>2013-04-25T11:31:17Z</time>
      </trkpt>
      <trkpt lat="43.90074" lon="3.46071">
        <ele>458.399994</ele>
        <time>2013-04-25T11:31:18Z</time>
      </trkpt>
      <trkpt lat="43.90088" lon="3.46061">
        <ele>459.100006</ele>
        <time>2013-04-25T11:31:31Z</time>
      </trkpt>
      <trkpt lat="43.90095" lon="3.46058">
        <ele>458.600006</ele>
        <time>2013-04-25T11:31:36Z</time>
      </trkpt>
      <trkpt lat="43.90103" lon="3.46053">
        <ele>459.200012</ele>
        <time>2013-04-25T11:31:43Z</time>
      </trkpt>
      <trkpt lat="43.90111" lon="3.46051">
        <ele>459</ele>
        <time>2013-04-25T11:31:58Z</time>
      </trkpt>
      <trkpt lat="43.90119" lon="3.46045">
        <ele>458.899994</ele>
        <time>2013-04-25T11:32:05Z</time>
      </trkpt>
      <trkpt lat="43.90127" lon="3.46041">
        <ele>457.5</ele>
        <time>2013-04-25T11:32:12Z</time>
      </trkpt>
      <trkpt lat="43.90135" lon="3.46037">
        <ele>458.600006</ele>
        <time>2013-04-25T11:32:19Z</time>
      </trkpt>
      <trkpt lat="43.90136" lon="3.46036">
        <ele>458.700012</ele>
        <time>2013-04-25T11:32:20Z</time>
      </trkpt>
      <trkpt lat="43.9015" lon="3.46031">
        <ele>457.299988</ele>
        <time>2013-04-25T11:32:32Z</time>
      </trkpt>
      <trkpt lat="43.90158" lon="3.46028">
        <ele>457.200012</ele>
        <time>2013-04-25T11:32:40Z</time>
      </trkpt>
      <trkpt lat="43.90166" lon="3.46027">
        <ele>458.100006</ele>
        <time>2013-04-25T11:32:47Z</time>
      </trkpt>
      <trkpt lat="43.90174" lon="3.46027">
        <ele>457.799988</ele>
        <time>2013-04-25T11:32:56Z</time>
      </trkpt>
      <trkpt lat="43.90182" lon="3.46021">
        <ele>456.5</ele>
        <time>2013-04-25T11:33:04Z</time>
      </trkpt>
      <trkpt lat="43.90189" lon="3.46016">
        <ele>457.700012</ele>
        <time>2013-04-25T11:33:10Z</time>
      </trkpt>
      <trkpt lat="43.90196" lon="3.4601">
        <ele>458</ele>
        <time>2013-04-25T11:33:17Z</time>
      </trkpt>
      <trkpt lat="43.90204" lon="3.4601">
        <ele>456.399994</ele>
        <time>2013-04-25T11:33:25Z</time>
      </trkpt>
      <trkpt lat="43.90205" lon="3.4601">
        <ele>456.5</ele>
        <time>2013-04-25T11:33:26Z</time>
      </trkpt>
      <trkpt lat="43.90219" lon="3.46022">
        <ele>456.700012</ele>
        <time>2013-04-25T11:33:40Z</time>
      </trkpt>
      <trkpt lat="43.90226" lon="3.46029">
        <ele>456.299988</ele>
        <time>2013-04-25T11:33:50Z</time>
      </trkpt>
      <trkpt lat="43.9023" lon="3.46039">
        <ele>457.100006</ele>
        <time>2013-04-25T11:33:57Z</time>
      </trkpt>
      <trkpt lat="43.90234" lon="3.46048">
        <ele>456.899994</ele>
        <time>2013-04-25T11:34:05Z</time>
      </trkpt>
      <trkpt lat="43.90236" lon="3.4606">
        <ele>456.5</ele>
        <time>2013-04-25T11:34:13Z</time>
      </trkpt>
      <trkpt lat="43.90237" lon="3.46071">
        <ele>456.799988</ele>
        <time>2013-04-25T11:34:19Z</time>
      </trkpt>
      <trkpt lat="43.90237" lon="3.46083">
        <ele>457.399994</ele>
        <time>2013-04-25T11:34:27Z</time>
      </trkpt>
      <trkpt lat="43.90237" lon="3.46084">
        <ele>457.200012</ele>
        <time>2013-04-25T11:34:28Z</time>
      </trkpt>
      <trkpt lat="43.90236" lon="3.46105">
        <ele>456.600006</ele>
        <time>2013-04-25T11:34:40Z</time>
      </trkpt>
      <trkpt lat="43.90237" lon="3.46117">
        <ele>456</ele>
        <time>2013-04-25T11:34:47Z</time>
      </trkpt>
      <trkpt lat="43.90234" lon="3.46127">
        <ele>456.399994</ele>
        <time>2013-04-25T11:34:55Z</time>
      </trkpt>
      <trkpt lat="43.90233" lon="3.46139">
        <ele>457</ele>
        <time>2013-04-25T11:35:03Z</time>
      </trkpt>
      <trkpt lat="43.90228" lon="3.46149">
        <ele>457.5</ele>
        <time>2013-04-25T11:35:12Z</time>
      </trkpt>
      <trkpt lat="43.90224" lon="3.4616">
        <ele>456.899994</ele>
        <time>2013-04-25T11:35:20Z</time>
      </trkpt>
      <trkpt lat="43.90222" lon="3.46171">
        <ele>456.299988</ele>
        <time>2013-04-25T11:35:27Z</time>
      </trkpt>
      <trkpt lat="43.90218" lon="3.46182">
        <ele>455.200012</ele>
        <time>2013-04-25T11:35:36Z</time>
      </trkpt>
      <trkpt lat="43.90218" lon="3.46184">
        <ele>455.5</ele>
        <time>2013-04-25T11:35:37Z</time>
      </trkpt>
      <trkpt lat="43.90208" lon="3.46199">
        <ele>456.200012</ele>
        <time>2013-04-25T11:35:49Z</time>
      </trkpt>
      <trkpt lat="43.90202" lon="3.46206">
        <ele>455.700012</ele>
        <time>2013-04-25T11:35:55Z</time>
      </trkpt>
      <trkpt lat="43.90196" lon="3.46216">
        <ele>454.799988</ele>
        <time>2013-04-25T11:36:04Z</time>
      </trkpt>
      <trkpt lat="43.90188" lon="3.46221">
        <ele>455.100006</ele>
        <time>2013-04-25T11:36:10Z</time>
      </trkpt>
      <trkpt lat="43.90184" lon="3.46232">
        <ele>455</ele>
        <time>2013-04-25T11:36:17Z</time>
      </trkpt>
      <trkpt lat="43.90177" lon="3.46239">
        <ele>455.200012</ele>
        <time>2013-04-25T11:36:26Z</time>
      </trkpt>
      <trkpt lat="43.9017" lon="3.46245">
        <ele>454.600006</ele>
        <time>2013-04-25T11:36:34Z</time>
      </trkpt>
      <trkpt lat="43.90162" lon="3.46251">
        <ele>453.899994</ele>
        <time>2013-04-25T11:36:42Z</time>
      </trkpt>
      <trkpt lat="43.90161" lon="3.46251">
        <ele>453.700012</ele>
        <time>2013-04-25T11:36:43Z</time>
      </trkpt>
      <trkpt lat="43.90149" lon="3.46262">
        <ele>454</ele>
        <time>2013-04-25T11:36:58Z</time>
      </trkpt>
      <trkpt lat="43.90144" lon="3.46272">
        <ele>454.200012</ele>
        <time>2013-04-25T11:37:06Z</time>
      </trkpt>
      <trkpt lat="43.90137" lon="3.46278">
        <ele>454.200012</ele>
        <time>2013-04-25T11:37:14Z</time>
      </trkpt>
      <trkpt lat="43.90129" lon="3.46285">
        <ele>453.299988</ele>
        <time>2013-04-25T11:37:22Z</time>
      </trkpt>
      <trkpt lat="43.90121" lon="3.46285">
        <ele>453.799988</ele>
        <time>2013-04-25T11:37:28Z</time>
      </trkpt>
      <trkpt lat="43.90112" lon="3.46287">
        <ele>453.5</ele>
        <time>2013-04-25T11:37:38Z</time>
      </trkpt>
      <trkpt lat="43.90104" lon="3.46292">
        <ele>454.200012</ele>
        <time>2013-04-25T11:37:50Z</time>
      </trkpt>
      <trkpt lat="43.90103" lon="3.46292">
        <ele>453.899994</ele>
        <time>2013-04-25T11:37:51Z</time>
      </trkpt>
      <trkpt lat="43.90088" lon="3.46299">
        <ele>453.299988</ele>
        <time>2013-04-25T11:38:08Z</time>
      </trkpt>
      <trkpt lat="43.90081" lon="3.46306">
        <ele>454.399994</ele>
        <time>2013-04-25T11:38:15Z</time>
      </trkpt>
      <trkpt lat="43.90076" lon="3.46314">
        <ele>454.200012</ele>
        <time>2013-04-25T11:38:22Z</time>
      </trkpt>
      <trkpt lat="43.90068" lon="3.46318">
        <ele>454.399994</ele>
        <time>2013-04-25T11:38:29Z</time>
      </trkpt>
      <trkpt lat="43.90062" lon="3.46327">
        <ele>454</ele>
        <time>2013-04-25T11:38:41Z</time>
      </trkpt>
      <trkpt lat="43.9006" lon="3.46339">
        <ele>453.100006</ele>
        <time>2013-04-25T11:38:54Z</time>
      </trkpt>
      <trkpt lat="43.90059" lon="3.4634">
        <ele>453.100006</ele>
        <time>2013-04-25T11:38:55Z</time>
      </trkpt>
      <trkpt lat="43.90064" lon="3.46362">
        <ele>453.600006</ele>
        <time>2013-04-25T11:39:19Z</time>
      </trkpt>
      <trkpt lat="43.90069" lon="3.46372">
        <ele>454.100006</ele>
        <time>2013-04-25T11:39:28Z</time>
      </trkpt>
      <trkpt lat="43.90075" lon="3.46381">
        <ele>454.399994</ele>
        <time>2013-04-25T11:39:39Z</time>
      </trkpt>
      <trkpt lat="43.90081" lon="3.4639">
        <ele>454.299988</ele>
        <time>2013-04-25T11:39:51Z</time>
      </trkpt>
      <trkpt lat="43.90077" lon="3.464">
        <ele>454.100006</ele>
        <time>2013-04-25T11:39:59Z</time>
      </trkpt>
      <trkpt lat="43.90077" lon="3.46401">
        <ele>454</ele>
        <time>2013-04-25T11:40:00Z</time>
      </trkpt>
      <trkpt lat="43.90067" lon="3.4642">
        <ele>454.399994</ele>
        <time>2013-04-25T11:40:15Z</time>
      </trkpt>
      <trkpt lat="43.90066" lon="3.46432">
        <ele>453.899994</ele>
        <time>2013-04-25T11:40:24Z</time>
      </trkpt>
      <trkpt lat="43.90065" lon="3.46443">
        <ele>454.5</ele>
        <time>2013-04-25T11:40:32Z</time>
      </trkpt>
      <trkpt lat="43.90067" lon="3.46456">
        <ele>454</ele>
        <time>2013-04-25T11:41:15Z</time>
      </trkpt>
      <trkpt lat="43.90067" lon="3.46456">
        <ele>454.200012</ele>
        <time>2013-04-25T11:41:16Z</time>
      </trkpt>
      <trkpt lat="43.90072" lon="3.46479">
        <ele>454.100006</ele>
        <time>2013-04-25T11:41:51Z</time>
      </trkpt>
      <trkpt lat="43.90078" lon="3.46488">
        <ele>453.5</ele>
        <time>2013-04-25T11:42:01Z</time>
      </trkpt>
      <trkpt lat="43.90084" lon="3.46496">
        <ele>452.700012</ele>
        <time>2013-04-25T11:42:09Z</time>
      </trkpt>
      <trkpt lat="43.90087" lon="3.46507">
        <ele>452.399994</ele>
        <time>2013-04-25T11:42:17Z</time>
      </trkpt>
      <trkpt lat="43.90087" lon="3.46508">
        <ele>452.299988</ele>
        <time>2013-04-25T11:42:18Z</time>
      </trkpt>
      <trkpt lat="43.90099" lon="3.46525">
        <ele>453.200012</ele>
        <time>2013-04-25T11:42:31Z</time>
      </trkpt>
      <trkpt lat="43.90105" lon="3.46531">
        <ele>452.200012</ele>
        <time>2013-04-25T11:42:38Z</time>
      </trkpt>
      <trkpt lat="43.90111" lon="3.46537">
        <ele>454</ele>
        <time>2013-04-25T11:42:44Z</time>
      </trkpt>
      <trkpt lat="43.90119" lon="3.46542">
        <ele>453.799988</ele>
        <time>2013-04-25T11:42:51Z</time>
      </trkpt>
      <trkpt lat="43.90127" lon="3.46546">
        <ele>453</ele>
        <time>2013-04-25T11:42:58Z</time>
      </trkpt>
      <trkpt lat="43.90136" lon="3.46547">
        <ele>452.200012</ele>
        <time>2013-04-25T11:43:05Z</time>
      </trkpt>
      <trkpt lat="43.90144" lon="3.46547">
        <ele>452.399994</ele>
        <time>2013-04-25T11:43:12Z</time>
      </trkpt>
      <trkpt lat="43.90152" lon="3.46546">
        <ele>451.899994</ele>
        <time>2013-04-25T11:43:19Z</time>
      </trkpt>
      <trkpt lat="43.90153" lon="3.46545">
        <ele>452</ele>
        <time>2013-04-25T11:43:20Z</time>
      </trkpt>
      <trkpt lat="43.90168" lon="3.46538">
        <ele>451.799988</ele>
        <time>2013-04-25T11:43:34Z</time>
      </trkpt>
      <trkpt lat="43.90176" lon="3.46537">
        <ele>452</ele>
        <time>2013-04-25T11:43:41Z</time>
      </trkpt>
      <trkpt lat="43.90184" lon="3.46533">
        <ele>451.399994</ele>
        <time>2013-04-25T11:43:46Z</time>
      </trkpt>
      <trkpt lat="43.90193" lon="3.46533">
        <ele>451.700012</ele>
        <time>2013-04-25T11:43:54Z</time>
      </trkpt>
      <trkpt lat="43.90198" lon="3.46543">
        <ele>451.299988</ele>
        <time>2013-04-25T11:44:50Z</time>
      </trkpt>
      <trkpt lat="43.90198" lon="3.46544">
        <ele>451.100006</ele>
        <time>2013-04-25T11:44:51Z</time>
      </trkpt>
      <trkpt lat="43.90201" lon="3.46565">
        <ele>450.799988</ele>
        <time>2013-04-25T11:45:21Z</time>
      </trkpt>
      <trkpt lat="43.90209" lon="3.46571">
        <ele>453.5</ele>
        <time>2013-04-25T11:45:40Z</time>
      </trkpt>
      <trkpt lat="43.90217" lon="3.46573">
        <ele>452.200012</ele>
        <time>2013-04-25T11:45:52Z</time>
      </trkpt>
      <trkpt lat="43.90218" lon="3.46573">
        <ele>452.200012</ele>
        <time>2013-04-25T11:45:53Z</time>
      </trkpt>
      <trkpt lat="43.90233" lon="3.4657">
        <ele>455.100006</ele>
        <time>2013-04-25T11:46:31Z</time>
      </trkpt>
      <trkpt lat="43.90241" lon="3.46575">
        <ele>455.899994</ele>
        <time>2013-04-25T11:46:43Z</time>
      </trkpt>
      <trkpt lat="43.9025" lon="3.46578">
        <ele>455.799988</ele>
        <time>2013-04-25T11:46:51Z</time>
      </trkpt>
      <trkpt lat="43.90258" lon="3.4658">
        <ele>456.299988</ele>
        <time>2013-04-25T11:46:59Z</time>
      </trkpt>
      <trkpt lat="43.90259" lon="3.46581">
        <ele>456.5</ele>
        <time>2013-04-25T11:47:00Z</time>
      </trkpt>
      <trkpt lat="43.90271" lon="3.46595">
        <ele>458.299988</ele>
        <time>2013-04-25T11:47:19Z</time>
      </trkpt>
      <trkpt lat="43.90274" lon="3.46606">
        <ele>458.600006</ele>
        <time>2013-04-25T11:47:28Z</time>
      </trkpt>
      <trkpt lat="43.90279" lon="3.46616">
        <ele>459</ele>
        <time>2013-04-25T11:47:38Z</time>
      </trkpt>
      <trkpt lat="43.9028" lon="3.46628">
        <ele>459.200012</ele>
        <time>2013-04-25T11:47:50Z</time>
      </trkpt>
      <trkpt lat="43.90279" lon="3.4664">
        <ele>463.5</ele>
        <time>2013-04-25T11:48:09Z</time>
      </trkpt>
      <trkpt lat="43.90279" lon="3.46641">
        <ele>463.700012</ele>
        <time>2013-04-25T11:48:10Z</time>
      </trkpt>
      <trkpt lat="43.90283" lon="3.46663">
        <ele>463.799988</ele>
        <time>2013-04-25T11:48:26Z</time>
      </trkpt>
      <trkpt lat="43.90286" lon="3.46673">
        <ele>464.200012</ele>
        <time>2013-04-25T11:48:33Z</time>
      </trkpt>
      <trkpt lat="43.90288" lon="3.46684">
        <ele>464</ele>
        <time>2013-04-25T11:48:39Z</time>
      </trkpt>
      <trkpt lat="43.90289" lon="3.46695">
        <ele>465</ele>
        <time>2013-04-25T11:48:46Z</time>
      </trkpt>
      <trkpt lat="43.90293" lon="3.46706">
        <ele>465</ele>
        <time>2013-04-25T11:48:54Z</time>
      </trkpt>
      <trkpt lat="43.90296" lon="3.46717">
        <ele>465.600006</ele>
        <time>2013-04-25T11:49:03Z</time>
      </trkpt>
      <trkpt lat="43.90301" lon="3.46725">
        <ele>465.399994</ele>
        <time>2013-04-25T11:49:11Z</time>
      </trkpt>
      <trkpt lat="43.90302" lon="3.46726">
        <ele>465.299988</ele>
        <time>2013-04-25T11:49:12Z</time>
      </trkpt>
      <trkpt lat="43.90311" lon="3.46743">
        <ele>464.799988</ele>
        <time>2013-04-25T11:49:29Z</time>
      </trkpt>
      <trkpt lat="43.90317" lon="3.46751">
        <ele>466.600006</ele>
        <time>2013-04-25T11:49:38Z</time>
      </trkpt>
      <trkpt lat="43.90323" lon="3.46757">
        <ele>466.399994</ele>
        <time>2013-04-25T11:49:46Z</time>
      </trkpt>
      <trkpt lat="43.90331" lon="3.46762">
        <ele>467.299988</ele>
        <time>2013-04-25T11:49:53Z</time>
      </trkpt>
      <trkpt lat="43.90339" lon="3.46767">
        <ele>467.399994</ele>
        <time>2013-04-25T11:49:59Z</time>
      </trkpt>
      <trkpt lat="43.90347" lon="3.46771">
        <ele>467.799988</ele>
        <time>2013-04-25T11:50:05Z</time>
      </trkpt>
      <trkpt lat="43.90355" lon="3.46775">
        <ele>468.799988</ele>
        <time>2013-04-25T11:50:12Z</time>
      </trkpt>
      <trkpt lat="43.90362" lon="3.46781">
        <ele>468.700012</ele>
        <time>2013-04-25T11:50:18Z</time>
      </trkpt>
      <trkpt lat="43.90363" lon="3.46782">
        <ele>468.299988</ele>
        <time>2013-04-25T11:50:19Z</time>
      </trkpt>
      <trkpt lat="43.90377" lon="3.46787">
        <ele>469.100006</ele>
        <time>2013-04-25T11:50:32Z</time>
      </trkpt>
      <trkpt lat="43.90385" lon="3.46792">
        <ele>469.600006</ele>
        <time>2013-04-25T11:50:43Z</time>
      </trkpt>
      <trkpt lat="43.90393" lon="3.46796">
        <ele>469.899994</ele>
        <time>2013-04-25T11:50:50Z</time>
      </trkpt>
      <trkpt lat="43.90401" lon="3.46797">
        <ele>468.799988</ele>
        <time>2013-04-25T11:50:58Z</time>
      </trkpt>
      <trkpt lat="43.90409" lon="3.46797">
        <ele>470</ele>
        <time>2013-04-25T11:51:06Z</time>
      </trkpt>
      <trkpt lat="43.90417" lon="3.46797">
        <ele>470.799988</ele>
        <time>2013-04-25T11:51:15Z</time>
      </trkpt>
      <trkpt lat="43.90425" lon="3.46796">
        <ele>470.600006</ele>
        <time>2013-04-25T11:51:23Z</time>
      </trkpt>
      <trkpt lat="43.90426" lon="3.46795">
        <ele>470.299988</ele>
        <time>2013-04-25T11:51:24Z</time>
      </trkpt>
      <trkpt lat="43.90441" lon="3.46788">
        <ele>470.5</ele>
        <time>2013-04-25T11:51:37Z</time>
      </trkpt>
      <trkpt lat="43.90448" lon="3.46782">
        <ele>471.200012</ele>
        <time>2013-04-25T11:51:44Z</time>
      </trkpt>
      <trkpt lat="43.90455" lon="3.46775">
        <ele>471.600006</ele>
        <time>2013-04-25T11:51:50Z</time>
      </trkpt>
      <trkpt lat="43.90462" lon="3.46768">
        <ele>471.299988</ele>
        <time>2013-04-25T11:51:57Z</time>
      </trkpt>
      <trkpt lat="43.90469" lon="3.4676">
        <ele>471.299988</ele>
        <time>2013-04-25T11:52:05Z</time>
      </trkpt>
      <trkpt lat="43.90477" lon="3.46757">
        <ele>472.5</ele>
        <time>2013-04-25T11:52:13Z</time>
      </trkpt>
      <trkpt lat="43.90483" lon="3.46748">
        <ele>472.799988</ele>
        <time>2013-04-25T11:52:25Z</time>
      </trkpt>
      <trkpt lat="43.90483" lon="3.46748">
        <ele>472.899994</ele>
        <time>2013-04-25T11:52:26Z</time>
      </trkpt>
      <trkpt lat="43.90498" lon="3.4674">
        <ele>472.799988</ele>
        <time>2013-04-25T11:52:39Z</time>
      </trkpt>
      <trkpt lat="43.90505" lon="3.46734">
        <ele>473.899994</ele>
        <time>2013-04-25T11:52:47Z</time>
      </trkpt>
      <trkpt lat="43.90513" lon="3.4673">
        <ele>473</ele>
        <time>2013-04-25T11:52:55Z</time>
      </trkpt>
      <trkpt lat="43.90521" lon="3.46725">
        <ele>473.5</ele>
        <time>2013-04-25T11:53:03Z</time>
      </trkpt>
      <trkpt lat="43.90529" lon="3.46722">
        <ele>473.899994</ele>
        <time>2013-04-25T11:53:11Z</time>
      </trkpt>
      <trkpt lat="43.90537" lon="3.46718">
        <ele>474</ele>
        <time>2013-04-25T11:53:21Z</time>
      </trkpt>
      <trkpt lat="43.90545" lon="3.46715">
        <ele>474.399994</ele>
        <time>2013-04-25T11:53:28Z</time>
      </trkpt>
      <trkpt lat="43.90546" lon="3.46715">
        <ele>474.700012</ele>
        <time>2013-04-25T11:53:29Z</time>
      </trkpt>
      <trkpt lat="43.90561" lon="3.46711">
        <ele>476.100006</ele>
        <time>2013-04-25T11:53:44Z</time>
      </trkpt>
      <trkpt lat="43.90569" lon="3.46712">
        <ele>475.5</ele>
        <time>2013-04-25T11:53:52Z</time>
      </trkpt>
      <trkpt lat="43.90577" lon="3.46717">
        <ele>476</ele>
        <time>2013-04-25T11:54:00Z</time>
      </trkpt>
      <trkpt lat="43.90585" lon="3.46719">
        <ele>477</ele>
        <time>2013-04-25T11:54:42Z</time>
      </trkpt>
      <trkpt lat="43.90586" lon="3.46719">
        <ele>477.299988</ele>
        <time>2013-04-25T11:54:43Z</time>
      </trkpt>
      <trkpt lat="43.90597" lon="3.46733">
        <ele>476.399994</ele>
        <time>2013-04-25T11:55:20Z</time>
      </trkpt>
      <trkpt lat="43.90598" lon="3.46745">
        <ele>477.299988</ele>
        <time>2013-04-25T11:55:29Z</time>
      </trkpt>
      <trkpt lat="43.906" lon="3.46756">
        <ele>477.100006</ele>
        <time>2013-04-25T11:55:37Z</time>
      </trkpt>
      <trkpt lat="43.90606" lon="3.46765">
        <ele>478.5</ele>
        <time>2013-04-25T11:55:46Z</time>
      </trkpt>
      <trkpt lat="43.90606" lon="3.46767">
        <ele>478.600006</ele>
        <time>2013-04-25T11:55:47Z</time>
      </trkpt>
      <trkpt lat="43.90608" lon="3.46788">
        <ele>477.899994</ele>
        <time>2013-04-25T11:56:01Z</time>
      </trkpt>
      <trkpt lat="43.9061" lon="3.46799">
        <ele>477.299988</ele>
        <time>2013-04-25T11:56:06Z</time>
      </trkpt>
      <trkpt lat="43.90609" lon="3.46811">
        <ele>477.399994</ele>
        <time>2013-04-25T11:56:13Z</time>
      </trkpt>
      <trkpt lat="43.90613" lon="3.46822">
        <ele>477.5</ele>
        <time>2013-04-25T11:56:22Z</time>
      </trkpt>
      <trkpt lat="43.90615" lon="3.46833">
        <ele>476.299988</ele>
        <time>2013-04-25T11:56:27Z</time>
      </trkpt>
      <trkpt lat="43.90613" lon="3.46844">
        <ele>477.399994</ele>
        <time>2013-04-25T11:56:33Z</time>
      </trkpt>
      <trkpt lat="43.90611" lon="3.46856">
        <ele>477</ele>
        <time>2013-04-25T11:56:39Z</time>
      </trkpt>
      <trkpt lat="43.90609" lon="3.46867">
        <ele>477.600006</ele>
        <time>2013-04-25T11:56:47Z</time>
      </trkpt>
      <trkpt lat="43.90606" lon="3.46878">
        <ele>476.700012</ele>
        <time>2013-04-25T11:56:56Z</time>
      </trkpt>
      <trkpt lat="43.90606" lon="3.4688">
        <ele>476.5</ele>
        <time>2013-04-25T11:56:57Z</time>
      </trkpt>
      <trkpt lat="43.90599" lon="3.469">
        <ele>476.799988</ele>
        <time>2013-04-25T11:57:10Z</time>
      </trkpt>
      <trkpt lat="43.90597" lon="3.46911">
        <ele>476.899994</ele>
        <time>2013-04-25T11:57:16Z</time>
      </trkpt>
      <trkpt lat="43.90592" lon="3.4692">
        <ele>476.799988</ele>
        <time>2013-04-25T11:57:21Z</time>
      </trkpt>
      <trkpt lat="43.9059" lon="3.46931">
        <ele>477</ele>
        <time>2013-04-25T11:57:28Z</time>
      </trkpt>
      <trkpt lat="43.90585" lon="3.46941">
        <ele>476.799988</ele>
        <time>2013-04-25T11:57:35Z</time>
      </trkpt>
      <trkpt lat="43.90584" lon="3.46953">
        <ele>477.100006</ele>
        <time>2013-04-25T11:57:41Z</time>
      </trkpt>
      <trkpt lat="43.9058" lon="3.46963">
        <ele>476.399994</ele>
        <time>2013-04-25T11:57:49Z</time>
      </trkpt>
      <trkpt lat="43.90576" lon="3.46974">
        <ele>476.200012</ele>
        <time>2013-04-25T11:57:57Z</time>
      </trkpt>
      <trkpt lat="43.90572" lon="3.46985">
        <ele>476</ele>
        <time>2013-04-25T11:58:04Z</time>
      </trkpt>
      <trkpt lat="43.90571" lon="3.46986">
        <ele>476</ele>
        <time>2013-04-25T11:58:05Z</time>
      </trkpt>
      <trkpt lat="43.9056" lon="3.47001">
        <ele>475.5</ele>
        <time>2013-04-25T11:58:18Z</time>
      </trkpt>
      <trkpt lat="43.90554" lon="3.47011">
        <ele>476.100006</ele>
        <time>2013-04-25T11:58:25Z</time>
      </trkpt>
      <trkpt lat="43.90548" lon="3.47019">
        <ele>473.600006</ele>
        <time>2013-04-25T11:58:33Z</time>
      </trkpt>
      <trkpt lat="43.90542" lon="3.47027">
        <ele>474.299988</ele>
        <time>2013-04-25T11:58:40Z</time>
      </trkpt>
      <trkpt lat="43.90536" lon="3.47034">
        <ele>474.399994</ele>
        <time>2013-04-25T11:58:47Z</time>
      </trkpt>
      <trkpt lat="43.90531" lon="3.47043">
        <ele>473.799988</ele>
        <time>2013-04-25T11:58:55Z</time>
      </trkpt>
      <trkpt lat="43.90525" lon="3.4705">
        <ele>473</ele>
        <time>2013-04-25T11:59:02Z</time>
      </trkpt>
      <trkpt lat="43.90519" lon="3.47058">
        <ele>472.799988</ele>
        <time>2013-04-25T11:59:08Z</time>
      </trkpt>
      <trkpt lat="43.90518" lon="3.4706">
        <ele>473.299988</ele>
        <time>2013-04-25T11:59:09Z</time>
      </trkpt>
      <trkpt lat="43.90509" lon="3.47078">
        <ele>471.799988</ele>
        <time>2013-04-25T11:59:25Z</time>
      </trkpt>
      <trkpt lat="43.90503" lon="3.47085">
        <ele>471.899994</ele>
        <time>2013-04-25T11:59:30Z</time>
      </trkpt>
      <trkpt lat="43.90495" lon="3.4709">
        <ele>473.700012</ele>
        <time>2013-04-25T11:59:37Z</time>
      </trkpt>
      <trkpt lat="43.90487" lon="3.47095">
        <ele>473.200012</ele>
        <time>2013-04-25T11:59:44Z</time>
      </trkpt>
      <trkpt lat="43.90479" lon="3.471">
        <ele>472.600006</ele>
        <time>2013-04-25T11:59:52Z</time>
      </trkpt>
      <trkpt lat="43.90471" lon="3.47105">
        <ele>472</ele>
        <time>2013-04-25T12:00:00Z</time>
      </trkpt>
      <trkpt lat="43.90464" lon="3.4711">
        <ele>471.5</ele>
        <time>2013-04-25T12:00:07Z</time>
      </trkpt>
      <trkpt lat="43.90457" lon="3.47117">
        <ele>470.299988</ele>
        <time>2013-04-25T12:00:15Z</time>
      </trkpt>
      <trkpt lat="43.90456" lon="3.47117">
        <ele>470.299988</ele>
        <time>2013-04-25T12:00:16Z</time>
      </trkpt>
      <trkpt lat="43.90445" lon="3.47133">
        <ele>470.899994</ele>
        <time>2013-04-25T12:01:01Z</time>
      </trkpt>
      <trkpt lat="43.90437" lon="3.47139">
        <ele>474.200012</ele>
        <time>2013-04-25T12:01:28Z</time>
      </trkpt>
      <trkpt lat="43.90437" lon="3.47139">
        <ele>474.399994</ele>
        <time>2013-04-25T12:01:29Z</time>
      </trkpt>
      <trkpt lat="43.90428" lon="3.47144">
        <ele>476.799988</ele>
        <time>2013-04-25T12:02:34Z</time>
      </trkpt>
      <trkpt lat="43.90418" lon="3.47163">
        <ele>475.100006</ele>
        <time>2013-04-25T12:03:14Z</time>
      </trkpt>
      <trkpt lat="43.90413" lon="3.47171">
        <ele>473.200012</ele>
        <time>2013-04-25T12:03:23Z</time>
      </trkpt>
      <trkpt lat="43.90406" lon="3.4718">
        <ele>471.399994</ele>
        <time>2013-04-25T12:03:32Z</time>
      </trkpt>
      <trkpt lat="43.904" lon="3.47189">
        <ele>471.799988</ele>
        <time>2013-04-25T12:03:40Z</time>
      </trkpt>
      <trkpt lat="43.904" lon="3.4719">
        <ele>471.600006</ele>
        <time>2013-04-25T12:03:41Z</time>
      </trkpt>
      <trkpt lat="43.90391" lon="3.47207">
        <ele>469.899994</ele>
        <time>2013-04-25T12:04:48Z</time>
      </trkpt>
      <trkpt lat="43.90391" lon="3.47209">
        <ele>470</ele>
        <time>2013-04-25T12:04:49Z</time>
      </trkpt>
      <trkpt lat="43.90382" lon="3.47227">
        <ele>470</ele>
        <time>2013-04-25T12:05:01Z</time>
      </trkpt>
      <trkpt lat="43.90378" lon="3.47237">
        <ele>469.5</ele>
        <time>2013-04-25T12:05:06Z</time>
      </trkpt>
      <trkpt lat="43.90373" lon="3.47247">
        <ele>469.5</ele>
        <time>2013-04-25T12:05:14Z</time>
      </trkpt>
      <trkpt lat="43.90368" lon="3.47256">
        <ele>469.5</ele>
        <time>2013-04-25T12:05:19Z</time>
      </trkpt>
      <trkpt lat="43.90364" lon="3.47266">
        <ele>468.600006</ele>
        <time>2013-04-25T12:05:27Z</time>
      </trkpt>
      <trkpt lat="43.90359" lon="3.47276">
        <ele>469</ele>
        <time>2013-04-25T12:05:35Z</time>
      </trkpt>
      <trkpt lat="43.90355" lon="3.47287">
        <ele>468.799988</ele>
        <time>2013-04-25T12:05:42Z</time>
      </trkpt>
      <trkpt lat="43.90351" lon="3.47298">
        <ele>468.399994</ele>
        <time>2013-04-25T12:05:51Z</time>
      </trkpt>
      <trkpt lat="43.90351" lon="3.47299">
        <ele>468.399994</ele>
        <time>2013-04-25T12:05:52Z</time>
      </trkpt>
      <trkpt lat="43.90351" lon="3.4732">
        <ele>467.600006</ele>
        <time>2013-04-25T12:06:26Z</time>
      </trkpt>
      <trkpt lat="43.90347" lon="3.47329">
        <ele>466.5</ele>
        <time>2013-04-25T12:06:35Z</time>
      </trkpt>
      <trkpt lat="43.90344" lon="3.47339">
        <ele>467.5</ele>
        <time>2013-04-25T12:06:43Z</time>
      </trkpt>
      <trkpt lat="43.90342" lon="3.4735">
        <ele>466.799988</ele>
        <time>2013-04-25T12:06:47Z</time>
      </trkpt>
      <trkpt lat="43.90341" lon="3.4736">
        <ele>466.200012</ele>
        <time>2013-04-25T12:06:55Z</time>
      </trkpt>
      <trkpt lat="43.9034" lon="3.47362">
        <ele>466</ele>
        <time>2013-04-25T12:06:56Z</time>
      </trkpt>
      <trkpt lat="43.90336" lon="3.47382">
        <ele>464.100006</ele>
        <time>2013-04-25T12:07:07Z</time>
      </trkpt>
      <trkpt lat="43.90334" lon="3.47393">
        <ele>464.5</ele>
        <time>2013-04-25T12:07:12Z</time>
      </trkpt>
      <trkpt lat="43.90336" lon="3.47403">
        <ele>464.600006</ele>
        <time>2013-04-25T12:07:19Z</time>
      </trkpt>
      <trkpt lat="43.90337" lon="3.47415">
        <ele>464.600006</ele>
        <time>2013-04-25T12:07:24Z</time>
      </trkpt>
      <trkpt lat="43.90341" lon="3.47425">
        <ele>463.200012</ele>
        <time>2013-04-25T12:07:32Z</time>
      </trkpt>
      <trkpt lat="43.90343" lon="3.47437">
        <ele>463.200012</ele>
        <time>2013-04-25T12:07:45Z</time>
      </trkpt>
      <trkpt lat="43.90345" lon="3.47448">
        <ele>462.799988</ele>
        <time>2013-04-25T12:07:51Z</time>
      </trkpt>
      <trkpt lat="43.90346" lon="3.4746">
        <ele>462.299988</ele>
        <time>2013-04-25T12:07:58Z</time>
      </trkpt>
      <trkpt lat="43.90347" lon="3.47461">
        <ele>462.100006</ele>
        <time>2013-04-25T12:07:59Z</time>
      </trkpt>
      <trkpt lat="43.90348" lon="3.47481">
        <ele>461.299988</ele>
        <time>2013-04-25T12:08:12Z</time>
      </trkpt>
      <trkpt lat="43.90347" lon="3.47493">
        <ele>461.5</ele>
        <time>2013-04-25T12:08:18Z</time>
      </trkpt>
      <trkpt lat="43.90346" lon="3.47505">
        <ele>461.100006</ele>
        <time>2013-04-25T12:08:27Z</time>
      </trkpt>
      <trkpt lat="43.90348" lon="3.47517">
        <ele>461</ele>
        <time>2013-04-25T12:08:57Z</time>
      </trkpt>
      <trkpt lat="43.90342" lon="3.47527">
        <ele>460.399994</ele>
        <time>2013-04-25T12:09:08Z</time>
      </trkpt>
      <trkpt lat="43.90342" lon="3.47527">
        <ele>460.399994</ele>
        <time>2013-04-25T12:09:09Z</time>
      </trkpt>
      <trkpt lat="43.90335" lon="3.47548">
        <ele>459.700012</ele>
        <time>2013-04-25T12:09:31Z</time>
      </trkpt>
      <trkpt lat="43.9033" lon="3.47557">
        <ele>459.700012</ele>
        <time>2013-04-25T12:09:57Z</time>
      </trkpt>
      <trkpt lat="43.90322" lon="3.47564">
        <ele>458.899994</ele>
        <time>2013-04-25T12:10:35Z</time>
      </trkpt>
      <trkpt lat="43.90321" lon="3.47564">
        <ele>458.600006</ele>
        <time>2013-04-25T12:10:36Z</time>
      </trkpt>
      <trkpt lat="43.90306" lon="3.47567">
        <ele>457.700012</ele>
        <time>2013-04-25T12:10:50Z</time>
      </trkpt>
      <trkpt lat="43.90299" lon="3.47572">
        <ele>458.200012</ele>
        <time>2013-04-25T12:10:56Z</time>
      </trkpt>
      <trkpt lat="43.90292" lon="3.47577">
        <ele>457.299988</ele>
        <time>2013-04-25T12:11:03Z</time>
      </trkpt>
      <trkpt lat="43.90284" lon="3.47582">
        <ele>456.600006</ele>
        <time>2013-04-25T12:11:08Z</time>
      </trkpt>
      <trkpt lat="43.90277" lon="3.47588">
        <ele>456.100006</ele>
        <time>2013-04-25T12:11:19Z</time>
      </trkpt>
      <trkpt lat="43.9027" lon="3.47593">
        <ele>455.600006</ele>
        <time>2013-04-25T12:11:27Z</time>
      </trkpt>
      <trkpt lat="43.90261" lon="3.47595">
        <ele>455.5</ele>
        <time>2013-04-25T12:11:35Z</time>
      </trkpt>
      <trkpt lat="43.90253" lon="3.47597">
        <ele>454.899994</ele>
        <time>2013-04-25T12:11:45Z</time>
      </trkpt>
      <trkpt lat="43.90253" lon="3.47597">
        <ele>454.799988</ele>
        <time>2013-04-25T12:11:46Z</time>
      </trkpt>
      <trkpt lat="43.90237" lon="3.47603">
        <ele>453</ele>
        <time>2013-04-25T12:13:08Z</time>
      </trkpt>
      <trkpt lat="43.90236" lon="3.47603">
        <ele>452.700012</ele>
        <time>2013-04-25T12:13:09Z</time>
      </trkpt>
      <trkpt lat="43.90227" lon="3.47608">
        <ele>451.399994</ele>
        <time>2013-04-25T12:14:11Z</time>
      </trkpt>
      <trkpt lat="43.90213" lon="3.4761">
        <ele>450.399994</ele>
        <time>2013-04-25T12:14:23Z</time>
      </trkpt>
      <trkpt lat="43.90205" lon="3.47612">
        <ele>450</ele>
        <time>2013-04-25T12:14:32Z</time>
      </trkpt>
      <trkpt lat="43.90197" lon="3.47615">
        <ele>449.399994</ele>
        <time>2013-04-25T12:14:41Z</time>
      </trkpt>
      <trkpt lat="43.90189" lon="3.47618">
        <ele>448.100006</ele>
        <time>2013-04-25T12:14:50Z</time>
      </trkpt>
      <trkpt lat="43.9018" lon="3.47621">
        <ele>447.799988</ele>
        <time>2013-04-25T12:14:59Z</time>
      </trkpt>
      <trkpt lat="43.90172" lon="3.47623">
        <ele>447.5</ele>
        <time>2013-04-25T12:15:08Z</time>
      </trkpt>
      <trkpt lat="43.90163" lon="3.47625">
        <ele>446.5</ele>
        <time>2013-04-25T12:15:17Z</time>
      </trkpt>
      <trkpt lat="43.90162" lon="3.47626">
        <ele>446.399994</ele>
        <time>2013-04-25T12:15:18Z</time>
      </trkpt>
      <trkpt lat="43.90147" lon="3.47632">
        <ele>445.700012</ele>
        <time>2013-04-25T12:15:33Z</time>
      </trkpt>
      <trkpt lat="43.90141" lon="3.47639">
        <ele>443.5</ele>
        <time>2013-04-25T12:15:47Z</time>
      </trkpt>
      <trkpt lat="43.90132" lon="3.4764">
        <ele>443.799988</ele>
        <time>2013-04-25T12:16:01Z</time>
      </trkpt>
      <trkpt lat="43.90123" lon="3.4764">
        <ele>444.100006</ele>
        <time>2013-04-25T12:16:10Z</time>
      </trkpt>
      <trkpt lat="43.90115" lon="3.47643">
        <ele>442.5</ele>
        <time>2013-04-25T12:16:20Z</time>
      </trkpt>
      <trkpt lat="43.90115" lon="3.47644">
        <ele>442.200012</ele>
        <time>2013-04-25T12:16:21Z</time>
      </trkpt>
      <trkpt lat="43.90111" lon="3.47656">
        <ele>442.700012</ele>
        <time>2013-04-25T12:17:54Z</time>
      </trkpt>
      <trkpt lat="43.90098" lon="3.47668">
        <ele>442.700012</ele>
        <time>2013-04-25T12:18:06Z</time>
      </trkpt>
      <trkpt lat="43.90091" lon="3.47675">
        <ele>441.399994</ele>
        <time>2013-04-25T12:18:13Z</time>
      </trkpt>
      <trkpt lat="43.90083" lon="3.47678">
        <ele>441.100006</ele>
        <time>2013-04-25T12:18:20Z</time>
      </trkpt>
      <trkpt lat="43.90077" lon="3.47687">
        <ele>438.799988</ele>
        <time>2013-04-25T12:18:27Z</time>
      </trkpt>
      <trkpt lat="43.90072" lon="3.47698">
        <ele>438.200012</ele>
        <time>2013-04-25T12:18:38Z</time>
      </trkpt>
      <trkpt lat="43.90066" lon="3.47706">
        <ele>438.200012</ele>
        <time>2013-04-25T12:18:48Z</time>
      </trkpt>
      <trkpt lat="43.90058" lon="3.47712">
        <ele>436.600006</ele>
        <time>2013-04-25T12:19:07Z</time>
      </trkpt>
      <trkpt lat="43.90057" lon="3.47712">
        <ele>436.799988</ele>
        <time>2013-04-25T12:19:08Z</time>
      </trkpt>
      <trkpt lat="43.90055" lon="3.47736">
        <ele>436.5</ele>
        <time>2013-04-25T12:19:26Z</time>
      </trkpt>
      <trkpt lat="43.90056" lon="3.47747">
        <ele>435.700012</ele>
        <time>2013-04-25T12:19:34Z</time>
      </trkpt>
      <trkpt lat="43.90057" lon="3.47757">
        <ele>435.100006</ele>
        <time>2013-04-25T12:19:39Z</time>
      </trkpt>
      <trkpt lat="43.90061" lon="3.47768">
        <ele>434.200012</ele>
        <time>2013-04-25T12:19:46Z</time>
      </trkpt>
      <trkpt lat="43.90064" lon="3.47777">
        <ele>435</ele>
        <time>2013-04-25T12:19:51Z</time>
      </trkpt>
      <trkpt lat="43.90067" lon="3.47789">
        <ele>436.100006</ele>
        <time>2013-04-25T12:19:57Z</time>
      </trkpt>
      <trkpt lat="43.90071" lon="3.47798">
        <ele>435.799988</ele>
        <time>2013-04-25T12:20:07Z</time>
      </trkpt>
      <trkpt lat="43.90076" lon="3.47809">
        <ele>435.700012</ele>
        <time>2013-04-25T12:20:15Z</time>
      </trkpt>
      <trkpt lat="43.90076" lon="3.4781">
        <ele>436.399994</ele>
        <time>2013-04-25T12:20:16Z</time>
      </trkpt>
      <trkpt lat="43.90087" lon="3.47827">
        <ele>436.299988</ele>
        <time>2013-04-25T12:20:31Z</time>
      </trkpt>
      <trkpt lat="43.90095" lon="3.47832">
        <ele>435.299988</ele>
        <time>2013-04-25T12:20:37Z</time>
      </trkpt>
      <trkpt lat="43.90103" lon="3.47838">
        <ele>435.799988</ele>
        <time>2013-04-25T12:20:46Z</time>
      </trkpt>
      <trkpt lat="43.9011" lon="3.47838">
        <ele>436.299988</ele>
        <time>2013-04-25T12:20:52Z</time>
      </trkpt>
      <trkpt lat="43.90118" lon="3.47839">
        <ele>437.700012</ele>
        <time>2013-04-25T12:21:01Z</time>
      </trkpt>
      <trkpt lat="43.90127" lon="3.4784">
        <ele>437.799988</ele>
        <time>2013-04-25T12:21:08Z</time>
      </trkpt>
      <trkpt lat="43.90135" lon="3.47841">
        <ele>438.200012</ele>
        <time>2013-04-25T12:21:13Z</time>
      </trkpt>
      <trkpt lat="43.90144" lon="3.47842">
        <ele>436.899994</ele>
        <time>2013-04-25T12:21:19Z</time>
      </trkpt>
      <trkpt lat="43.90145" lon="3.47842">
        <ele>436.799988</ele>
        <time>2013-04-25T12:21:20Z</time>
      </trkpt>
      <trkpt lat="43.9016" lon="3.47847">
        <ele>439.899994</ele>
        <time>2013-04-25T12:21:32Z</time>
      </trkpt>
      <trkpt lat="43.90168" lon="3.47847">
        <ele>439.5</ele>
        <time>2013-04-25T12:21:39Z</time>
      </trkpt>
      <trkpt lat="43.90177" lon="3.47846">
        <ele>439.399994</ele>
        <time>2013-04-25T12:21:47Z</time>
      </trkpt>
      <trkpt lat="43.90185" lon="3.47846">
        <ele>439.799988</ele>
        <time>2013-04-25T12:21:55Z</time>
      </trkpt>
      <trkpt lat="43.90193" lon="3.4785">
        <ele>441.5</ele>
        <time>2013-04-25T12:22:02Z</time>
      </trkpt>
      <trkpt lat="43.902" lon="3.47851">
        <ele>441.299988</ele>
        <time>2013-04-25T12:22:10Z</time>
      </trkpt>
      <trkpt lat="43.90208" lon="3.47854">
        <ele>442.799988</ele>
        <time>2013-04-25T12:22:16Z</time>
      </trkpt>
      <trkpt lat="43.90216" lon="3.47857">
        <ele>442.899994</ele>
        <time>2013-04-25T12:22:24Z</time>
      </trkpt>
      <trkpt lat="43.90217" lon="3.47858">
        <ele>443.600006</ele>
        <time>2013-04-25T12:22:25Z</time>
      </trkpt>
      <trkpt lat="43.90233" lon="3.47867">
        <ele>446</ele>
        <time>2013-04-25T12:22:43Z</time>
      </trkpt>
      <trkpt lat="43.90241" lon="3.47867">
        <ele>446.399994</ele>
        <time>2013-04-25T12:22:58Z</time>
      </trkpt>
      <trkpt lat="43.90247" lon="3.47875">
        <ele>447.299988</ele>
        <time>2013-04-25T12:23:07Z</time>
      </trkpt>
      <trkpt lat="43.90254" lon="3.47882">
        <ele>447.200012</ele>
        <time>2013-04-25T12:23:15Z</time>
      </trkpt>
      <trkpt lat="43.90261" lon="3.47889">
        <ele>448.200012</ele>
        <time>2013-04-25T12:23:29Z</time>
      </trkpt>
      <trkpt lat="43.90261" lon="3.47889">
        <ele>448</ele>
        <time>2013-04-25T12:23:30Z</time>
      </trkpt>
      <trkpt lat="43.90272" lon="3.47908">
        <ele>450.399994</ele>
        <time>2013-04-25T12:24:26Z</time>
      </trkpt>
      <trkpt lat="43.9028" lon="3.47913">
        <ele>450.5</ele>
        <time>2013-04-25T12:25:31Z</time>
      </trkpt>
      <trkpt lat="43.9028" lon="3.47914">
        <ele>450.399994</ele>
        <time>2013-04-25T12:25:32Z</time>
      </trkpt>
      <trkpt lat="43.90288" lon="3.47933">
        <ele>451</ele>
        <time>2013-04-25T12:25:45Z</time>
      </trkpt>
      <trkpt lat="43.90295" lon="3.47941">
        <ele>452.5</ele>
        <time>2013-04-25T12:25:53Z</time>
      </trkpt>
      <trkpt lat="43.903" lon="3.4795">
        <ele>453.100006</ele>
        <time>2013-04-25T12:26:01Z</time>
      </trkpt>
      <trkpt lat="43.90308" lon="3.47954">
        <ele>454.399994</ele>
        <time>2013-04-25T12:26:10Z</time>
      </trkpt>
      <trkpt lat="43.90316" lon="3.47955">
        <ele>453</ele>
        <time>2013-04-25T12:26:18Z</time>
      </trkpt>
      <trkpt lat="43.90325" lon="3.47955">
        <ele>455.600006</ele>
        <time>2013-04-25T12:26:25Z</time>
      </trkpt>
      <trkpt lat="43.90333" lon="3.47952">
        <ele>455.600006</ele>
        <time>2013-04-25T12:26:32Z</time>
      </trkpt>
      <trkpt lat="43.90342" lon="3.4795">
        <ele>455.799988</ele>
        <time>2013-04-25T12:26:39Z</time>
      </trkpt>
      <trkpt lat="43.90343" lon="3.4795">
        <ele>455.799988</ele>
        <time>2013-04-25T12:26:40Z</time>
      </trkpt>
      <trkpt lat="43.90358" lon="3.47947">
        <ele>456.700012</ele>
        <time>2013-04-25T12:26:54Z</time>
      </trkpt>
      <trkpt lat="43.90367" lon="3.47948">
        <ele>456.700012</ele>
        <time>2013-04-25T12:27:02Z</time>
      </trkpt>
      <trkpt lat="43.90375" lon="3.47946">
        <ele>457.799988</ele>
        <time>2013-04-25T12:27:15Z</time>
      </trkpt>
      <trkpt lat="43.90384" lon="3.47942">
        <ele>458.899994</ele>
        <time>2013-04-25T12:27:25Z</time>
      </trkpt>
      <trkpt lat="43.90391" lon="3.47937">
        <ele>459.299988</ele>
        <time>2013-04-25T12:27:33Z</time>
      </trkpt>
      <trkpt lat="43.90398" lon="3.47931">
        <ele>459.799988</ele>
        <time>2013-04-25T12:27:39Z</time>
      </trkpt>
      <trkpt lat="43.90406" lon="3.47925">
        <ele>460.399994</ele>
        <time>2013-04-25T12:27:48Z</time>
      </trkpt>
      <trkpt lat="43.90407" lon="3.47925">
        <ele>460.399994</ele>
        <time>2013-04-25T12:27:49Z</time>
      </trkpt>
      <trkpt lat="43.90421" lon="3.47916">
        <ele>461.299988</ele>
        <time>2013-04-25T12:28:03Z</time>
      </trkpt>
      <trkpt lat="43.90425" lon="3.47905">
        <ele>462.600006</ele>
        <time>2013-04-25T12:28:24Z</time>
      </trkpt>
      <trkpt lat="43.90434" lon="3.47904">
        <ele>461.799988</ele>
        <time>2013-04-25T12:28:34Z</time>
      </trkpt>
      <trkpt lat="43.90441" lon="3.479">
        <ele>462.600006</ele>
        <time>2013-04-25T12:28:42Z</time>
      </trkpt>
      <trkpt lat="43.90449" lon="3.47896">
        <ele>463.399994</ele>
        <time>2013-04-25T12:28:48Z</time>
      </trkpt>
      <trkpt lat="43.90458" lon="3.47894">
        <ele>462.600006</ele>
        <time>2013-04-25T12:28:56Z</time>
      </trkpt>
      <trkpt lat="43.90458" lon="3.47894">
        <ele>462.600006</ele>
        <time>2013-04-25T12:28:57Z</time>
      </trkpt>
      <trkpt lat="43.90475" lon="3.47895">
        <ele>464.399994</ele>
        <time>2013-04-25T12:29:14Z</time>
      </trkpt>
      <trkpt lat="43.90481" lon="3.47902">
        <ele>466</ele>
        <time>2013-04-25T12:29:22Z</time>
      </trkpt>
      <trkpt lat="43.90486" lon="3.47912">
        <ele>466.899994</ele>
        <time>2013-04-25T12:29:30Z</time>
      </trkpt>
      <trkpt lat="43.90492" lon="3.4792">
        <ele>466.700012</ele>
        <time>2013-04-25T12:29:38Z</time>
      </trkpt>
      <trkpt lat="43.90499" lon="3.47929">
        <ele>467.100006</ele>
        <time>2013-04-25T12:29:46Z</time>
      </trkpt>
      <trkpt lat="43.90504" lon="3.47938">
        <ele>467</ele>
        <time>2013-04-25T12:29:55Z</time>
      </trkpt>
      <trkpt lat="43.90507" lon="3.4795">
        <ele>467</ele>
        <time>2013-04-25T12:30:03Z</time>
      </trkpt>
      <trkpt lat="43.90508" lon="3.47952">
        <ele>467</ele>
        <time>2013-04-25T12:30:04Z</time>
      </trkpt>
      <trkpt lat="43.90509" lon="3.47973">
        <ele>466.799988</ele>
        <time>2013-04-25T12:30:16Z</time>
      </trkpt>
      <trkpt lat="43.90512" lon="3.47985">
        <ele>469.200012</ele>
        <time>2013-04-25T12:33:08Z</time>
      </trkpt>
      <trkpt lat="43.90512" lon="3.47985">
        <ele>469.200012</ele>
        <time>2013-04-25T12:33:09Z</time>
      </trkpt>
      <trkpt lat="43.90521" lon="3.47988">
        <ele>470.100006</ele>
        <time>2013-04-25T12:34:33Z</time>
      </trkpt>
      <trkpt lat="43.90513" lon="3.47981">
        <ele>469.600006</ele>
        <time>2013-04-25T12:37:46Z</time>
      </trkpt>
      <trkpt lat="43.9051" lon="3.47993">
        <ele>470.299988</ele>
        <time>2013-04-25T12:41:01Z</time>
      </trkpt>
      <trkpt lat="43.90504" lon="3.48015">
        <ele>468</ele>
        <time>2013-04-25T12:41:16Z</time>
      </trkpt>
      <trkpt lat="43.905" lon="3.48024">
        <ele>466.399994</ele>
        <time>2013-04-25T12:41:22Z</time>
      </trkpt>
      <trkpt lat="43.90494" lon="3.48032">
        <ele>465.399994</ele>
        <time>2013-04-25T12:41:33Z</time>
      </trkpt>
      <trkpt lat="43.90486" lon="3.48039">
        <ele>464.899994</ele>
        <time>2013-04-25T12:41:44Z</time>
      </trkpt>
      <trkpt lat="43.90478" lon="3.48044">
        <ele>464.5</ele>
        <time>2013-04-25T12:41:54Z</time>
      </trkpt>
      <trkpt lat="43.90471" lon="3.48049">
        <ele>463.399994</ele>
        <time>2013-04-25T12:42:04Z</time>
      </trkpt>
      <trkpt lat="43.9047" lon="3.4805">
        <ele>463.700012</ele>
        <time>2013-04-25T12:42:05Z</time>
      </trkpt>
      <trkpt lat="43.90455" lon="3.48059">
        <ele>463.100006</ele>
        <time>2013-04-25T12:42:22Z</time>
      </trkpt>
      <trkpt lat="43.90449" lon="3.48065">
        <ele>462.100006</ele>
        <time>2013-04-25T12:42:31Z</time>
      </trkpt>
      <trkpt lat="43.90441" lon="3.48069">
        <ele>461</ele>
        <time>2013-04-25T12:42:39Z</time>
      </trkpt>
      <trkpt lat="43.90433" lon="3.48072">
        <ele>460.100006</ele>
        <time>2013-04-25T12:42:48Z</time>
      </trkpt>
      <trkpt lat="43.90425" lon="3.48077">
        <ele>459</ele>
        <time>2013-04-25T12:42:57Z</time>
      </trkpt>
      <trkpt lat="43.90416" lon="3.48077">
        <ele>457.899994</ele>
        <time>2013-04-25T12:43:07Z</time>
      </trkpt>
      <trkpt lat="43.90415" lon="3.48078">
        <ele>458</ele>
        <time>2013-04-25T12:43:08Z</time>
      </trkpt>
      <trkpt lat="43.90399" lon="3.48082">
        <ele>457.100006</ele>
        <time>2013-04-25T12:43:22Z</time>
      </trkpt>
      <trkpt lat="43.90391" lon="3.48086">
        <ele>455.700012</ele>
        <time>2013-04-25T12:43:31Z</time>
      </trkpt>
      <trkpt lat="43.90383" lon="3.4809">
        <ele>454.700012</ele>
        <time>2013-04-25T12:43:39Z</time>
      </trkpt>
      <trkpt lat="43.90375" lon="3.48096">
        <ele>453.600006</ele>
        <time>2013-04-25T12:43:46Z</time>
      </trkpt>
      <trkpt lat="43.90367" lon="3.48102">
        <ele>453.399994</ele>
        <time>2013-04-25T12:43:53Z</time>
      </trkpt>
      <trkpt lat="43.90359" lon="3.48105">
        <ele>452.799988</ele>
        <time>2013-04-25T12:44:01Z</time>
      </trkpt>
      <trkpt lat="43.90351" lon="3.48111">
        <ele>452.299988</ele>
        <time>2013-04-25T12:44:08Z</time>
      </trkpt>
      <trkpt lat="43.9035" lon="3.48112">
        <ele>452</ele>
        <time>2013-04-25T12:44:09Z</time>
      </trkpt>
      <trkpt lat="43.90336" lon="3.48107">
        <ele>451.5</ele>
        <time>2013-04-25T12:44:38Z</time>
      </trkpt>
      <trkpt lat="43.90327" lon="3.48109">
        <ele>450.100006</ele>
        <time>2013-04-25T12:44:46Z</time>
      </trkpt>
      <trkpt lat="43.90319" lon="3.48113">
        <ele>450</ele>
        <time>2013-04-25T12:44:52Z</time>
      </trkpt>
      <trkpt lat="43.90312" lon="3.4812">
        <ele>448.600006</ele>
        <time>2013-04-25T12:45:02Z</time>
      </trkpt>
      <trkpt lat="43.90305" lon="3.48124">
        <ele>447.600006</ele>
        <time>2013-04-25T12:45:12Z</time>
      </trkpt>
      <trkpt lat="43.90303" lon="3.48124">
        <ele>447.399994</ele>
        <time>2013-04-25T12:45:13Z</time>
      </trkpt>
      <trkpt lat="43.90288" lon="3.4813">
        <ele>445.700012</ele>
        <time>2013-04-25T12:45:27Z</time>
      </trkpt>
      <trkpt lat="43.90281" lon="3.48136">
        <ele>444</ele>
        <time>2013-04-25T12:45:38Z</time>
      </trkpt>
      <trkpt lat="43.90274" lon="3.48144">
        <ele>444</ele>
        <time>2013-04-25T12:45:57Z</time>
      </trkpt>
      <trkpt lat="43.90269" lon="3.48154">
        <ele>443.200012</ele>
        <time>2013-04-25T12:46:31Z</time>
      </trkpt>
      <trkpt lat="43.90268" lon="3.48155">
        <ele>443.299988</ele>
        <time>2013-04-25T12:46:32Z</time>
      </trkpt>
      <trkpt lat="43.90256" lon="3.4817">
        <ele>443.100006</ele>
        <time>2013-04-25T12:47:10Z</time>
      </trkpt>
      <trkpt lat="43.90248" lon="3.48165">
        <ele>440.799988</ele>
        <time>2013-04-25T12:47:24Z</time>
      </trkpt>
      <trkpt lat="43.90241" lon="3.48172">
        <ele>440</ele>
        <time>2013-04-25T12:47:39Z</time>
      </trkpt>
      <trkpt lat="43.9024" lon="3.48172">
        <ele>439.600006</ele>
        <time>2013-04-25T12:47:40Z</time>
      </trkpt>
      <trkpt lat="43.90226" lon="3.48182">
        <ele>437</ele>
        <time>2013-04-25T12:48:01Z</time>
      </trkpt>
      <trkpt lat="43.90218" lon="3.4818">
        <ele>435.5</ele>
        <time>2013-04-25T12:48:13Z</time>
      </trkpt>
      <trkpt lat="43.90208" lon="3.48183">
        <ele>434.299988</ele>
        <time>2013-04-25T12:48:32Z</time>
      </trkpt>
      <trkpt lat="43.90201" lon="3.48186">
        <ele>433.200012</ele>
        <time>2013-04-25T12:48:40Z</time>
      </trkpt>
      <trkpt lat="43.902" lon="3.48186">
        <ele>432.899994</ele>
        <time>2013-04-25T12:48:41Z</time>
      </trkpt>
      <trkpt lat="43.90185" lon="3.48193">
        <ele>431.200012</ele>
        <time>2013-04-25T12:48:54Z</time>
      </trkpt>
      <trkpt lat="43.90177" lon="3.48197">
        <ele>430.600006</ele>
        <time>2013-04-25T12:49:03Z</time>
      </trkpt>
      <trkpt lat="43.9017" lon="3.48203">
        <ele>429.100006</ele>
        <time>2013-04-25T12:49:15Z</time>
      </trkpt>
      <trkpt lat="43.90164" lon="3.48213">
        <ele>428.200012</ele>
        <time>2013-04-25T12:49:23Z</time>
      </trkpt>
      <trkpt lat="43.90157" lon="3.48218">
        <ele>426.600006</ele>
        <time>2013-04-25T12:49:31Z</time>
      </trkpt>
      <trkpt lat="43.90149" lon="3.48223">
        <ele>425.200012</ele>
        <time>2013-04-25T12:49:40Z</time>
      </trkpt>
      <trkpt lat="43.90142" lon="3.48229">
        <ele>423.600006</ele>
        <time>2013-04-25T12:49:49Z</time>
      </trkpt>
      <trkpt lat="43.90141" lon="3.4823">
        <ele>424</ele>
        <time>2013-04-25T12:49:50Z</time>
      </trkpt>
      <trkpt lat="43.90126" lon="3.48237">
        <ele>421.5</ele>
        <time>2013-04-25T12:50:06Z</time>
      </trkpt>
      <trkpt lat="43.9012" lon="3.48242">
        <ele>420.299988</ele>
        <time>2013-04-25T12:50:11Z</time>
      </trkpt>
      <trkpt lat="43.90111" lon="3.48245">
        <ele>419.5</ele>
        <time>2013-04-25T12:50:20Z</time>
      </trkpt>
      <trkpt lat="43.90105" lon="3.48252">
        <ele>418.600006</ele>
        <time>2013-04-25T12:50:30Z</time>
      </trkpt>
      <trkpt lat="43.90098" lon="3.48257">
        <ele>418.100006</ele>
        <time>2013-04-25T12:50:45Z</time>
      </trkpt>
      <trkpt lat="43.90089" lon="3.4826">
        <ele>416.100006</ele>
        <time>2013-04-25T12:50:55Z</time>
      </trkpt>
      <trkpt lat="43.90088" lon="3.48261">
        <ele>416.200012</ele>
        <time>2013-04-25T12:50:56Z</time>
      </trkpt>
      <trkpt lat="43.90072" lon="3.48262">
        <ele>415</ele>
        <time>2013-04-25T12:51:10Z</time>
      </trkpt>
      <trkpt lat="43.90065" lon="3.48261">
        <ele>413.399994</ele>
        <time>2013-04-25T12:51:18Z</time>
      </trkpt>
      <trkpt lat="43.90057" lon="3.48263">
        <ele>412.700012</ele>
        <time>2013-04-25T12:51:26Z</time>
      </trkpt>
      <trkpt lat="43.90049" lon="3.48263">
        <ele>412.399994</ele>
        <time>2013-04-25T12:51:33Z</time>
      </trkpt>
      <trkpt lat="43.90041" lon="3.48261">
        <ele>412.700012</ele>
        <time>2013-04-25T12:51:42Z</time>
      </trkpt>
      <trkpt lat="43.90033" lon="3.48261">
        <ele>412.200012</ele>
        <time>2013-04-25T12:51:51Z</time>
      </trkpt>
      <trkpt lat="43.90023" lon="3.48264">
        <ele>411.200012</ele>
        <time>2013-04-25T12:52:01Z</time>
      </trkpt>
      <trkpt lat="43.90022" lon="3.48264">
        <ele>411.5</ele>
        <time>2013-04-25T12:52:02Z</time>
      </trkpt>
      <trkpt lat="43.90007" lon="3.48261">
        <ele>411.399994</ele>
        <time>2013-04-25T12:52:16Z</time>
      </trkpt>
      <trkpt lat="43.9" lon="3.48254">
        <ele>410.200012</ele>
        <time>2013-04-25T12:52:21Z</time>
      </trkpt>
      <trkpt lat="43.89994" lon="3.48246">
        <ele>409.799988</ele>
        <time>2013-04-25T12:52:29Z</time>
      </trkpt>
      <trkpt lat="43.89986" lon="3.48242">
        <ele>408.100006</ele>
        <time>2013-04-25T12:52:37Z</time>
      </trkpt>
      <trkpt lat="43.89977" lon="3.48243">
        <ele>407.299988</ele>
        <time>2013-04-25T12:52:45Z</time>
      </trkpt>
      <trkpt lat="43.8997" lon="3.48246">
        <ele>405.700012</ele>
        <time>2013-04-25T12:52:53Z</time>
      </trkpt>
      <trkpt lat="43.89961" lon="3.48248">
        <ele>404.600006</ele>
        <time>2013-04-25T12:53:00Z</time>
      </trkpt>
      <trkpt lat="43.89953" lon="3.48252">
        <ele>405.600006</ele>
        <time>2013-04-25T12:53:07Z</time>
      </trkpt>
      <trkpt lat="43.89952" lon="3.48253">
        <ele>405.700012</ele>
        <time>2013-04-25T12:53:08Z</time>
      </trkpt>
      <trkpt lat="43.89939" lon="3.48264">
        <ele>403.100006</ele>
        <time>2013-04-25T12:53:24Z</time>
      </trkpt>
      <trkpt lat="43.8993" lon="3.48263">
        <ele>403.200012</ele>
        <time>2013-04-25T12:53:45Z</time>
      </trkpt>
      <trkpt lat="43.89924" lon="3.48271">
        <ele>402.799988</ele>
        <time>2013-04-25T12:53:51Z</time>
      </trkpt>
      <trkpt lat="43.89917" lon="3.48276">
        <ele>401.799988</ele>
        <time>2013-04-25T12:53:57Z</time>
      </trkpt>
      <trkpt lat="43.89907" lon="3.48277">
        <ele>401</ele>
        <time>2013-04-25T12:54:05Z</time>
      </trkpt>
      <trkpt lat="43.89902" lon="3.48287">
        <ele>401.200012</ele>
        <time>2013-04-25T12:54:22Z</time>
      </trkpt>
      <trkpt lat="43.89902" lon="3.48287">
        <ele>400.799988</ele>
        <time>2013-04-25T12:54:23Z</time>
      </trkpt>
      <trkpt lat="43.89918" lon="3.48292">
        <ele>397.200012</ele>
        <time>2013-04-25T12:54:53Z</time>
      </trkpt>
      <trkpt lat="43.89925" lon="3.48288">
        <ele>395.399994</ele>
        <time>2013-04-25T12:55:04Z</time>
      </trkpt>
      <trkpt lat="43.89934" lon="3.48285">
        <ele>393</ele>
        <time>2013-04-25T12:55:16Z</time>
      </trkpt>
      <trkpt lat="43.89943" lon="3.48282">
        <ele>392.200012</ele>
        <time>2013-04-25T12:55:31Z</time>
      </trkpt>
      <trkpt lat="43.89945" lon="3.4828">
        <ele>391.5</ele>
        <time>2013-04-25T12:55:32Z</time>
      </trkpt>
      <trkpt lat="43.89958" lon="3.48282">
        <ele>390.600006</ele>
        <time>2013-04-25T12:55:37Z</time>
      </trkpt>
      <trkpt lat="43.89966" lon="3.4828">
        <ele>390.600006</ele>
        <time>2013-04-25T12:55:41Z</time>
      </trkpt>
      <trkpt lat="43.89973" lon="3.48281">
        <ele>390.200012</ele>
        <time>2013-04-25T12:55:43Z</time>
      </trkpt>
      <trkpt lat="43.89979" lon="3.48273">
        <ele>387.100006</ele>
        <time>2013-04-25T12:56:06Z</time>
      </trkpt>
      <trkpt lat="43.89971" lon="3.48277">
        <ele>387.200012</ele>
        <time>2013-04-25T12:56:34Z</time>
      </trkpt>
      <trkpt lat="43.8997" lon="3.48281">
        <ele>386.899994</ele>
        <time>2013-04-25T12:56:35Z</time>
      </trkpt>
      <trkpt lat="43.89981" lon="3.48279">
        <ele>384.399994</ele>
        <time>2013-04-25T12:57:05Z</time>
      </trkpt>
      <trkpt lat="43.89973" lon="3.48285">
        <ele>383.5</ele>
        <time>2013-04-25T12:57:32Z</time>
      </trkpt>
      <trkpt lat="43.89976" lon="3.48317">
        <ele>374</ele>
        <time>2013-04-25T12:58:51Z</time>
      </trkpt>
      <trkpt lat="43.89995" lon="3.48318">
        <ele>374.100006</ele>
        <time>2013-04-25T12:58:58Z</time>
      </trkpt>
      <trkpt lat="43.89976" lon="3.48307">
        <ele>373</ele>
        <time>2013-04-25T12:59:25Z</time>
      </trkpt>
      <trkpt lat="43.89976" lon="3.48289">
        <ele>374</ele>
        <time>2013-04-25T12:59:34Z</time>
      </trkpt>
      <trkpt lat="43.89987" lon="3.48321">
        <ele>373</ele>
        <time>2013-04-25T12:59:55Z</time>
      </trkpt>
      <trkpt lat="43.89988" lon="3.48334">
        <ele>373.899994</ele>
        <time>2013-04-25T13:00:01Z</time>
      </trkpt>
      <trkpt lat="43.90006" lon="3.48287">
        <ele>373.799988</ele>
        <time>2013-04-25T13:00:21Z</time>
      </trkpt>
      <trkpt lat="43.90012" lon="3.48282">
        <ele>374.200012</ele>
        <time>2013-04-25T13:00:24Z</time>
      </trkpt>
      <trkpt lat="43.90019" lon="3.48276">
        <ele>373.899994</ele>
        <time>2013-04-25T13:00:27Z</time>
      </trkpt>
      <trkpt lat="43.89957" lon="3.48284">
        <ele>374</ele>
        <time>2013-04-25T13:00:39Z</time>
      </trkpt>
      <trkpt lat="43.89962" lon="3.48292">
        <ele>375.600006</ele>
        <time>2013-04-25T13:00:44Z</time>
      </trkpt>
      <trkpt lat="43.89962" lon="3.48303">
        <ele>377.600006</ele>
        <time>2013-04-25T13:01:06Z</time>
      </trkpt>
      <trkpt lat="43.89963" lon="3.48304">
        <ele>377.5</ele>
        <time>2013-04-25T13:01:07Z</time>
      </trkpt>
      <trkpt lat="43.89965" lon="3.48308">
        <ele>377</ele>
        <time>2013-04-25T13:01:44Z</time>
      </trkpt>
      <trkpt lat="43.89957" lon="3.48316">
        <ele>376</ele>
        <time>2013-04-25T13:02:04Z</time>
      </trkpt>
      <trkpt lat="43.89962" lon="3.48305">
        <ele>377</ele>
        <time>2013-04-25T13:02:08Z</time>
      </trkpt>
      <trkpt lat="43.89962" lon="3.4832">
        <ele>376</ele>
        <time>2013-04-25T13:02:26Z</time>
      </trkpt>
      <trkpt lat="43.8996" lon="3.48308">
        <ele>376.299988</ele>
        <time>2013-04-25T13:02:37Z</time>
      </trkpt>
      <trkpt lat="43.89963" lon="3.48296">
        <ele>376</ele>
        <time>2013-04-25T13:02:50Z</time>
      </trkpt>
      <trkpt lat="43.89971" lon="3.48299">
        <ele>376.899994</ele>
        <time>2013-04-25T13:03:16Z</time>
      </trkpt>
      <trkpt lat="43.89972" lon="3.483">
        <ele>376.5</ele>
        <time>2013-04-25T13:03:17Z</time>
      </trkpt>
      <trkpt lat="43.89963" lon="3.48307">
        <ele>377.399994</ele>
        <time>2013-04-25T13:05:10Z</time>
      </trkpt>
      <trkpt lat="43.89965" lon="3.4831">
        <ele>377.299988</ele>
        <time>2013-04-25T13:06:09Z</time>
      </trkpt>
      <trkpt lat="43.89962" lon="3.483">
        <ele>377</ele>
        <time>2013-04-25T13:06:22Z</time>
      </trkpt>
      <trkpt lat="43.89962" lon="3.48298">
        <ele>376.899994</ele>
        <time>2013-04-25T13:06:23Z</time>
      </trkpt>
      <trkpt lat="43.89992" lon="3.48296">
        <ele>378</ele>
        <time>2013-04-25T13:07:06Z</time>
      </trkpt>
      <trkpt lat="43.89982" lon="3.48298">
        <ele>377</ele>
        <time>2013-04-25T13:07:15Z</time>
      </trkpt>
      <trkpt lat="43.8997" lon="3.483">
        <ele>377</ele>
        <time>2013-04-25T13:07:23Z</time>
      </trkpt>
      <trkpt lat="43.89967" lon="3.483">
        <ele>377.100006</ele>
        <time>2013-04-25T13:07:25Z</time>
      </trkpt>
      <trkpt lat="43.89958" lon="3.48282">
        <ele>376</ele>
        <time>2013-04-25T13:08:24Z</time>
      </trkpt>
      <trkpt lat="43.89958" lon="3.48281">
        <ele>376.799988</ele>
        <time>2013-04-25T13:08:29Z</time>
      </trkpt>
      <trkpt lat="43.89963" lon="3.48299">
        <ele>375</ele>
        <time>2013-04-25T13:09:02Z</time>
      </trkpt>
      <trkpt lat="43.89954" lon="3.48296">
        <ele>376</ele>
        <time>2013-04-25T13:09:22Z</time>
      </trkpt>
      <trkpt lat="43.89961" lon="3.48288">
        <ele>377</ele>
        <time>2013-04-25T13:09:34Z</time>
      </trkpt>
      <trkpt lat="43.89962" lon="3.48287">
        <ele>377.700012</ele>
        <time>2013-04-25T13:09:36Z</time>
      </trkpt>
      <trkpt lat="43.89948" lon="3.48301">
        <ele>373.700012</ele>
        <time>2013-04-25T13:10:05Z</time>
      </trkpt>
      <trkpt lat="43.8995" lon="3.48313">
        <ele>372.100006</ele>
        <time>2013-04-25T13:10:11Z</time>
      </trkpt>
      <trkpt lat="43.89959" lon="3.48311">
        <ele>372.200012</ele>
        <time>2013-04-25T13:10:29Z</time>
      </trkpt>
      <trkpt lat="43.89967" lon="3.48313">
        <ele>371.899994</ele>
        <time>2013-04-25T13:10:33Z</time>
      </trkpt>
      <trkpt lat="43.89975" lon="3.48314">
        <ele>372.200012</ele>
        <time>2013-04-25T13:10:41Z</time>
      </trkpt>
      <trkpt lat="43.89976" lon="3.48315">
        <ele>372</ele>
        <time>2013-04-25T13:10:42Z</time>
      </trkpt>
      <trkpt lat="43.89981" lon="3.48317">
        <ele>375</ele>
        <time>2013-04-25T13:11:16Z</time>
      </trkpt>
      <trkpt lat="43.8998" lon="3.48329">
        <ele>374.200012</ele>
        <time>2013-04-25T13:12:17Z</time>
      </trkpt>
      <trkpt lat="43.8998" lon="3.4833">
        <ele>374.100006</ele>
        <time>2013-04-25T13:12:18Z</time>
      </trkpt>
      <trkpt lat="43.8997" lon="3.4832">
        <ele>373</ele>
        <time>2013-04-25T13:12:48Z</time>
      </trkpt>
      <trkpt lat="43.89964" lon="3.4831">
        <ele>372.899994</ele>
        <time>2013-04-25T13:13:21Z</time>
      </trkpt>
      <trkpt lat="43.89964" lon="3.48309">
        <ele>372.799988</ele>
        <time>2013-04-25T13:13:22Z</time>
      </trkpt>
      <trkpt lat="43.89967" lon="3.48303">
        <ele>375.200012</ele>
        <time>2013-04-25T13:13:55Z</time>
      </trkpt>
      <trkpt lat="43.89979" lon="3.48305">
        <ele>375</ele>
        <time>2013-04-25T13:14:04Z</time>
      </trkpt>
      <trkpt lat="43.89989" lon="3.483">
        <ele>375</ele>
        <time>2013-04-25T13:14:10Z</time>
      </trkpt>
      <trkpt lat="43.89979" lon="3.48286">
        <ele>375</ele>
        <time>2013-04-25T13:14:16Z</time>
      </trkpt>
      <trkpt lat="43.89969" lon="3.4828">
        <ele>375</ele>
        <time>2013-04-25T13:14:20Z</time>
      </trkpt>
      <trkpt lat="43.89982" lon="3.48273">
        <ele>375</ele>
        <time>2013-04-25T13:14:28Z</time>
      </trkpt>
      <trkpt lat="43.89984" lon="3.48273">
        <ele>375.299988</ele>
        <time>2013-04-25T13:14:30Z</time>
      </trkpt>
      <trkpt lat="43.8997" lon="3.48287">
        <ele>375.100006</ele>
        <time>2013-04-25T13:14:45Z</time>
      </trkpt>
      <trkpt lat="43.89962" lon="3.48289">
        <ele>374.700012</ele>
        <time>2013-04-25T13:14:49Z</time>
      </trkpt>
      <trkpt lat="43.8996" lon="3.48301">
        <ele>373.299988</ele>
        <time>2013-04-25T13:15:10Z</time>
      </trkpt>
      <trkpt lat="43.89964" lon="3.4831">
        <ele>373.600006</ele>
        <time>2013-04-25T13:15:19Z</time>
      </trkpt>
      <trkpt lat="43.89972" lon="3.48316">
        <ele>374</ele>
        <time>2013-04-25T13:15:35Z</time>
      </trkpt>
      <trkpt lat="43.89972" lon="3.48316">
        <ele>374.600006</ele>
        <time>2013-04-25T13:15:37Z</time>
      </trkpt>
      <trkpt lat="43.89975" lon="3.48311">
        <ele>376</ele>
        <time>2013-04-25T13:17:41Z</time>
      </trkpt>
      <trkpt lat="43.89974" lon="3.4831">
        <ele>376.399994</ele>
        <time>2013-04-25T13:17:43Z</time>
      </trkpt>
      <trkpt lat="43.89972" lon="3.48298">
        <ele>379.899994</ele>
        <time>2013-04-25T13:18:46Z</time>
      </trkpt>
      <trkpt lat="43.89983" lon="3.48293">
        <ele>384.799988</ele>
        <time>2013-04-25T13:20:05Z</time>
      </trkpt>
      <trkpt lat="43.89983" lon="3.4827">
        <ele>388</ele>
        <time>2013-04-25T13:21:03Z</time>
      </trkpt>
      <trkpt lat="43.89972" lon="3.4827">
        <ele>389</ele>
        <time>2013-04-25T13:21:27Z</time>
      </trkpt>
      <trkpt lat="43.89971" lon="3.4827">
        <ele>389.899994</ele>
        <time>2013-04-25T13:21:29Z</time>
      </trkpt>
      <trkpt lat="43.89952" lon="3.48273">
        <ele>392</ele>
        <time>2013-04-25T13:21:51Z</time>
      </trkpt>
      <trkpt lat="43.8994" lon="3.48279">
        <ele>394</ele>
        <time>2013-04-25T13:22:11Z</time>
      </trkpt>
      <trkpt lat="43.89935" lon="3.48288">
        <ele>396.100006</ele>
        <time>2013-04-25T13:22:22Z</time>
      </trkpt>
      <trkpt lat="43.89926" lon="3.48291">
        <ele>397.600006</ele>
        <time>2013-04-25T13:22:37Z</time>
      </trkpt>
      <trkpt lat="43.89926" lon="3.48291">
        <ele>398</ele>
        <time>2013-04-25T13:22:38Z</time>
      </trkpt>
      <trkpt lat="43.89911" lon="3.48295">
        <ele>401.399994</ele>
        <time>2013-04-25T13:23:09Z</time>
      </trkpt>
      <trkpt lat="43.89903" lon="3.48295">
        <ele>402</ele>
        <time>2013-04-25T13:23:14Z</time>
      </trkpt>
      <trkpt lat="43.89906" lon="3.48284">
        <ele>403.100006</ele>
        <time>2013-04-25T13:23:48Z</time>
      </trkpt>
      <trkpt lat="43.89907" lon="3.48284">
        <ele>403.100006</ele>
        <time>2013-04-25T13:23:49Z</time>
      </trkpt>
      <trkpt lat="43.89898" lon="3.48291">
        <ele>404.799988</ele>
        <time>2013-04-25T13:26:27Z</time>
      </trkpt>
      <trkpt lat="43.89883" lon="3.48297">
        <ele>405</ele>
        <time>2013-04-25T13:26:56Z</time>
      </trkpt>
      <trkpt lat="43.89876" lon="3.48302">
        <ele>404.200012</ele>
        <time>2013-04-25T13:27:10Z</time>
      </trkpt>
      <trkpt lat="43.89868" lon="3.48305">
        <ele>404.600006</ele>
        <time>2013-04-25T13:27:17Z</time>
      </trkpt>
      <trkpt lat="43.8986" lon="3.48309">
        <ele>403.799988</ele>
        <time>2013-04-25T13:27:25Z</time>
      </trkpt>
      <trkpt lat="43.89853" lon="3.48315">
        <ele>402.700012</ele>
        <time>2013-04-25T13:27:31Z</time>
      </trkpt>
      <trkpt lat="43.89852" lon="3.48316">
        <ele>402.600006</ele>
        <time>2013-04-25T13:27:32Z</time>
      </trkpt>
      <trkpt lat="43.89839" lon="3.48327">
        <ele>400.799988</ele>
        <time>2013-04-25T13:27:45Z</time>
      </trkpt>
      <trkpt lat="43.89831" lon="3.48331">
        <ele>400</ele>
        <time>2013-04-25T13:27:52Z</time>
      </trkpt>
      <trkpt lat="43.89822" lon="3.48331">
        <ele>399.700012</ele>
        <time>2013-04-25T13:27:59Z</time>
      </trkpt>
      <trkpt lat="43.89814" lon="3.48331">
        <ele>400.200012</ele>
        <time>2013-04-25T13:28:06Z</time>
      </trkpt>
      <trkpt lat="43.89806" lon="3.48334">
        <ele>399.899994</ele>
        <time>2013-04-25T13:28:15Z</time>
      </trkpt>
      <trkpt lat="43.89799" lon="3.48341">
        <ele>399.600006</ele>
        <time>2013-04-25T13:28:20Z</time>
      </trkpt>
      <trkpt lat="43.89794" lon="3.4835">
        <ele>399.799988</ele>
        <time>2013-04-25T13:28:29Z</time>
      </trkpt>
      <trkpt lat="43.89789" lon="3.48359">
        <ele>400</ele>
        <time>2013-04-25T13:28:35Z</time>
      </trkpt>
      <trkpt lat="43.89787" lon="3.48361">
        <ele>399.899994</ele>
        <time>2013-04-25T13:28:36Z</time>
      </trkpt>
      <trkpt lat="43.89779" lon="3.48377">
        <ele>399.700012</ele>
        <time>2013-04-25T13:28:52Z</time>
      </trkpt>
      <trkpt lat="43.89774" lon="3.48386">
        <ele>398.799988</ele>
        <time>2013-04-25T13:28:58Z</time>
      </trkpt>
      <trkpt lat="43.89766" lon="3.48391">
        <ele>398.5</ele>
        <time>2013-04-25T13:29:05Z</time>
      </trkpt>
      <trkpt lat="43.89763" lon="3.48402">
        <ele>398.799988</ele>
        <time>2013-04-25T13:29:12Z</time>
      </trkpt>
      <trkpt lat="43.89758" lon="3.48412">
        <ele>398.299988</ele>
        <time>2013-04-25T13:29:19Z</time>
      </trkpt>
      <trkpt lat="43.89754" lon="3.48422">
        <ele>397.5</ele>
        <time>2013-04-25T13:29:26Z</time>
      </trkpt>
      <trkpt lat="43.8975" lon="3.48432">
        <ele>396.600006</ele>
        <time>2013-04-25T13:29:32Z</time>
      </trkpt>
      <trkpt lat="43.89748" lon="3.48443">
        <ele>395.899994</ele>
        <time>2013-04-25T13:29:40Z</time>
      </trkpt>
      <trkpt lat="43.89747" lon="3.48445">
        <ele>395.700012</ele>
        <time>2013-04-25T13:29:41Z</time>
      </trkpt>
      <trkpt lat="43.89737" lon="3.4846">
        <ele>394.899994</ele>
        <time>2013-04-25T13:29:53Z</time>
      </trkpt>
      <trkpt lat="43.89733" lon="3.48469">
        <ele>394</ele>
        <time>2013-04-25T13:30:01Z</time>
      </trkpt>
      <trkpt lat="43.89727" lon="3.48476">
        <ele>393.700012</ele>
        <time>2013-04-25T13:30:07Z</time>
      </trkpt>
      <trkpt lat="43.8972" lon="3.48482">
        <ele>394.899994</ele>
        <time>2013-04-25T13:30:13Z</time>
      </trkpt>
      <trkpt lat="43.89714" lon="3.4849">
        <ele>393.600006</ele>
        <time>2013-04-25T13:30:22Z</time>
      </trkpt>
      <trkpt lat="43.89708" lon="3.485">
        <ele>394.100006</ele>
        <time>2013-04-25T13:30:28Z</time>
      </trkpt>
      <trkpt lat="43.89703" lon="3.48509">
        <ele>392.700012</ele>
        <time>2013-04-25T13:30:37Z</time>
      </trkpt>
      <trkpt lat="43.897" lon="3.4852">
        <ele>391.5</ele>
        <time>2013-04-25T13:30:44Z</time>
      </trkpt>
      <trkpt lat="43.89699" lon="3.48521">
        <ele>391.299988</ele>
        <time>2013-04-25T13:30:45Z</time>
      </trkpt>
      <trkpt lat="43.89695" lon="3.48542">
        <ele>392.899994</ele>
        <time>2013-04-25T13:31:00Z</time>
      </trkpt>
      <trkpt lat="43.89691" lon="3.48553">
        <ele>394.200012</ele>
        <time>2013-04-25T13:31:09Z</time>
      </trkpt>
      <trkpt lat="43.89688" lon="3.48564">
        <ele>392.899994</ele>
        <time>2013-04-25T13:31:18Z</time>
      </trkpt>
      <trkpt lat="43.89683" lon="3.48573">
        <ele>393.899994</ele>
        <time>2013-04-25T13:31:25Z</time>
      </trkpt>
      <trkpt lat="43.89681" lon="3.48584">
        <ele>393.899994</ele>
        <time>2013-04-25T13:31:34Z</time>
      </trkpt>
      <trkpt lat="43.8968" lon="3.48596">
        <ele>393.799988</ele>
        <time>2013-04-25T13:31:48Z</time>
      </trkpt>
      <trkpt lat="43.8968" lon="3.48597">
        <ele>394.200012</ele>
        <time>2013-04-25T13:31:49Z</time>
      </trkpt>
      <trkpt lat="43.89669" lon="3.48614">
        <ele>391.899994</ele>
        <time>2013-04-25T13:32:19Z</time>
      </trkpt>
      <trkpt lat="43.89671" lon="3.48626">
        <ele>390.899994</ele>
        <time>2013-04-25T13:32:28Z</time>
      </trkpt>
      <trkpt lat="43.8967" lon="3.48637">
        <ele>390.600006</ele>
        <time>2013-04-25T13:32:35Z</time>
      </trkpt>
      <trkpt lat="43.89666" lon="3.48647">
        <ele>389.899994</ele>
        <time>2013-04-25T13:32:43Z</time>
      </trkpt>
      <trkpt lat="43.89662" lon="3.48657">
        <ele>389.399994</ele>
        <time>2013-04-25T13:32:50Z</time>
      </trkpt>
      <trkpt lat="43.89662" lon="3.48658">
        <ele>389.299988</ele>
        <time>2013-04-25T13:32:51Z</time>
      </trkpt>
      <trkpt lat="43.89664" lon="3.48678">
        <ele>388</ele>
        <time>2013-04-25T13:33:02Z</time>
      </trkpt>
      <trkpt lat="43.89662" lon="3.48689">
        <ele>386.700012</ele>
        <time>2013-04-25T13:33:08Z</time>
      </trkpt>
      <trkpt lat="43.89661" lon="3.48701">
        <ele>385.5</ele>
        <time>2013-04-25T13:33:16Z</time>
      </trkpt>
      <trkpt lat="43.89659" lon="3.48711">
        <ele>384.700012</ele>
        <time>2013-04-25T13:33:21Z</time>
      </trkpt>
      <trkpt lat="43.89656" lon="3.48722">
        <ele>385.600006</ele>
        <time>2013-04-25T13:33:30Z</time>
      </trkpt>
      <trkpt lat="43.89656" lon="3.48733">
        <ele>384.700012</ele>
        <time>2013-04-25T13:33:36Z</time>
      </trkpt>
      <trkpt lat="43.89661" lon="3.48743">
        <ele>385.600006</ele>
        <time>2013-04-25T13:33:41Z</time>
      </trkpt>
      <trkpt lat="43.89659" lon="3.48754">
        <ele>384.899994</ele>
        <time>2013-04-25T13:33:49Z</time>
      </trkpt>
      <trkpt lat="43.89662" lon="3.48766">
        <ele>385.200012</ele>
        <time>2013-04-25T13:33:56Z</time>
      </trkpt>
      <trkpt lat="43.89661" lon="3.48767">
        <ele>384.799988</ele>
        <time>2013-04-25T13:33:57Z</time>
      </trkpt>
      <trkpt lat="43.89661" lon="3.48787">
        <ele>383.700012</ele>
        <time>2013-04-25T13:34:11Z</time>
      </trkpt>
      <trkpt lat="43.89664" lon="3.48798">
        <ele>383.399994</ele>
        <time>2013-04-25T13:34:20Z</time>
      </trkpt>
      <trkpt lat="43.89668" lon="3.48808">
        <ele>383.399994</ele>
        <time>2013-04-25T13:34:27Z</time>
      </trkpt>
      <trkpt lat="43.89673" lon="3.48817">
        <ele>382.399994</ele>
        <time>2013-04-25T13:34:35Z</time>
      </trkpt>
      <trkpt lat="43.89675" lon="3.48828">
        <ele>381.899994</ele>
        <time>2013-04-25T13:34:43Z</time>
      </trkpt>
      <trkpt lat="43.89674" lon="3.48839">
        <ele>381.899994</ele>
        <time>2013-04-25T13:34:51Z</time>
      </trkpt>
      <trkpt lat="43.89675" lon="3.4885">
        <ele>381.700012</ele>
        <time>2013-04-25T13:34:58Z</time>
      </trkpt>
      <trkpt lat="43.89675" lon="3.48852">
        <ele>381.600006</ele>
        <time>2013-04-25T13:34:59Z</time>
      </trkpt>
      <trkpt lat="43.89681" lon="3.48873">
        <ele>380.399994</ele>
        <time>2013-04-25T13:35:15Z</time>
      </trkpt>
      <trkpt lat="43.89686" lon="3.48883">
        <ele>381.100006</ele>
        <time>2013-04-25T13:35:24Z</time>
      </trkpt>
      <trkpt lat="43.89687" lon="3.48895">
        <ele>381.399994</ele>
        <time>2013-04-25T13:35:33Z</time>
      </trkpt>
      <trkpt lat="43.89679" lon="3.489">
        <ele>381.600006</ele>
        <time>2013-04-25T13:35:48Z</time>
      </trkpt>
      <trkpt lat="43.89679" lon="3.48911">
        <ele>382.5</ele>
        <time>2013-04-25T13:40:29Z</time>
      </trkpt>
      <trkpt lat="43.89678" lon="3.48913">
        <ele>382.299988</ele>
        <time>2013-04-25T13:40:30Z</time>
      </trkpt>
      <trkpt lat="43.89663" lon="3.48921">
        <ele>378.700012</ele>
        <time>2013-04-25T13:40:47Z</time>
      </trkpt>
      <trkpt lat="43.89657" lon="3.48913">
        <ele>378.700012</ele>
        <time>2013-04-25T13:40:58Z</time>
      </trkpt>
      <trkpt lat="43.8965" lon="3.48906">
        <ele>378.799988</ele>
        <time>2013-04-25T13:41:03Z</time>
      </trkpt>
      <trkpt lat="43.89642" lon="3.489">
        <ele>377.5</ele>
        <time>2013-04-25T13:41:10Z</time>
      </trkpt>
      <trkpt lat="43.89637" lon="3.48892">
        <ele>377.399994</ele>
        <time>2013-04-25T13:41:15Z</time>
      </trkpt>
      <trkpt lat="43.8963" lon="3.48886">
        <ele>378.700012</ele>
        <time>2013-04-25T13:41:18Z</time>
      </trkpt>
      <trkpt lat="43.89624" lon="3.48882">
        <ele>378.299988</ele>
        <time>2013-04-25T13:41:21Z</time>
      </trkpt>
      <trkpt lat="43.89616" lon="3.48876">
        <ele>378.299988</ele>
        <time>2013-04-25T13:41:25Z</time>
      </trkpt>
      <trkpt lat="43.89607" lon="3.48875">
        <ele>378.600006</ele>
        <time>2013-04-25T13:41:34Z</time>
      </trkpt>
      <trkpt lat="43.89607" lon="3.48874">
        <ele>378.299988</ele>
        <time>2013-04-25T13:41:35Z</time>
      </trkpt>
      <trkpt lat="43.89595" lon="3.48861">
        <ele>379.100006</ele>
        <time>2013-04-25T13:41:50Z</time>
      </trkpt>
      <trkpt lat="43.89587" lon="3.48857">
        <ele>378.100006</ele>
        <time>2013-04-25T13:41:55Z</time>
      </trkpt>
      <trkpt lat="43.89582" lon="3.48852">
        <ele>378.799988</ele>
        <time>2013-04-25T13:41:58Z</time>
      </trkpt>
      <trkpt lat="43.89574" lon="3.48846">
        <ele>378.100006</ele>
        <time>2013-04-25T13:42:01Z</time>
      </trkpt>
      <trkpt lat="43.89567" lon="3.48844">
        <ele>377.600006</ele>
        <time>2013-04-25T13:42:04Z</time>
      </trkpt>
      <trkpt lat="43.89561" lon="3.48835">
        <ele>378.299988</ele>
        <time>2013-04-25T13:42:21Z</time>
      </trkpt>
      <trkpt lat="43.89553" lon="3.48833">
        <ele>379.200012</ele>
        <time>2013-04-25T13:42:27Z</time>
      </trkpt>
      <trkpt lat="43.89545" lon="3.4883">
        <ele>379.200012</ele>
        <time>2013-04-25T13:42:31Z</time>
      </trkpt>
      <trkpt lat="43.89536" lon="3.48827">
        <ele>377.899994</ele>
        <time>2013-04-25T13:42:35Z</time>
      </trkpt>
      <trkpt lat="43.89535" lon="3.48825">
        <ele>378</ele>
        <time>2013-04-25T13:42:36Z</time>
      </trkpt>
      <trkpt lat="43.89525" lon="3.48813">
        <ele>378.600006</ele>
        <time>2013-04-25T13:42:53Z</time>
      </trkpt>
      <trkpt lat="43.89517" lon="3.48812">
        <ele>378.5</ele>
        <time>2013-04-25T13:42:58Z</time>
      </trkpt>
      <trkpt lat="43.89509" lon="3.48811">
        <ele>378.5</ele>
        <time>2013-04-25T13:43:03Z</time>
      </trkpt>
      <trkpt lat="43.895" lon="3.48809">
        <ele>378.700012</ele>
        <time>2013-04-25T13:43:11Z</time>
      </trkpt>
      <trkpt lat="43.89493" lon="3.48809">
        <ele>377.200012</ele>
        <time>2013-04-25T13:43:15Z</time>
      </trkpt>
      <trkpt lat="43.89486" lon="3.48808">
        <ele>377.5</ele>
        <time>2013-04-25T13:43:18Z</time>
      </trkpt>
      <trkpt lat="43.89477" lon="3.48806">
        <ele>377.899994</ele>
        <time>2013-04-25T13:43:22Z</time>
      </trkpt>
      <trkpt lat="43.89468" lon="3.48804">
        <ele>376.899994</ele>
        <time>2013-04-25T13:43:27Z</time>
      </trkpt>
      <trkpt lat="43.89461" lon="3.48812">
        <ele>376.799988</ele>
        <time>2013-04-25T13:43:35Z</time>
      </trkpt>
      <trkpt lat="43.89454" lon="3.48818">
        <ele>376.799988</ele>
        <time>2013-04-25T13:43:44Z</time>
      </trkpt>
      <trkpt lat="43.89454" lon="3.48819">
        <ele>376.5</ele>
        <time>2013-04-25T13:43:45Z</time>
      </trkpt>
      <trkpt lat="43.89438" lon="3.48824">
        <ele>375.200012</ele>
        <time>2013-04-25T13:44:00Z</time>
      </trkpt>
      <trkpt lat="43.89431" lon="3.48829">
        <ele>375.600006</ele>
        <time>2013-04-25T13:44:05Z</time>
      </trkpt>
      <trkpt lat="43.89428" lon="3.48837">
        <ele>375.100006</ele>
        <time>2013-04-25T13:44:08Z</time>
      </trkpt>
      <trkpt lat="43.89421" lon="3.48842">
        <ele>375.200012</ele>
        <time>2013-04-25T13:44:11Z</time>
      </trkpt>
      <trkpt lat="43.89413" lon="3.48849">
        <ele>375.200012</ele>
        <time>2013-04-25T13:44:16Z</time>
      </trkpt>
      <trkpt lat="43.89409" lon="3.4886">
        <ele>375.100006</ele>
        <time>2013-04-25T13:44:24Z</time>
      </trkpt>
      <trkpt lat="43.89405" lon="3.48869">
        <ele>375.100006</ele>
        <time>2013-04-25T13:44:31Z</time>
      </trkpt>
      <trkpt lat="43.894" lon="3.48878">
        <ele>374.899994</ele>
        <time>2013-04-25T13:44:37Z</time>
      </trkpt>
      <trkpt lat="43.89398" lon="3.4889">
        <ele>373.5</ele>
        <time>2013-04-25T13:44:48Z</time>
      </trkpt>
      <trkpt lat="43.89398" lon="3.48891">
        <ele>373.399994</ele>
        <time>2013-04-25T13:44:49Z</time>
      </trkpt>
      <trkpt lat="43.89387" lon="3.48909">
        <ele>371.799988</ele>
        <time>2013-04-25T13:45:04Z</time>
      </trkpt>
      <trkpt lat="43.89383" lon="3.48919">
        <ele>371.200012</ele>
        <time>2013-04-25T13:45:10Z</time>
      </trkpt>
      <trkpt lat="43.89382" lon="3.48931">
        <ele>371.399994</ele>
        <time>2013-04-25T13:45:20Z</time>
      </trkpt>
      <trkpt lat="43.89377" lon="3.48941">
        <ele>371.399994</ele>
        <time>2013-04-25T13:45:29Z</time>
      </trkpt>
      <trkpt lat="43.89377" lon="3.48953">
        <ele>370.200012</ele>
        <time>2013-04-25T13:45:36Z</time>
      </trkpt>
      <trkpt lat="43.89376" lon="3.48964">
        <ele>369.700012</ele>
        <time>2013-04-25T13:45:43Z</time>
      </trkpt>
      <trkpt lat="43.89375" lon="3.48975">
        <ele>369</ele>
        <time>2013-04-25T13:45:50Z</time>
      </trkpt>
      <trkpt lat="43.89376" lon="3.48977">
        <ele>368.899994</ele>
        <time>2013-04-25T13:45:51Z</time>
      </trkpt>
      <trkpt lat="43.89377" lon="3.48998">
        <ele>368.200012</ele>
        <time>2013-04-25T13:46:05Z</time>
      </trkpt>
      <trkpt lat="43.89377" lon="3.4901">
        <ele>367.100006</ele>
        <time>2013-04-25T13:46:14Z</time>
      </trkpt>
      <trkpt lat="43.89377" lon="3.49021">
        <ele>366.5</ele>
        <time>2013-04-25T13:46:21Z</time>
      </trkpt>
      <trkpt lat="43.89379" lon="3.49033">
        <ele>366.5</ele>
        <time>2013-04-25T13:46:30Z</time>
      </trkpt>
      <trkpt lat="43.8938" lon="3.49045">
        <ele>365.700012</ele>
        <time>2013-04-25T13:46:37Z</time>
      </trkpt>
      <trkpt lat="43.89382" lon="3.49057">
        <ele>365.200012</ele>
        <time>2013-04-25T13:46:45Z</time>
      </trkpt>
      <trkpt lat="43.89385" lon="3.49068">
        <ele>365.299988</ele>
        <time>2013-04-25T13:46:54Z</time>
      </trkpt>
      <trkpt lat="43.89385" lon="3.49069">
        <ele>365.200012</ele>
        <time>2013-04-25T13:46:55Z</time>
      </trkpt>
      <trkpt lat="43.89387" lon="3.49091">
        <ele>363.799988</ele>
        <time>2013-04-25T13:47:10Z</time>
      </trkpt>
      <trkpt lat="43.89389" lon="3.49103">
        <ele>363.799988</ele>
        <time>2013-04-25T13:47:18Z</time>
      </trkpt>
      <trkpt lat="43.89392" lon="3.49114">
        <ele>363.5</ele>
        <time>2013-04-25T13:47:26Z</time>
      </trkpt>
      <trkpt lat="43.89394" lon="3.49126">
        <ele>362.899994</ele>
        <time>2013-04-25T13:47:36Z</time>
      </trkpt>
      <trkpt lat="43.89391" lon="3.49138">
        <ele>363.700012</ele>
        <time>2013-04-25T13:47:47Z</time>
      </trkpt>
      <trkpt lat="43.89386" lon="3.49148">
        <ele>363.600006</ele>
        <time>2013-04-25T13:48:01Z</time>
      </trkpt>
      <trkpt lat="43.89387" lon="3.49149">
        <ele>363.600006</ele>
        <time>2013-04-25T13:48:02Z</time>
      </trkpt>
      <trkpt lat="43.89395" lon="3.49167">
        <ele>365.5</ele>
        <time>2013-04-25T13:48:29Z</time>
      </trkpt>
      <trkpt lat="43.8939" lon="3.49176">
        <ele>364.700012</ele>
        <time>2013-04-25T13:48:41Z</time>
      </trkpt>
      <trkpt lat="43.8939" lon="3.49188">
        <ele>364.600006</ele>
        <time>2013-04-25T13:48:51Z</time>
      </trkpt>
      <trkpt lat="43.8939" lon="3.492">
        <ele>364.5</ele>
        <time>2013-04-25T13:49:01Z</time>
      </trkpt>
      <trkpt lat="43.89395" lon="3.49209">
        <ele>364.899994</ele>
        <time>2013-04-25T13:49:06Z</time>
      </trkpt>
      <trkpt lat="43.89395" lon="3.49211">
        <ele>365.299988</ele>
        <time>2013-04-25T13:49:07Z</time>
      </trkpt>
      <trkpt lat="43.89396" lon="3.49232">
        <ele>365.700012</ele>
        <time>2013-04-25T13:49:28Z</time>
      </trkpt>
      <trkpt lat="43.89395" lon="3.49244">
        <ele>365</ele>
        <time>2013-04-25T13:49:36Z</time>
      </trkpt>
      <trkpt lat="43.89396" lon="3.49255">
        <ele>364.600006</ele>
        <time>2013-04-25T13:49:42Z</time>
      </trkpt>
      <trkpt lat="43.89395" lon="3.49267">
        <ele>365.600006</ele>
        <time>2013-04-25T13:49:50Z</time>
      </trkpt>
      <trkpt lat="43.89395" lon="3.49278">
        <ele>366.600006</ele>
        <time>2013-04-25T13:49:55Z</time>
      </trkpt>
      <trkpt lat="43.89392" lon="3.49288">
        <ele>365.700012</ele>
        <time>2013-04-25T13:50:02Z</time>
      </trkpt>
      <trkpt lat="43.89389" lon="3.49299">
        <ele>364.5</ele>
        <time>2013-04-25T13:50:09Z</time>
      </trkpt>
      <trkpt lat="43.89389" lon="3.49301">
        <ele>364.799988</ele>
        <time>2013-04-25T13:50:10Z</time>
      </trkpt>
      <trkpt lat="43.89391" lon="3.49321">
        <ele>364.600006</ele>
        <time>2013-04-25T13:50:21Z</time>
      </trkpt>
      <trkpt lat="43.8939" lon="3.49334">
        <ele>365</ele>
        <time>2013-04-25T13:50:31Z</time>
      </trkpt>
      <trkpt lat="43.89395" lon="3.49344">
        <ele>363.899994</ele>
        <time>2013-04-25T13:50:43Z</time>
      </trkpt>
      <trkpt lat="43.8939" lon="3.49353">
        <ele>363.799988</ele>
        <time>2013-04-25T13:50:52Z</time>
      </trkpt>
      <trkpt lat="43.89386" lon="3.49361">
        <ele>365.5</ele>
        <time>2013-04-25T13:51:03Z</time>
      </trkpt>
      <trkpt lat="43.89378" lon="3.49366">
        <ele>365.700012</ele>
        <time>2013-04-25T13:51:09Z</time>
      </trkpt>
      <trkpt lat="43.89369" lon="3.4937">
        <ele>365.600006</ele>
        <time>2013-04-25T13:51:14Z</time>
      </trkpt>
      <trkpt lat="43.89369" lon="3.49371">
        <ele>365</ele>
        <time>2013-04-25T13:51:15Z</time>
      </trkpt>
      <trkpt lat="43.89353" lon="3.49378">
        <ele>364.600006</ele>
        <time>2013-04-25T13:51:32Z</time>
      </trkpt>
      <trkpt lat="43.89345" lon="3.49377">
        <ele>364.700012</ele>
        <time>2013-04-25T13:51:37Z</time>
      </trkpt>
      <trkpt lat="43.89337" lon="3.49371">
        <ele>365.100006</ele>
        <time>2013-04-25T13:51:51Z</time>
      </trkpt>
      <trkpt lat="43.89333" lon="3.49361">
        <ele>365.100006</ele>
        <time>2013-04-25T13:52:01Z</time>
      </trkpt>
      <trkpt lat="43.89328" lon="3.49352">
        <ele>365.100006</ele>
        <time>2013-04-25T13:52:11Z</time>
      </trkpt>
      <trkpt lat="43.89327" lon="3.49341">
        <ele>363.5</ele>
        <time>2013-04-25T13:52:21Z</time>
      </trkpt>
      <trkpt lat="43.89327" lon="3.49339">
        <ele>363.799988</ele>
        <time>2013-04-25T13:52:22Z</time>
      </trkpt>
      <trkpt lat="43.89322" lon="3.49318">
        <ele>364</ele>
        <time>2013-04-25T13:52:41Z</time>
      </trkpt>
      <trkpt lat="43.89319" lon="3.49307">
        <ele>363.5</ele>
        <time>2013-04-25T13:52:50Z</time>
      </trkpt>
      <trkpt lat="43.89316" lon="3.49297">
        <ele>363.700012</ele>
        <time>2013-04-25T13:52:57Z</time>
      </trkpt>
      <trkpt lat="43.89311" lon="3.49287">
        <ele>364.100006</ele>
        <time>2013-04-25T13:53:01Z</time>
      </trkpt>
      <trkpt lat="43.89309" lon="3.49277">
        <ele>364.299988</ele>
        <time>2013-04-25T13:53:06Z</time>
      </trkpt>
      <trkpt lat="43.89308" lon="3.49267">
        <ele>363.5</ele>
        <time>2013-04-25T13:53:10Z</time>
      </trkpt>
      <trkpt lat="43.89306" lon="3.49256">
        <ele>363.600006</ele>
        <time>2013-04-25T13:53:16Z</time>
      </trkpt>
      <trkpt lat="43.89304" lon="3.49245">
        <ele>363.700012</ele>
        <time>2013-04-25T13:53:26Z</time>
      </trkpt>
      <trkpt lat="43.89304" lon="3.49244">
        <ele>364.100006</ele>
        <time>2013-04-25T13:53:27Z</time>
      </trkpt>
      <trkpt lat="43.89296" lon="3.49223">
        <ele>366</ele>
        <time>2013-04-25T13:54:12Z</time>
      </trkpt>
      <trkpt lat="43.89293" lon="3.49212">
        <ele>367</ele>
        <time>2013-04-25T13:54:22Z</time>
      </trkpt>
      <trkpt lat="43.89288" lon="3.49202">
        <ele>367.600006</ele>
        <time>2013-04-25T13:54:32Z</time>
      </trkpt>
      <trkpt lat="43.89287" lon="3.49202">
        <ele>368</ele>
        <time>2013-04-25T13:54:33Z</time>
      </trkpt>
      <trkpt lat="43.89275" lon="3.49186">
        <ele>367.899994</ele>
        <time>2013-04-25T13:54:54Z</time>
      </trkpt>
      <trkpt lat="43.89271" lon="3.49176">
        <ele>367.799988</ele>
        <time>2013-04-25T13:55:01Z</time>
      </trkpt>
      <trkpt lat="43.89264" lon="3.49168">
        <ele>367.299988</ele>
        <time>2013-04-25T13:55:08Z</time>
      </trkpt>
      <trkpt lat="43.89258" lon="3.49161">
        <ele>367</ele>
        <time>2013-04-25T13:55:13Z</time>
      </trkpt>
      <trkpt lat="43.89251" lon="3.49155">
        <ele>367.200012</ele>
        <time>2013-04-25T13:55:19Z</time>
      </trkpt>
      <trkpt lat="43.89244" lon="3.49151">
        <ele>367.200012</ele>
        <time>2013-04-25T13:55:23Z</time>
      </trkpt>
      <trkpt lat="43.89237" lon="3.49146">
        <ele>366.799988</ele>
        <time>2013-04-25T13:55:31Z</time>
      </trkpt>
      <trkpt lat="43.89229" lon="3.49142">
        <ele>367</ele>
        <time>2013-04-25T13:55:39Z</time>
      </trkpt>
      <trkpt lat="43.89228" lon="3.49141">
        <ele>367</ele>
        <time>2013-04-25T13:55:40Z</time>
      </trkpt>
      <trkpt lat="43.89213" lon="3.49134">
        <ele>365.899994</ele>
        <time>2013-04-25T13:55:50Z</time>
      </trkpt>
      <trkpt lat="43.89204" lon="3.49135">
        <ele>366</ele>
        <time>2013-04-25T13:55:59Z</time>
      </trkpt>
      <trkpt lat="43.89197" lon="3.4913">
        <ele>366.100006</ele>
        <time>2013-04-25T13:56:11Z</time>
      </trkpt>
      <trkpt lat="43.89189" lon="3.49124">
        <ele>366.799988</ele>
        <time>2013-04-25T13:56:20Z</time>
      </trkpt>
      <trkpt lat="43.89181" lon="3.49121">
        <ele>365.5</ele>
        <time>2013-04-25T13:56:26Z</time>
      </trkpt>
      <trkpt lat="43.89172" lon="3.49121">
        <ele>364.200012</ele>
        <time>2013-04-25T13:56:34Z</time>
      </trkpt>
      <trkpt lat="43.89163" lon="3.49118">
        <ele>366</ele>
        <time>2013-04-25T13:56:46Z</time>
      </trkpt>
      <trkpt lat="43.89162" lon="3.49118">
        <ele>365.799988</ele>
        <time>2013-04-25T13:56:47Z</time>
      </trkpt>
      <trkpt lat="43.89147" lon="3.49122">
        <ele>365</ele>
        <time>2013-04-25T13:57:03Z</time>
      </trkpt>
      <trkpt lat="43.89139" lon="3.49126">
        <ele>366.200012</ele>
        <time>2013-04-25T13:57:09Z</time>
      </trkpt>
      <trkpt lat="43.89132" lon="3.49132">
        <ele>365.600006</ele>
        <time>2013-04-25T13:57:18Z</time>
      </trkpt>
      <trkpt lat="43.89124" lon="3.49132">
        <ele>366.299988</ele>
        <time>2013-04-25T13:57:26Z</time>
      </trkpt>
      <trkpt lat="43.89116" lon="3.49137">
        <ele>365.100006</ele>
        <time>2013-04-25T13:57:35Z</time>
      </trkpt>
      <trkpt lat="43.89109" lon="3.49144">
        <ele>366.100006</ele>
        <time>2013-04-25T13:57:45Z</time>
      </trkpt>
      <trkpt lat="43.89101" lon="3.49147">
        <ele>366.399994</ele>
        <time>2013-04-25T13:57:55Z</time>
      </trkpt>
      <trkpt lat="43.891" lon="3.49148">
        <ele>366.700012</ele>
        <time>2013-04-25T13:57:56Z</time>
      </trkpt>
      <trkpt lat="43.89091" lon="3.49166">
        <ele>366.899994</ele>
        <time>2013-04-25T13:58:10Z</time>
      </trkpt>
      <trkpt lat="43.89086" lon="3.49175">
        <ele>367.299988</ele>
        <time>2013-04-25T13:58:19Z</time>
      </trkpt>
      <trkpt lat="43.89084" lon="3.49186">
        <ele>367.799988</ele>
        <time>2013-04-25T13:58:27Z</time>
      </trkpt>
      <trkpt lat="43.89081" lon="3.49197">
        <ele>367.799988</ele>
        <time>2013-04-25T13:58:36Z</time>
      </trkpt>
      <trkpt lat="43.89078" lon="3.49209">
        <ele>367.200012</ele>
        <time>2013-04-25T13:58:43Z</time>
      </trkpt>
      <trkpt lat="43.89073" lon="3.49219">
        <ele>367.899994</ele>
        <time>2013-04-25T13:58:50Z</time>
      </trkpt>
      <trkpt lat="43.89074" lon="3.49231">
        <ele>368.299988</ele>
        <time>2013-04-25T13:58:58Z</time>
      </trkpt>
      <trkpt lat="43.89074" lon="3.49232">
        <ele>368.799988</ele>
        <time>2013-04-25T13:58:59Z</time>
      </trkpt>
      <trkpt lat="43.89078" lon="3.49252">
        <ele>365.799988</ele>
        <time>2013-04-25T13:59:10Z</time>
      </trkpt>
      <trkpt lat="43.89081" lon="3.49264">
        <ele>365.5</ele>
        <time>2013-04-25T13:59:17Z</time>
      </trkpt>
      <trkpt lat="43.89085" lon="3.49273">
        <ele>366</ele>
        <time>2013-04-25T13:59:22Z</time>
      </trkpt>
      <trkpt lat="43.89088" lon="3.49284">
        <ele>365.899994</ele>
        <time>2013-04-25T13:59:29Z</time>
      </trkpt>
      <trkpt lat="43.89091" lon="3.49295">
        <ele>365.200012</ele>
        <time>2013-04-25T13:59:38Z</time>
      </trkpt>
      <trkpt lat="43.89095" lon="3.49306">
        <ele>365.100006</ele>
        <time>2013-04-25T13:59:48Z</time>
      </trkpt>
      <trkpt lat="43.89097" lon="3.49316">
        <ele>364.700012</ele>
        <time>2013-04-25T13:59:57Z</time>
      </trkpt>
      <trkpt lat="43.89099" lon="3.49328">
        <ele>364.600006</ele>
        <time>2013-04-25T14:00:04Z</time>
      </trkpt>
      <trkpt lat="43.891" lon="3.49329">
        <ele>364.100006</ele>
        <time>2013-04-25T14:00:05Z</time>
      </trkpt>
      <trkpt lat="43.89099" lon="3.49352">
        <ele>362.899994</ele>
        <time>2013-04-25T14:00:21Z</time>
      </trkpt>
      <trkpt lat="43.89101" lon="3.49363">
        <ele>361.799988</ele>
        <time>2013-04-25T14:00:30Z</time>
      </trkpt>
      <trkpt lat="43.89099" lon="3.49373">
        <ele>361.200012</ele>
        <time>2013-04-25T14:00:38Z</time>
      </trkpt>
      <trkpt lat="43.89094" lon="3.49382">
        <ele>360.899994</ele>
        <time>2013-04-25T14:00:44Z</time>
      </trkpt>
      <trkpt lat="43.8909" lon="3.49391">
        <ele>361.200012</ele>
        <time>2013-04-25T14:00:50Z</time>
      </trkpt>
      <trkpt lat="43.89086" lon="3.49401">
        <ele>361.700012</ele>
        <time>2013-04-25T14:00:57Z</time>
      </trkpt>
      <trkpt lat="43.89079" lon="3.49409">
        <ele>362.700012</ele>
        <time>2013-04-25T14:01:04Z</time>
      </trkpt>
      <trkpt lat="43.89071" lon="3.49414">
        <ele>362.700012</ele>
        <time>2013-04-25T14:01:10Z</time>
      </trkpt>
      <trkpt lat="43.89071" lon="3.49415">
        <ele>362.799988</ele>
        <time>2013-04-25T14:01:11Z</time>
      </trkpt>
      <trkpt lat="43.89059" lon="3.49428">
        <ele>363.200012</ele>
        <time>2013-04-25T14:01:24Z</time>
      </trkpt>
      <trkpt lat="43.89052" lon="3.49436">
        <ele>363</ele>
        <time>2013-04-25T14:01:30Z</time>
      </trkpt>
      <trkpt lat="43.89047" lon="3.49443">
        <ele>363.399994</ele>
        <time>2013-04-25T14:01:35Z</time>
      </trkpt>
      <trkpt lat="43.89042" lon="3.49454">
        <ele>362.5</ele>
        <time>2013-04-25T14:01:41Z</time>
      </trkpt>
      <trkpt lat="43.89038" lon="3.49464">
        <ele>361.799988</ele>
        <time>2013-04-25T14:01:48Z</time>
      </trkpt>
      <trkpt lat="43.89033" lon="3.49474">
        <ele>360.899994</ele>
        <time>2013-04-25T14:01:57Z</time>
      </trkpt>
      <trkpt lat="43.89033" lon="3.49486">
        <ele>360.799988</ele>
        <time>2013-04-25T14:02:26Z</time>
      </trkpt>
      <trkpt lat="43.89033" lon="3.49486">
        <ele>360.799988</ele>
        <time>2013-04-25T14:02:27Z</time>
      </trkpt>
      <trkpt lat="43.89018" lon="3.49494">
        <ele>361.799988</ele>
        <time>2013-04-25T14:02:51Z</time>
      </trkpt>
      <trkpt lat="43.8901" lon="3.49497">
        <ele>361</ele>
        <time>2013-04-25T14:02:58Z</time>
      </trkpt>
      <trkpt lat="43.89002" lon="3.49496">
        <ele>360.899994</ele>
        <time>2013-04-25T14:03:04Z</time>
      </trkpt>
      <trkpt lat="43.88994" lon="3.49499">
        <ele>360.899994</ele>
        <time>2013-04-25T14:03:08Z</time>
      </trkpt>
      <trkpt lat="43.88986" lon="3.49504">
        <ele>361.100006</ele>
        <time>2013-04-25T14:03:15Z</time>
      </trkpt>
      <trkpt lat="43.88978" lon="3.49508">
        <ele>360.799988</ele>
        <time>2013-04-25T14:03:24Z</time>
      </trkpt>
      <trkpt lat="43.88969" lon="3.49512">
        <ele>361.700012</ele>
        <time>2013-04-25T14:03:32Z</time>
      </trkpt>
      <trkpt lat="43.88967" lon="3.49512">
        <ele>361.299988</ele>
        <time>2013-04-25T14:03:33Z</time>
      </trkpt>
      <trkpt lat="43.88953" lon="3.4952">
        <ele>359.700012</ele>
        <time>2013-04-25T14:03:46Z</time>
      </trkpt>
      <trkpt lat="43.88945" lon="3.49525">
        <ele>360.399994</ele>
        <time>2013-04-25T14:03:58Z</time>
      </trkpt>
      <trkpt lat="43.88938" lon="3.49529">
        <ele>359.899994</ele>
        <time>2013-04-25T14:04:05Z</time>
      </trkpt>
      <trkpt lat="43.8893" lon="3.49529">
        <ele>361.100006</ele>
        <time>2013-04-25T14:04:13Z</time>
      </trkpt>
      <trkpt lat="43.88922" lon="3.49532">
        <ele>362.399994</ele>
        <time>2013-04-25T14:04:23Z</time>
      </trkpt>
      <trkpt lat="43.88914" lon="3.49539">
        <ele>363.200012</ele>
        <time>2013-04-25T14:04:33Z</time>
      </trkpt>
      <trkpt lat="43.88913" lon="3.49539">
        <ele>363.700012</ele>
        <time>2013-04-25T14:04:34Z</time>
      </trkpt>
      <trkpt lat="43.88901" lon="3.49554">
        <ele>361.799988</ele>
        <time>2013-04-25T14:04:48Z</time>
      </trkpt>
      <trkpt lat="43.889" lon="3.49566">
        <ele>360.700012</ele>
        <time>2013-04-25T14:04:57Z</time>
      </trkpt>
      <trkpt lat="43.88896" lon="3.49576">
        <ele>359.600006</ele>
        <time>2013-04-25T14:05:05Z</time>
      </trkpt>
      <trkpt lat="43.88891" lon="3.49585">
        <ele>360.5</ele>
        <time>2013-04-25T14:05:14Z</time>
      </trkpt>
      <trkpt lat="43.88891" lon="3.49597">
        <ele>360.600006</ele>
        <time>2013-04-25T14:05:24Z</time>
      </trkpt>
      <trkpt lat="43.8889" lon="3.4961">
        <ele>359.899994</ele>
        <time>2013-04-25T14:05:34Z</time>
      </trkpt>
      <trkpt lat="43.8889" lon="3.4961">
        <ele>360</ele>
        <time>2013-04-25T14:05:35Z</time>
      </trkpt>
      <trkpt lat="43.88891" lon="3.49633">
        <ele>360.299988</ele>
        <time>2013-04-25T14:05:57Z</time>
      </trkpt>
      <trkpt lat="43.88896" lon="3.49642">
        <ele>359.799988</ele>
        <time>2013-04-25T14:06:05Z</time>
      </trkpt>
      <trkpt lat="43.88904" lon="3.49649">
        <ele>359.700012</ele>
        <time>2013-04-25T14:06:12Z</time>
      </trkpt>
      <trkpt lat="43.88911" lon="3.49654">
        <ele>359.299988</ele>
        <time>2013-04-25T14:06:17Z</time>
      </trkpt>
      <trkpt lat="43.88917" lon="3.49656">
        <ele>360.100006</ele>
        <time>2013-04-25T14:06:19Z</time>
      </trkpt>
      <trkpt lat="43.88923" lon="3.49661">
        <ele>359.799988</ele>
        <time>2013-04-25T14:06:21Z</time>
      </trkpt>
      <trkpt lat="43.88931" lon="3.49663">
        <ele>360.899994</ele>
        <time>2013-04-25T14:06:23Z</time>
      </trkpt>
      <trkpt lat="43.88938" lon="3.49664">
        <ele>360.700012</ele>
        <time>2013-04-25T14:06:25Z</time>
      </trkpt>
      <trkpt lat="43.88944" lon="3.49667">
        <ele>359.899994</ele>
        <time>2013-04-25T14:06:28Z</time>
      </trkpt>
      <trkpt lat="43.88951" lon="3.49671">
        <ele>359.799988</ele>
        <time>2013-04-25T14:06:30Z</time>
      </trkpt>
      <trkpt lat="43.8896" lon="3.49673">
        <ele>360.399994</ele>
        <time>2013-04-25T14:06:33Z</time>
      </trkpt>
      <trkpt lat="43.88965" lon="3.4968">
        <ele>358.799988</ele>
        <time>2013-04-25T14:06:38Z</time>
      </trkpt>
      <trkpt lat="43.88967" lon="3.49682">
        <ele>358.799988</ele>
        <time>2013-04-25T14:06:39Z</time>
      </trkpt>
      <trkpt lat="43.88969" lon="3.49698">
        <ele>358.100006</ele>
        <time>2013-04-25T14:06:50Z</time>
      </trkpt>
      <trkpt lat="43.88965" lon="3.49708">
        <ele>360.600006</ele>
        <time>2013-04-25T14:18:38Z</time>
      </trkpt>
      <trkpt lat="43.88981" lon="3.49714">
        <ele>359</ele>
        <time>2013-04-25T14:19:10Z</time>
      </trkpt>
      <trkpt lat="43.88991" lon="3.49723">
        <ele>360</ele>
        <time>2013-04-25T14:19:28Z</time>
      </trkpt>
      <trkpt lat="43.88999" lon="3.49722">
        <ele>361.100006</ele>
        <time>2013-04-25T14:20:04Z</time>
      </trkpt>
      <trkpt lat="43.89" lon="3.49724">
        <ele>361.200012</ele>
        <time>2013-04-25T14:20:05Z</time>
      </trkpt>
      <trkpt lat="43.89016" lon="3.49729">
        <ele>359.899994</ele>
        <time>2013-04-25T14:20:19Z</time>
      </trkpt>
      <trkpt lat="43.89024" lon="3.49732">
        <ele>360.700012</ele>
        <time>2013-04-25T14:20:27Z</time>
      </trkpt>
      <trkpt lat="43.89032" lon="3.49732">
        <ele>359.700012</ele>
        <time>2013-04-25T14:20:32Z</time>
      </trkpt>
      <trkpt lat="43.89041" lon="3.49732">
        <ele>360.100006</ele>
        <time>2013-04-25T14:20:39Z</time>
      </trkpt>
      <trkpt lat="43.89049" lon="3.49733">
        <ele>359.899994</ele>
        <time>2013-04-25T14:20:45Z</time>
      </trkpt>
      <trkpt lat="43.89057" lon="3.49733">
        <ele>360.299988</ele>
        <time>2013-04-25T14:20:49Z</time>
      </trkpt>
      <trkpt lat="43.89065" lon="3.49733">
        <ele>360.5</ele>
        <time>2013-04-25T14:20:57Z</time>
      </trkpt>
      <trkpt lat="43.89073" lon="3.49735">
        <ele>360.600006</ele>
        <time>2013-04-25T14:21:04Z</time>
      </trkpt>
      <trkpt lat="43.8908" lon="3.49737">
        <ele>361</ele>
        <time>2013-04-25T14:21:08Z</time>
      </trkpt>
      <trkpt lat="43.89082" lon="3.49737">
        <ele>360.299988</ele>
        <time>2013-04-25T14:21:09Z</time>
      </trkpt>
      <trkpt lat="43.89095" lon="3.49742">
        <ele>361</ele>
        <time>2013-04-25T14:21:17Z</time>
      </trkpt>
      <trkpt lat="43.89104" lon="3.49744">
        <ele>360.299988</ele>
        <time>2013-04-25T14:21:27Z</time>
      </trkpt>
      <trkpt lat="43.89111" lon="3.4975">
        <ele>359.899994</ele>
        <time>2013-04-25T14:23:32Z</time>
      </trkpt>
      <trkpt lat="43.89112" lon="3.49751">
        <ele>360</ele>
        <time>2013-04-25T14:23:33Z</time>
      </trkpt>
      <trkpt lat="43.89125" lon="3.49754">
        <ele>360.200012</ele>
        <time>2013-04-25T14:23:48Z</time>
      </trkpt>
      <trkpt lat="43.89133" lon="3.49759">
        <ele>360.700012</ele>
        <time>2013-04-25T14:23:54Z</time>
      </trkpt>
      <trkpt lat="43.8914" lon="3.49764">
        <ele>360.200012</ele>
        <time>2013-04-25T14:24:00Z</time>
      </trkpt>
      <trkpt lat="43.89145" lon="3.49772">
        <ele>361.100006</ele>
        <time>2013-04-25T14:24:05Z</time>
      </trkpt>
      <trkpt lat="43.89153" lon="3.49777">
        <ele>360.200012</ele>
        <time>2013-04-25T14:24:11Z</time>
      </trkpt>
      <trkpt lat="43.89159" lon="3.49785">
        <ele>360.399994</ele>
        <time>2013-04-25T14:24:17Z</time>
      </trkpt>
      <trkpt lat="43.89159" lon="3.49796">
        <ele>360.399994</ele>
        <time>2013-04-25T14:24:23Z</time>
      </trkpt>
      <trkpt lat="43.8916" lon="3.49806">
        <ele>360.799988</ele>
        <time>2013-04-25T14:24:30Z</time>
      </trkpt>
      <trkpt lat="43.89164" lon="3.49816">
        <ele>360.700012</ele>
        <time>2013-04-25T14:24:37Z</time>
      </trkpt>
      <trkpt lat="43.89164" lon="3.49817">
        <ele>360.799988</ele>
        <time>2013-04-25T14:24:38Z</time>
      </trkpt>
      <trkpt lat="43.89175" lon="3.49836">
        <ele>359.299988</ele>
        <time>2013-04-25T14:24:53Z</time>
      </trkpt>
      <trkpt lat="43.89178" lon="3.49846">
        <ele>359.100006</ele>
        <time>2013-04-25T14:25:00Z</time>
      </trkpt>
      <trkpt lat="43.8918" lon="3.49857">
        <ele>360.600006</ele>
        <time>2013-04-25T14:25:08Z</time>
      </trkpt>
      <trkpt lat="43.89175" lon="3.49867">
        <ele>361.399994</ele>
        <time>2013-04-25T14:25:21Z</time>
      </trkpt>
      <trkpt lat="43.89166" lon="3.49864">
        <ele>370</ele>
        <time>2013-04-25T14:26:54Z</time>
      </trkpt>
      <trkpt lat="43.89166" lon="3.49864">
        <ele>370.100006</ele>
        <time>2013-04-25T14:26:55Z</time>
      </trkpt>
      <trkpt lat="43.89157" lon="3.4988">
        <ele>373.299988</ele>
        <time>2013-04-25T14:27:37Z</time>
      </trkpt>
      <trkpt lat="43.89156" lon="3.49892">
        <ele>374.899994</ele>
        <time>2013-04-25T14:28:10Z</time>
      </trkpt>
      <trkpt lat="43.89156" lon="3.49892">
        <ele>375.200012</ele>
        <time>2013-04-25T14:28:11Z</time>
      </trkpt>
      <trkpt lat="43.89155" lon="3.49915">
        <ele>376.100006</ele>
        <time>2013-04-25T14:28:49Z</time>
      </trkpt>
      <trkpt lat="43.89154" lon="3.49927">
        <ele>375.5</ele>
        <time>2013-04-25T14:29:00Z</time>
      </trkpt>
      <trkpt lat="43.89152" lon="3.49938">
        <ele>374.5</ele>
        <time>2013-04-25T14:29:09Z</time>
      </trkpt>
      <trkpt lat="43.89149" lon="3.49949">
        <ele>374.299988</ele>
        <time>2013-04-25T14:29:19Z</time>
      </trkpt>
      <trkpt lat="43.89149" lon="3.4995">
        <ele>374</ele>
        <time>2013-04-25T14:29:20Z</time>
      </trkpt>
      <trkpt lat="43.89143" lon="3.4997">
        <ele>374.399994</ele>
        <time>2013-04-25T14:29:35Z</time>
      </trkpt>
      <trkpt lat="43.8914" lon="3.49981">
        <ele>373.600006</ele>
        <time>2013-04-25T14:29:46Z</time>
      </trkpt>
      <trkpt lat="43.89138" lon="3.49993">
        <ele>374.5</ele>
        <time>2013-04-25T14:30:03Z</time>
      </trkpt>
      <trkpt lat="43.89136" lon="3.50005">
        <ele>374</ele>
        <time>2013-04-25T14:30:14Z</time>
      </trkpt>
      <trkpt lat="43.89131" lon="3.50015">
        <ele>375.799988</ele>
        <time>2013-04-25T14:30:24Z</time>
      </trkpt>
      <trkpt lat="43.89131" lon="3.50016">
        <ele>375.700012</ele>
        <time>2013-04-25T14:30:25Z</time>
      </trkpt>
      <trkpt lat="43.89129" lon="3.50039">
        <ele>375.399994</ele>
        <time>2013-04-25T14:30:42Z</time>
      </trkpt>
      <trkpt lat="43.89126" lon="3.50049">
        <ele>374.600006</ele>
        <time>2013-04-25T14:30:52Z</time>
      </trkpt>
      <trkpt lat="43.89122" lon="3.50059">
        <ele>372.899994</ele>
        <time>2013-04-25T14:31:03Z</time>
      </trkpt>
      <trkpt lat="43.89119" lon="3.5007">
        <ele>372.299988</ele>
        <time>2013-04-25T14:31:13Z</time>
      </trkpt>
      <trkpt lat="43.89115" lon="3.5008">
        <ele>370.600006</ele>
        <time>2013-04-25T14:31:24Z</time>
      </trkpt>
      <trkpt lat="43.89114" lon="3.50092">
        <ele>368.399994</ele>
        <time>2013-04-25T14:31:39Z</time>
      </trkpt>
      <trkpt lat="43.89114" lon="3.50093">
        <ele>368.5</ele>
        <time>2013-04-25T14:31:40Z</time>
      </trkpt>
      <trkpt lat="43.89106" lon="3.50111">
        <ele>368.100006</ele>
        <time>2013-04-25T14:32:01Z</time>
      </trkpt>
      <trkpt lat="43.89105" lon="3.50122">
        <ele>366.600006</ele>
        <time>2013-04-25T14:32:06Z</time>
      </trkpt>
      <trkpt lat="43.891" lon="3.5013">
        <ele>366.100006</ele>
        <time>2013-04-25T14:32:14Z</time>
      </trkpt>
      <trkpt lat="43.89094" lon="3.50139">
        <ele>365.200012</ele>
        <time>2013-04-25T14:32:21Z</time>
      </trkpt>
      <trkpt lat="43.89098" lon="3.50149">
        <ele>364.5</ele>
        <time>2013-04-25T14:32:33Z</time>
      </trkpt>
      <trkpt lat="43.89103" lon="3.50158">
        <ele>363.600006</ele>
        <time>2013-04-25T14:32:38Z</time>
      </trkpt>
      <trkpt lat="43.89108" lon="3.50169">
        <ele>364.100006</ele>
        <time>2013-04-25T14:32:47Z</time>
      </trkpt>
      <trkpt lat="43.89107" lon="3.5017">
        <ele>364</ele>
        <time>2013-04-25T14:32:48Z</time>
      </trkpt>
      <trkpt lat="43.89102" lon="3.50191">
        <ele>362.5</ele>
        <time>2013-04-25T14:33:04Z</time>
      </trkpt>
      <trkpt lat="43.891" lon="3.50202">
        <ele>362.100006</ele>
        <time>2013-04-25T14:33:13Z</time>
      </trkpt>
      <trkpt lat="43.891" lon="3.50213">
        <ele>361.600006</ele>
        <time>2013-04-25T14:33:21Z</time>
      </trkpt>
      <trkpt lat="43.89101" lon="3.50225">
        <ele>360.399994</ele>
        <time>2013-04-25T14:33:31Z</time>
      </trkpt>
      <trkpt lat="43.89093" lon="3.50229">
        <ele>360.700012</ele>
        <time>2013-04-25T14:33:44Z</time>
      </trkpt>
      <trkpt lat="43.89086" lon="3.50233">
        <ele>362</ele>
        <time>2013-04-25T14:33:51Z</time>
      </trkpt>
      <trkpt lat="43.89084" lon="3.50233">
        <ele>361.700012</ele>
        <time>2013-04-25T14:33:52Z</time>
      </trkpt>
      <trkpt lat="43.89075" lon="3.50248">
        <ele>368</ele>
        <time>2013-04-25T14:34:52Z</time>
      </trkpt>
      <trkpt lat="43.89076" lon="3.50259">
        <ele>369.5</ele>
        <time>2013-04-25T14:34:58Z</time>
      </trkpt>
      <trkpt lat="43.89077" lon="3.5026">
        <ele>369.700012</ele>
        <time>2013-04-25T14:34:59Z</time>
      </trkpt>
      <trkpt lat="43.89086" lon="3.50279">
        <ele>370.299988</ele>
        <time>2013-04-25T14:35:29Z</time>
      </trkpt>
      <trkpt lat="43.89085" lon="3.50291">
        <ele>372</ele>
        <time>2013-04-25T14:36:03Z</time>
      </trkpt>
      <trkpt lat="43.89087" lon="3.50292">
        <ele>371.399994</ele>
        <time>2013-04-25T14:36:04Z</time>
      </trkpt>
      <trkpt lat="43.8909" lon="3.50312">
        <ele>374.100006</ele>
        <time>2013-04-25T14:36:24Z</time>
      </trkpt>
      <trkpt lat="43.8909" lon="3.50324">
        <ele>372.700012</ele>
        <time>2013-04-25T14:36:30Z</time>
      </trkpt>
      <trkpt lat="43.89084" lon="3.50331">
        <ele>374.299988</ele>
        <time>2013-04-25T14:36:42Z</time>
      </trkpt>
      <trkpt lat="43.89101" lon="3.50333">
        <ele>371</ele>
        <time>2013-04-25T14:36:51Z</time>
      </trkpt>
      <trkpt lat="43.89086" lon="3.50323">
        <ele>370</ele>
        <time>2013-04-25T14:37:23Z</time>
      </trkpt>
      <trkpt lat="43.89085" lon="3.50313">
        <ele>371.200012</ele>
        <time>2013-04-25T14:37:27Z</time>
      </trkpt>
      <trkpt lat="43.89093" lon="3.50304">
        <ele>370</ele>
        <time>2013-04-25T14:37:40Z</time>
      </trkpt>
      <trkpt lat="43.891" lon="3.50293">
        <ele>373</ele>
        <time>2013-04-25T14:38:08Z</time>
      </trkpt>
      <trkpt lat="43.8911" lon="3.50299">
        <ele>375.799988</ele>
        <time>2013-04-25T14:38:19Z</time>
      </trkpt>
      <trkpt lat="43.89112" lon="3.50302">
        <ele>376.299988</ele>
        <time>2013-04-25T14:38:22Z</time>
      </trkpt>
      <trkpt lat="43.89116" lon="3.50312">
        <ele>376.100006</ele>
        <time>2013-04-25T14:38:24Z</time>
      </trkpt>
      <trkpt lat="43.8912" lon="3.50319">
        <ele>376.200012</ele>
        <time>2013-04-25T14:38:26Z</time>
      </trkpt>
      <trkpt lat="43.89122" lon="3.50327">
        <ele>376.600006</ele>
        <time>2013-04-25T14:38:28Z</time>
      </trkpt>
      <trkpt lat="43.89124" lon="3.50332">
        <ele>376.600006</ele>
        <time>2013-04-25T14:38:29Z</time>
      </trkpt>
      <trkpt lat="43.89129" lon="3.50345">
        <ele>376.600006</ele>
        <time>2013-04-25T14:38:32Z</time>
      </trkpt>
      <trkpt lat="43.89131" lon="3.50352">
        <ele>375.799988</ele>
        <time>2013-04-25T14:38:36Z</time>
      </trkpt>
      <trkpt lat="43.89137" lon="3.50362">
        <ele>377</ele>
        <time>2013-04-25T14:38:42Z</time>
      </trkpt>
      <trkpt lat="43.89144" lon="3.50366">
        <ele>377.200012</ele>
        <time>2013-04-25T14:38:55Z</time>
      </trkpt>
      <trkpt lat="43.8915" lon="3.50373">
        <ele>377.100006</ele>
        <time>2013-04-25T14:39:03Z</time>
      </trkpt>
      <trkpt lat="43.89156" lon="3.50382">
        <ele>377.200012</ele>
        <time>2013-04-25T14:39:13Z</time>
      </trkpt>
      <trkpt lat="43.89163" lon="3.50388">
        <ele>376.5</ele>
        <time>2013-04-25T14:39:21Z</time>
      </trkpt>
      <trkpt lat="43.8917" lon="3.50394">
        <ele>375.799988</ele>
        <time>2013-04-25T14:39:30Z</time>
      </trkpt>
      <trkpt lat="43.89171" lon="3.50395">
        <ele>375.899994</ele>
        <time>2013-04-25T14:39:31Z</time>
      </trkpt>
      <trkpt lat="43.89188" lon="3.50406">
        <ele>373.600006</ele>
        <time>2013-04-25T14:39:49Z</time>
      </trkpt>
      <trkpt lat="43.89195" lon="3.50394">
        <ele>373</ele>
        <time>2013-04-25T14:40:04Z</time>
      </trkpt>
      <trkpt lat="43.89206" lon="3.50387">
        <ele>372</ele>
        <time>2013-04-25T14:40:17Z</time>
      </trkpt>
      <trkpt lat="43.89219" lon="3.50389">
        <ele>371</ele>
        <time>2013-04-25T14:40:29Z</time>
      </trkpt>
      <trkpt lat="43.8922" lon="3.50388">
        <ele>371.5</ele>
        <time>2013-04-25T14:40:31Z</time>
      </trkpt>
      <trkpt lat="43.89243" lon="3.50395">
        <ele>371</ele>
        <time>2013-04-25T14:40:49Z</time>
      </trkpt>
      <trkpt lat="43.89256" lon="3.50394">
        <ele>373</ele>
        <time>2013-04-25T14:41:01Z</time>
      </trkpt>
      <trkpt lat="43.89264" lon="3.50393">
        <ele>372.700012</ele>
        <time>2013-04-25T14:41:07Z</time>
      </trkpt>
      <trkpt lat="43.89272" lon="3.50397">
        <ele>374.600006</ele>
        <time>2013-04-25T14:41:30Z</time>
      </trkpt>
      <trkpt lat="43.89281" lon="3.50396">
        <ele>375.200012</ele>
        <time>2013-04-25T14:41:38Z</time>
      </trkpt>
      <trkpt lat="43.89282" lon="3.50395">
        <ele>375.399994</ele>
        <time>2013-04-25T14:41:39Z</time>
      </trkpt>
      <trkpt lat="43.89296" lon="3.50385">
        <ele>376.200012</ele>
        <time>2013-04-25T14:41:54Z</time>
      </trkpt>
      <trkpt lat="43.893" lon="3.50376">
        <ele>376.700012</ele>
        <time>2013-04-25T14:42:01Z</time>
      </trkpt>
      <trkpt lat="43.89307" lon="3.50368">
        <ele>376</ele>
        <time>2013-04-25T14:42:09Z</time>
      </trkpt>
      <trkpt lat="43.89311" lon="3.50358">
        <ele>377</ele>
        <time>2013-04-25T14:42:16Z</time>
      </trkpt>
      <trkpt lat="43.89312" lon="3.50346">
        <ele>377.100006</ele>
        <time>2013-04-25T14:42:23Z</time>
      </trkpt>
      <trkpt lat="43.89318" lon="3.50337">
        <ele>377.100006</ele>
        <time>2013-04-25T14:42:30Z</time>
      </trkpt>
      <trkpt lat="43.89323" lon="3.5033">
        <ele>376.700012</ele>
        <time>2013-04-25T14:42:37Z</time>
      </trkpt>
      <trkpt lat="43.89329" lon="3.50321">
        <ele>376.899994</ele>
        <time>2013-04-25T14:42:46Z</time>
      </trkpt>
      <trkpt lat="43.8933" lon="3.50319">
        <ele>376.600006</ele>
        <time>2013-04-25T14:42:47Z</time>
      </trkpt>
      <trkpt lat="43.89342" lon="3.50307">
        <ele>377.100006</ele>
        <time>2013-04-25T14:43:00Z</time>
      </trkpt>
      <trkpt lat="43.8935" lon="3.50302">
        <ele>375.299988</ele>
        <time>2013-04-25T14:43:08Z</time>
      </trkpt>
      <trkpt lat="43.89358" lon="3.503">
        <ele>376.399994</ele>
        <time>2013-04-25T14:43:15Z</time>
      </trkpt>
      <trkpt lat="43.89366" lon="3.50297">
        <ele>377.399994</ele>
        <time>2013-04-25T14:43:22Z</time>
      </trkpt>
      <trkpt lat="43.89375" lon="3.50296">
        <ele>377.5</ele>
        <time>2013-04-25T14:43:31Z</time>
      </trkpt>
      <trkpt lat="43.89383" lon="3.50296">
        <ele>378.5</ele>
        <time>2013-04-25T14:43:40Z</time>
      </trkpt>
      <trkpt lat="43.89391" lon="3.50299">
        <ele>379.799988</ele>
        <time>2013-04-25T14:43:52Z</time>
      </trkpt>
      <trkpt lat="43.89392" lon="3.50299">
        <ele>379.799988</ele>
        <time>2013-04-25T14:43:53Z</time>
      </trkpt>
      <trkpt lat="43.89408" lon="3.50306">
        <ele>381.200012</ele>
        <time>2013-04-25T14:44:21Z</time>
      </trkpt>
      <trkpt lat="43.89416" lon="3.5031">
        <ele>382.600006</ele>
        <time>2013-04-25T14:44:30Z</time>
      </trkpt>
      <trkpt lat="43.89425" lon="3.50313">
        <ele>382.899994</ele>
        <time>2013-04-25T14:44:41Z</time>
      </trkpt>
      <trkpt lat="43.89433" lon="3.50318">
        <ele>384.600006</ele>
        <time>2013-04-25T14:44:52Z</time>
      </trkpt>
      <trkpt lat="43.89441" lon="3.50323">
        <ele>385.200012</ele>
        <time>2013-04-25T14:45:02Z</time>
      </trkpt>
      <trkpt lat="43.89442" lon="3.50324">
        <ele>384.799988</ele>
        <time>2013-04-25T14:45:03Z</time>
      </trkpt>
      <trkpt lat="43.89456" lon="3.50333">
        <ele>385.700012</ele>
        <time>2013-04-25T14:45:17Z</time>
      </trkpt>
      <trkpt lat="43.89462" lon="3.50341">
        <ele>388</ele>
        <time>2013-04-25T14:45:28Z</time>
      </trkpt>
      <trkpt lat="43.89468" lon="3.5035">
        <ele>388.5</ele>
        <time>2013-04-25T14:45:40Z</time>
      </trkpt>
      <trkpt lat="43.89474" lon="3.50357">
        <ele>388.700012</ele>
        <time>2013-04-25T14:45:46Z</time>
      </trkpt>
      <trkpt lat="43.8948" lon="3.50364">
        <ele>388.799988</ele>
        <time>2013-04-25T14:45:53Z</time>
      </trkpt>
      <trkpt lat="43.89487" lon="3.50372">
        <ele>389.299988</ele>
        <time>2013-04-25T14:46:00Z</time>
      </trkpt>
      <trkpt lat="43.89492" lon="3.50382">
        <ele>389.700012</ele>
        <time>2013-04-25T14:46:08Z</time>
      </trkpt>
      <trkpt lat="43.89492" lon="3.50383">
        <ele>389.700012</ele>
        <time>2013-04-25T14:46:09Z</time>
      </trkpt>
      <trkpt lat="43.89499" lon="3.50403">
        <ele>389.200012</ele>
        <time>2013-04-25T14:46:29Z</time>
      </trkpt>
      <trkpt lat="43.89504" lon="3.50412">
        <ele>390.200012</ele>
        <time>2013-04-25T14:46:37Z</time>
      </trkpt>
      <trkpt lat="43.89507" lon="3.50422">
        <ele>390.600006</ele>
        <time>2013-04-25T14:46:44Z</time>
      </trkpt>
      <trkpt lat="43.8951" lon="3.50432">
        <ele>390.299988</ele>
        <time>2013-04-25T14:46:52Z</time>
      </trkpt>
      <trkpt lat="43.89514" lon="3.50443">
        <ele>391.200012</ele>
        <time>2013-04-25T14:47:03Z</time>
      </trkpt>
      <trkpt lat="43.89517" lon="3.50455">
        <ele>392.200012</ele>
        <time>2013-04-25T14:47:11Z</time>
      </trkpt>
      <trkpt lat="43.89517" lon="3.50456">
        <ele>391.899994</ele>
        <time>2013-04-25T14:47:12Z</time>
      </trkpt>
      <trkpt lat="43.89526" lon="3.50475">
        <ele>392.700012</ele>
        <time>2013-04-25T14:47:27Z</time>
      </trkpt>
      <trkpt lat="43.89528" lon="3.50486">
        <ele>391.700012</ele>
        <time>2013-04-25T14:47:36Z</time>
      </trkpt>
      <trkpt lat="43.89533" lon="3.50496">
        <ele>392.200012</ele>
        <time>2013-04-25T14:47:44Z</time>
      </trkpt>
      <trkpt lat="43.89538" lon="3.50506">
        <ele>392.299988</ele>
        <time>2013-04-25T14:47:53Z</time>
      </trkpt>
      <trkpt lat="43.89542" lon="3.50516">
        <ele>392.899994</ele>
        <time>2013-04-25T14:48:02Z</time>
      </trkpt>
      <trkpt lat="43.89548" lon="3.50524">
        <ele>394.200012</ele>
        <time>2013-04-25T14:48:19Z</time>
      </trkpt>
      <trkpt lat="43.89548" lon="3.50525">
        <ele>394.100006</ele>
        <time>2013-04-25T14:48:20Z</time>
      </trkpt>
      <trkpt lat="43.89541" lon="3.50533">
        <ele>393.899994</ele>
        <time>2013-04-25T14:49:37Z</time>
      </trkpt>
      <trkpt lat="43.89548" lon="3.50511">
        <ele>391.899994</ele>
        <time>2013-04-25T14:50:10Z</time>
      </trkpt>
      <trkpt lat="43.89546" lon="3.50501">
        <ele>391.700012</ele>
        <time>2013-04-25T14:50:31Z</time>
      </trkpt>
      <trkpt lat="43.89544" lon="3.5049">
        <ele>390.700012</ele>
        <time>2013-04-25T14:50:40Z</time>
      </trkpt>
      <trkpt lat="43.89543" lon="3.50489">
        <ele>390.799988</ele>
        <time>2013-04-25T14:50:41Z</time>
      </trkpt>
      <trkpt lat="43.89538" lon="3.5047">
        <ele>388.899994</ele>
        <time>2013-04-25T14:50:54Z</time>
      </trkpt>
      <trkpt lat="43.89535" lon="3.50459">
        <ele>387.700012</ele>
        <time>2013-04-25T14:51:03Z</time>
      </trkpt>
      <trkpt lat="43.89534" lon="3.50447">
        <ele>385.799988</ele>
        <time>2013-04-25T14:51:28Z</time>
      </trkpt>
      <trkpt lat="43.89532" lon="3.50436">
        <ele>385.899994</ele>
        <time>2013-04-25T14:51:50Z</time>
      </trkpt>
      <trkpt lat="43.89532" lon="3.50434">
        <ele>385.600006</ele>
        <time>2013-04-25T14:51:51Z</time>
      </trkpt>
      <trkpt lat="43.89527" lon="3.50412">
        <ele>385.200012</ele>
        <time>2013-04-25T14:52:13Z</time>
      </trkpt>
      <trkpt lat="43.89526" lon="3.50399">
        <ele>383.700012</ele>
        <time>2013-04-25T14:52:25Z</time>
      </trkpt>
      <trkpt lat="43.89524" lon="3.50388">
        <ele>382.600006</ele>
        <time>2013-04-25T14:52:35Z</time>
      </trkpt>
      <trkpt lat="43.89523" lon="3.50376">
        <ele>383</ele>
        <time>2013-04-25T14:52:43Z</time>
      </trkpt>
      <trkpt lat="43.89518" lon="3.50366">
        <ele>381.799988</ele>
        <time>2013-04-25T14:52:52Z</time>
      </trkpt>
      <trkpt lat="43.89518" lon="3.50365">
        <ele>382</ele>
        <time>2013-04-25T14:52:53Z</time>
      </trkpt>
      <trkpt lat="43.89508" lon="3.50347">
        <ele>379.799988</ele>
        <time>2013-04-25T14:53:08Z</time>
      </trkpt>
      <trkpt lat="43.89501" lon="3.50341">
        <ele>380.200012</ele>
        <time>2013-04-25T14:53:16Z</time>
      </trkpt>
      <trkpt lat="43.89495" lon="3.50333">
        <ele>378.899994</ele>
        <time>2013-04-25T14:53:24Z</time>
      </trkpt>
      <trkpt lat="43.89488" lon="3.50325">
        <ele>378.600006</ele>
        <time>2013-04-25T14:53:32Z</time>
      </trkpt>
      <trkpt lat="43.89484" lon="3.50316">
        <ele>377.700012</ele>
        <time>2013-04-25T14:53:44Z</time>
      </trkpt>
      <trkpt lat="43.89476" lon="3.5031">
        <ele>376.899994</ele>
        <time>2013-04-25T14:53:51Z</time>
      </trkpt>
      <trkpt lat="43.8947" lon="3.50303">
        <ele>375.399994</ele>
        <time>2013-04-25T14:53:58Z</time>
      </trkpt>
      <trkpt lat="43.89469" lon="3.50301">
        <ele>375.600006</ele>
        <time>2013-04-25T14:53:59Z</time>
      </trkpt>
      <trkpt lat="43.89458" lon="3.50287">
        <ele>374.200012</ele>
        <time>2013-04-25T14:54:11Z</time>
      </trkpt>
      <trkpt lat="43.89451" lon="3.50282">
        <ele>374.299988</ele>
        <time>2013-04-25T14:54:18Z</time>
      </trkpt>
      <trkpt lat="43.89446" lon="3.50272">
        <ele>372.700012</ele>
        <time>2013-04-25T14:54:25Z</time>
      </trkpt>
      <trkpt lat="43.89438" lon="3.50271">
        <ele>372.399994</ele>
        <time>2013-04-25T14:54:31Z</time>
      </trkpt>
      <trkpt lat="43.8943" lon="3.50266">
        <ele>371.399994</ele>
        <time>2013-04-25T14:54:37Z</time>
      </trkpt>
      <trkpt lat="43.89423" lon="3.50261">
        <ele>370.399994</ele>
        <time>2013-04-25T14:54:44Z</time>
      </trkpt>
      <trkpt lat="43.89416" lon="3.50257">
        <ele>370.5</ele>
        <time>2013-04-25T14:54:49Z</time>
      </trkpt>
      <trkpt lat="43.89408" lon="3.50255">
        <ele>368.299988</ele>
        <time>2013-04-25T14:54:57Z</time>
      </trkpt>
      <trkpt lat="43.894" lon="3.5025">
        <ele>367.200012</ele>
        <time>2013-04-25T14:55:11Z</time>
      </trkpt>
      <trkpt lat="43.89399" lon="3.5025">
        <ele>366.799988</ele>
        <time>2013-04-25T14:55:12Z</time>
      </trkpt>
      <trkpt lat="43.89383" lon="3.50249">
        <ele>363.600006</ele>
        <time>2013-04-25T14:55:28Z</time>
      </trkpt>
      <trkpt lat="43.89375" lon="3.50249">
        <ele>363.399994</ele>
        <time>2013-04-25T14:55:36Z</time>
      </trkpt>
      <trkpt lat="43.89367" lon="3.50248">
        <ele>361.799988</ele>
        <time>2013-04-25T14:55:44Z</time>
      </trkpt>
      <trkpt lat="43.89359" lon="3.50246">
        <ele>360.200012</ele>
        <time>2013-04-25T14:55:52Z</time>
      </trkpt>
      <trkpt lat="43.89357" lon="3.50235">
        <ele>357.299988</ele>
        <time>2013-04-25T14:56:12Z</time>
      </trkpt>
      <trkpt lat="43.89361" lon="3.50225">
        <ele>356.600006</ele>
        <time>2013-04-25T14:56:21Z</time>
      </trkpt>
      <trkpt lat="43.89362" lon="3.50223">
        <ele>356.5</ele>
        <time>2013-04-25T14:56:22Z</time>
      </trkpt>
      <trkpt lat="43.89374" lon="3.5021">
        <ele>356.899994</ele>
        <time>2013-04-25T14:56:36Z</time>
      </trkpt>
      <trkpt lat="43.8938" lon="3.50205">
        <ele>357.799988</ele>
        <time>2013-04-25T14:56:41Z</time>
      </trkpt>
      <trkpt lat="43.89389" lon="3.50205">
        <ele>356.600006</ele>
        <time>2013-04-25T14:56:48Z</time>
      </trkpt>
      <trkpt lat="43.89396" lon="3.50208">
        <ele>355.5</ele>
        <time>2013-04-25T14:56:56Z</time>
      </trkpt>
      <trkpt lat="43.89404" lon="3.50211">
        <ele>357.299988</ele>
        <time>2013-04-25T14:57:04Z</time>
      </trkpt>
      <trkpt lat="43.89412" lon="3.50217">
        <ele>356.700012</ele>
        <time>2013-04-25T14:57:13Z</time>
      </trkpt>
      <trkpt lat="43.8942" lon="3.50222">
        <ele>356.899994</ele>
        <time>2013-04-25T14:57:22Z</time>
      </trkpt>
      <trkpt lat="43.89425" lon="3.5023">
        <ele>356.700012</ele>
        <time>2013-04-25T14:57:29Z</time>
      </trkpt>
      <trkpt lat="43.89426" lon="3.50231">
        <ele>356.5</ele>
        <time>2013-04-25T14:57:30Z</time>
      </trkpt>
      <trkpt lat="43.89436" lon="3.50246">
        <ele>356.100006</ele>
        <time>2013-04-25T14:57:44Z</time>
      </trkpt>
      <trkpt lat="43.89442" lon="3.50255">
        <ele>357.600006</ele>
        <time>2013-04-25T14:57:58Z</time>
      </trkpt>
      <trkpt lat="43.89451" lon="3.50257">
        <ele>357</ele>
        <time>2013-04-25T14:58:07Z</time>
      </trkpt>
      <trkpt lat="43.89457" lon="3.50264">
        <ele>357.100006</ele>
        <time>2013-04-25T14:58:14Z</time>
      </trkpt>
      <trkpt lat="43.89464" lon="3.50269">
        <ele>357.200012</ele>
        <time>2013-04-25T14:58:22Z</time>
      </trkpt>
      <trkpt lat="43.89472" lon="3.50275">
        <ele>356.700012</ele>
        <time>2013-04-25T14:58:28Z</time>
      </trkpt>
      <trkpt lat="43.89479" lon="3.50279">
        <ele>356.100006</ele>
        <time>2013-04-25T14:58:35Z</time>
      </trkpt>
      <trkpt lat="43.8948" lon="3.5028">
        <ele>356</ele>
        <time>2013-04-25T14:58:36Z</time>
      </trkpt>
      <trkpt lat="43.89495" lon="3.503">
        <ele>357</ele>
        <time>2013-04-25T14:59:07Z</time>
      </trkpt>
      <trkpt lat="43.89501" lon="3.50312">
        <ele>356</ele>
        <time>2013-04-25T14:59:15Z</time>
      </trkpt>
      <trkpt lat="43.89506" lon="3.50321">
        <ele>356</ele>
        <time>2013-04-25T14:59:23Z</time>
      </trkpt>
      <trkpt lat="43.89513" lon="3.50326">
        <ele>356.100006</ele>
        <time>2013-04-25T14:59:28Z</time>
      </trkpt>
      <trkpt lat="43.89519" lon="3.50334">
        <ele>356.799988</ele>
        <time>2013-04-25T14:59:35Z</time>
      </trkpt>
      <trkpt lat="43.89525" lon="3.50344">
        <ele>357</ele>
        <time>2013-04-25T14:59:43Z</time>
      </trkpt>
      <trkpt lat="43.89525" lon="3.50347">
        <ele>357</ele>
        <time>2013-04-25T14:59:44Z</time>
      </trkpt>
      <trkpt lat="43.8954" lon="3.50356">
        <ele>357</ele>
        <time>2013-04-25T14:59:59Z</time>
      </trkpt>
      <trkpt lat="43.89547" lon="3.50363">
        <ele>357.100006</ele>
        <time>2013-04-25T15:00:06Z</time>
      </trkpt>
      <trkpt lat="43.89553" lon="3.50372">
        <ele>356.700012</ele>
        <time>2013-04-25T15:00:22Z</time>
      </trkpt>
      <trkpt lat="43.89559" lon="3.5038">
        <ele>356.100006</ele>
        <time>2013-04-25T15:00:32Z</time>
      </trkpt>
      <trkpt lat="43.89567" lon="3.50386">
        <ele>355.700012</ele>
        <time>2013-04-25T15:00:41Z</time>
      </trkpt>
      <trkpt lat="43.89575" lon="3.50391">
        <ele>356.200012</ele>
        <time>2013-04-25T15:00:51Z</time>
      </trkpt>
      <trkpt lat="43.89575" lon="3.50391">
        <ele>356.5</ele>
        <time>2013-04-25T15:00:52Z</time>
      </trkpt>
      <trkpt lat="43.89591" lon="3.50384">
        <ele>356.100006</ele>
        <time>2013-04-25T15:01:14Z</time>
      </trkpt>
      <trkpt lat="43.89599" lon="3.5038">
        <ele>355.899994</ele>
        <time>2013-04-25T15:01:32Z</time>
      </trkpt>
      <trkpt lat="43.89607" lon="3.50386">
        <ele>355.200012</ele>
        <time>2013-04-25T15:01:43Z</time>
      </trkpt>
      <trkpt lat="43.89614" lon="3.50385">
        <ele>354.700012</ele>
        <time>2013-04-25T15:01:49Z</time>
      </trkpt>
      <trkpt lat="43.8962" lon="3.50376">
        <ele>354.700012</ele>
        <time>2013-04-25T15:01:55Z</time>
      </trkpt>
      <trkpt lat="43.8962" lon="3.50375">
        <ele>354.700012</ele>
        <time>2013-04-25T15:01:56Z</time>
      </trkpt>
      <trkpt lat="43.89635" lon="3.50365">
        <ele>355.899994</ele>
        <time>2013-04-25T15:02:34Z</time>
      </trkpt>
      <trkpt lat="43.89641" lon="3.50357">
        <ele>354.399994</ele>
        <time>2013-04-25T15:02:47Z</time>
      </trkpt>
      <trkpt lat="43.89648" lon="3.5035">
        <ele>354.100006</ele>
        <time>2013-04-25T15:02:54Z</time>
      </trkpt>
      <trkpt lat="43.89651" lon="3.5034">
        <ele>354.700012</ele>
        <time>2013-04-25T15:02:58Z</time>
      </trkpt>
      <trkpt lat="43.89651" lon="3.50337">
        <ele>354.799988</ele>
        <time>2013-04-25T15:02:59Z</time>
      </trkpt>
      <trkpt lat="43.89663" lon="3.50323">
        <ele>354.700012</ele>
        <time>2013-04-25T15:03:16Z</time>
      </trkpt>
      <trkpt lat="43.89672" lon="3.50315">
        <ele>353</ele>
        <time>2013-04-25T15:03:22Z</time>
      </trkpt>
      <trkpt lat="43.89679" lon="3.50308">
        <ele>354.200012</ele>
        <time>2013-04-25T15:03:30Z</time>
      </trkpt>
      <trkpt lat="43.89686" lon="3.50301">
        <ele>355</ele>
        <time>2013-04-25T15:03:39Z</time>
      </trkpt>
      <trkpt lat="43.89693" lon="3.50294">
        <ele>356.899994</ele>
        <time>2013-04-25T15:04:00Z</time>
      </trkpt>
      <trkpt lat="43.89693" lon="3.50294">
        <ele>356.299988</ele>
        <time>2013-04-25T15:04:01Z</time>
      </trkpt>
      <trkpt lat="43.89703" lon="3.50295">
        <ele>356.899994</ele>
        <time>2013-04-25T15:05:30Z</time>
      </trkpt>
      <trkpt lat="43.89713" lon="3.5028">
        <ele>356.100006</ele>
        <time>2013-04-25T15:06:07Z</time>
      </trkpt>
      <trkpt lat="43.89706" lon="3.50281">
        <ele>357.399994</ele>
        <time>2013-04-25T15:06:25Z</time>
      </trkpt>
      <trkpt lat="43.89698" lon="3.50281">
        <ele>356.899994</ele>
        <time>2013-04-25T15:06:29Z</time>
      </trkpt>
      <trkpt lat="43.8969" lon="3.5029">
        <ele>355</ele>
        <time>2013-04-25T15:07:01Z</time>
      </trkpt>
      <trkpt lat="43.8969" lon="3.50292">
        <ele>356.700012</ele>
        <time>2013-04-25T15:07:03Z</time>
      </trkpt>
      <trkpt lat="43.89706" lon="3.50294">
        <ele>357.100006</ele>
        <time>2013-04-25T15:07:39Z</time>
      </trkpt>
      <trkpt lat="43.89706" lon="3.50306">
        <ele>357.399994</ele>
        <time>2013-04-25T15:07:45Z</time>
      </trkpt>
      <trkpt lat="43.8971" lon="3.50316">
        <ele>356.799988</ele>
        <time>2013-04-25T15:07:54Z</time>
      </trkpt>
      <trkpt lat="43.89713" lon="3.50327">
        <ele>357.799988</ele>
        <time>2013-04-25T15:08:07Z</time>
      </trkpt>
      <trkpt lat="43.89713" lon="3.50328">
        <ele>357.799988</ele>
        <time>2013-04-25T15:08:08Z</time>
      </trkpt>
      <trkpt lat="43.89712" lon="3.50351">
        <ele>357.5</ele>
        <time>2013-04-25T15:08:26Z</time>
      </trkpt>
      <trkpt lat="43.8971" lon="3.50362">
        <ele>356.899994</ele>
        <time>2013-04-25T15:08:33Z</time>
      </trkpt>
      <trkpt lat="43.8971" lon="3.50375">
        <ele>357.799988</ele>
        <time>2013-04-25T15:08:40Z</time>
      </trkpt>
      <trkpt lat="43.89712" lon="3.50385">
        <ele>358.100006</ele>
        <time>2013-04-25T15:08:47Z</time>
      </trkpt>
      <trkpt lat="43.89712" lon="3.50396">
        <ele>354.600006</ele>
        <time>2013-04-25T15:08:57Z</time>
      </trkpt>
      <trkpt lat="43.89713" lon="3.50408">
        <ele>355.799988</ele>
        <time>2013-04-25T15:09:05Z</time>
      </trkpt>
      <trkpt lat="43.89716" lon="3.50418">
        <ele>355</ele>
        <time>2013-04-25T15:09:14Z</time>
      </trkpt>
      <trkpt lat="43.89716" lon="3.5042">
        <ele>354.700012</ele>
        <time>2013-04-25T15:09:15Z</time>
      </trkpt>
      <trkpt lat="43.89716" lon="3.50442">
        <ele>353.600006</ele>
        <time>2013-04-25T15:09:32Z</time>
      </trkpt>
      <trkpt lat="43.89715" lon="3.50454">
        <ele>353.399994</ele>
        <time>2013-04-25T15:09:41Z</time>
      </trkpt>
      <trkpt lat="43.89715" lon="3.50465">
        <ele>354.299988</ele>
        <time>2013-04-25T15:09:48Z</time>
      </trkpt>
      <trkpt lat="43.89714" lon="3.50477">
        <ele>354.399994</ele>
        <time>2013-04-25T15:09:58Z</time>
      </trkpt>
      <trkpt lat="43.89714" lon="3.5049">
        <ele>354.399994</ele>
        <time>2013-04-25T15:10:07Z</time>
      </trkpt>
      <trkpt lat="43.89713" lon="3.50501">
        <ele>354.399994</ele>
        <time>2013-04-25T15:10:15Z</time>
      </trkpt>
      <trkpt lat="43.89713" lon="3.50503">
        <ele>354.600006</ele>
        <time>2013-04-25T15:10:16Z</time>
      </trkpt>
      <trkpt lat="43.89708" lon="3.50524">
        <ele>353.799988</ele>
        <time>2013-04-25T15:10:30Z</time>
      </trkpt>
      <trkpt lat="43.89706" lon="3.50536">
        <ele>354.899994</ele>
        <time>2013-04-25T15:10:39Z</time>
      </trkpt>
      <trkpt lat="43.897" lon="3.50546">
        <ele>354.700012</ele>
        <time>2013-04-25T15:10:49Z</time>
      </trkpt>
      <trkpt lat="43.89696" lon="3.50556">
        <ele>354.899994</ele>
        <time>2013-04-25T15:11:03Z</time>
      </trkpt>
      <trkpt lat="43.89688" lon="3.50563">
        <ele>354.200012</ele>
        <time>2013-04-25T15:11:15Z</time>
      </trkpt>
      <trkpt lat="43.89683" lon="3.50573">
        <ele>354.700012</ele>
        <time>2013-04-25T15:11:27Z</time>
      </trkpt>
      <trkpt lat="43.89683" lon="3.50574">
        <ele>354.399994</ele>
        <time>2013-04-25T15:11:28Z</time>
      </trkpt>
      <trkpt lat="43.89671" lon="3.50589">
        <ele>355.799988</ele>
        <time>2013-04-25T15:11:51Z</time>
      </trkpt>
      <trkpt lat="43.89666" lon="3.50598">
        <ele>355.5</ele>
        <time>2013-04-25T15:12:03Z</time>
      </trkpt>
      <trkpt lat="43.89661" lon="3.50608">
        <ele>356.200012</ele>
        <time>2013-04-25T15:12:19Z</time>
      </trkpt>
      <trkpt lat="43.89654" lon="3.50615">
        <ele>356.5</ele>
        <time>2013-04-25T15:12:32Z</time>
      </trkpt>
      <trkpt lat="43.89654" lon="3.50615">
        <ele>356.899994</ele>
        <time>2013-04-25T15:12:33Z</time>
      </trkpt>
      <trkpt lat="43.89644" lon="3.50631">
        <ele>355.600006</ele>
        <time>2013-04-25T15:12:53Z</time>
      </trkpt>
      <trkpt lat="43.89638" lon="3.50639">
        <ele>355.5</ele>
        <time>2013-04-25T15:13:00Z</time>
      </trkpt>
      <trkpt lat="43.89632" lon="3.50646">
        <ele>355.799988</ele>
        <time>2013-04-25T15:13:04Z</time>
      </trkpt>
      <trkpt lat="43.89624" lon="3.50651">
        <ele>356.299988</ele>
        <time>2013-04-25T15:13:10Z</time>
      </trkpt>
      <trkpt lat="43.89617" lon="3.50658">
        <ele>355.899994</ele>
        <time>2013-04-25T15:13:16Z</time>
      </trkpt>
      <trkpt lat="43.89611" lon="3.50667">
        <ele>355.600006</ele>
        <time>2013-04-25T15:13:25Z</time>
      </trkpt>
      <trkpt lat="43.89604" lon="3.50675">
        <ele>355.700012</ele>
        <time>2013-04-25T15:13:33Z</time>
      </trkpt>
      <trkpt lat="43.89603" lon="3.50676">
        <ele>355.5</ele>
        <time>2013-04-25T15:13:34Z</time>
      </trkpt>
      <trkpt lat="43.89593" lon="3.50692">
        <ele>354.600006</ele>
        <time>2013-04-25T15:13:50Z</time>
      </trkpt>
      <trkpt lat="43.89588" lon="3.50699">
        <ele>354.200012</ele>
        <time>2013-04-25T15:13:58Z</time>
      </trkpt>
      <trkpt lat="43.89581" lon="3.50707">
        <ele>354.5</ele>
        <time>2013-04-25T15:14:09Z</time>
      </trkpt>
      <trkpt lat="43.89574" lon="3.50715">
        <ele>354.200012</ele>
        <time>2013-04-25T15:14:17Z</time>
      </trkpt>
      <trkpt lat="43.89576" lon="3.50725">
        <ele>353</ele>
        <time>2013-04-25T15:14:23Z</time>
      </trkpt>
      <trkpt lat="43.89576" lon="3.50737">
        <ele>353.5</ele>
        <time>2013-04-25T15:14:35Z</time>
      </trkpt>
      <trkpt lat="43.89576" lon="3.50739">
        <ele>353.299988</ele>
        <time>2013-04-25T15:14:36Z</time>
      </trkpt>
      <trkpt lat="43.89562" lon="3.50745">
        <ele>353.700012</ele>
        <time>2013-04-25T15:14:56Z</time>
      </trkpt>
      <trkpt lat="43.89554" lon="3.50745">
        <ele>353.899994</ele>
        <time>2013-04-25T15:15:02Z</time>
      </trkpt>
      <trkpt lat="43.89546" lon="3.50747">
        <ele>354</ele>
        <time>2013-04-25T15:15:09Z</time>
      </trkpt>
      <trkpt lat="43.8954" lon="3.50754">
        <ele>353.899994</ele>
        <time>2013-04-25T15:15:14Z</time>
      </trkpt>
      <trkpt lat="43.89534" lon="3.50762">
        <ele>354.5</ele>
        <time>2013-04-25T15:15:20Z</time>
      </trkpt>
      <trkpt lat="43.89527" lon="3.5077">
        <ele>353.700012</ele>
        <time>2013-04-25T15:15:29Z</time>
      </trkpt>
      <trkpt lat="43.89522" lon="3.50779">
        <ele>353.799988</ele>
        <time>2013-04-25T15:15:36Z</time>
      </trkpt>
      <trkpt lat="43.89521" lon="3.50781">
        <ele>353.799988</ele>
        <time>2013-04-25T15:15:37Z</time>
      </trkpt>
      <trkpt lat="43.89511" lon="3.50797">
        <ele>354.299988</ele>
        <time>2013-04-25T15:15:48Z</time>
      </trkpt>
      <trkpt lat="43.89508" lon="3.50807">
        <ele>355.399994</ele>
        <time>2013-04-25T15:15:53Z</time>
      </trkpt>
      <trkpt lat="43.89506" lon="3.50819">
        <ele>355.299988</ele>
        <time>2013-04-25T15:15:59Z</time>
      </trkpt>
      <trkpt lat="43.89504" lon="3.5083">
        <ele>354</ele>
        <time>2013-04-25T15:16:05Z</time>
      </trkpt>
      <trkpt lat="43.89501" lon="3.50842">
        <ele>354.100006</ele>
        <time>2013-04-25T15:16:13Z</time>
      </trkpt>
      <trkpt lat="43.89506" lon="3.50852">
        <ele>353.899994</ele>
        <time>2013-04-25T15:16:27Z</time>
      </trkpt>
      <trkpt lat="43.8951" lon="3.50863">
        <ele>353.700012</ele>
        <time>2013-04-25T15:16:40Z</time>
      </trkpt>
      <trkpt lat="43.89509" lon="3.50866">
        <ele>353.799988</ele>
        <time>2013-04-25T15:16:41Z</time>
      </trkpt>
      <trkpt lat="43.89509" lon="3.50885">
        <ele>352.600006</ele>
        <time>2013-04-25T15:16:53Z</time>
      </trkpt>
      <trkpt lat="43.89512" lon="3.50897">
        <ele>353.399994</ele>
        <time>2013-04-25T15:17:01Z</time>
      </trkpt>
      <trkpt lat="43.89515" lon="3.50908">
        <ele>353</ele>
        <time>2013-04-25T15:17:10Z</time>
      </trkpt>
      <trkpt lat="43.89516" lon="3.50919">
        <ele>352.600006</ele>
        <time>2013-04-25T15:17:15Z</time>
      </trkpt>
      <trkpt lat="43.89517" lon="3.50932">
        <ele>352.799988</ele>
        <time>2013-04-25T15:17:24Z</time>
      </trkpt>
      <trkpt lat="43.89516" lon="3.50943">
        <ele>352.399994</ele>
        <time>2013-04-25T15:17:33Z</time>
      </trkpt>
      <trkpt lat="43.89513" lon="3.50954">
        <ele>352</ele>
        <time>2013-04-25T15:17:42Z</time>
      </trkpt>
      <trkpt lat="43.89513" lon="3.50957">
        <ele>351.700012</ele>
        <time>2013-04-25T15:17:43Z</time>
      </trkpt>
      <trkpt lat="43.89513" lon="3.50977">
        <ele>352.399994</ele>
        <time>2013-04-25T15:17:56Z</time>
      </trkpt>
      <trkpt lat="43.89514" lon="3.50989">
        <ele>352.799988</ele>
        <time>2013-04-25T15:18:03Z</time>
      </trkpt>
      <trkpt lat="43.89514" lon="3.51001">
        <ele>351.899994</ele>
        <time>2013-04-25T15:18:16Z</time>
      </trkpt>
      <trkpt lat="43.89513" lon="3.51013">
        <ele>352.5</ele>
        <time>2013-04-25T15:18:25Z</time>
      </trkpt>
      <trkpt lat="43.89516" lon="3.51024">
        <ele>351.799988</ele>
        <time>2013-04-25T15:18:37Z</time>
      </trkpt>
      <trkpt lat="43.89519" lon="3.51035">
        <ele>352.100006</ele>
        <time>2013-04-25T15:18:48Z</time>
      </trkpt>
      <trkpt lat="43.8952" lon="3.51037">
        <ele>352.200012</ele>
        <time>2013-04-25T15:18:49Z</time>
      </trkpt>
      <trkpt lat="43.89519" lon="3.51056">
        <ele>350.399994</ele>
        <time>2013-04-25T15:19:06Z</time>
      </trkpt>
      <trkpt lat="43.89515" lon="3.51067">
        <ele>349</ele>
        <time>2013-04-25T15:19:15Z</time>
      </trkpt>
      <trkpt lat="43.89524" lon="3.51069">
        <ele>348.799988</ele>
        <time>2013-04-25T15:19:38Z</time>
      </trkpt>
      <trkpt lat="43.89532" lon="3.51067">
        <ele>348.799988</ele>
        <time>2013-04-25T15:19:54Z</time>
      </trkpt>
      <trkpt lat="43.89533" lon="3.51066">
        <ele>348.299988</ele>
        <time>2013-04-25T15:19:55Z</time>
      </trkpt>
      <trkpt lat="43.89534" lon="3.5106">
        <ele>348.899994</ele>
        <time>2013-04-25T15:20:23Z</time>
      </trkpt>
      <trkpt lat="43.89525" lon="3.51061">
        <ele>348.5</ele>
        <time>2013-04-25T15:20:33Z</time>
      </trkpt>
      <trkpt lat="43.89517" lon="3.51064">
        <ele>349.100006</ele>
        <time>2013-04-25T15:20:44Z</time>
      </trkpt>
      <trkpt lat="43.8951" lon="3.51069">
        <ele>349.600006</ele>
        <time>2013-04-25T15:20:54Z</time>
      </trkpt>
      <trkpt lat="43.89505" lon="3.5108">
        <ele>349.5</ele>
        <time>2013-04-25T15:21:03Z</time>
      </trkpt>
      <trkpt lat="43.89505" lon="3.51081">
        <ele>349.600006</ele>
        <time>2013-04-25T15:21:04Z</time>
      </trkpt>
      <trkpt lat="43.89504" lon="3.51103">
        <ele>349.899994</ele>
        <time>2013-04-25T15:21:19Z</time>
      </trkpt>
      <trkpt lat="43.89499" lon="3.51112">
        <ele>349.299988</ele>
        <time>2013-04-25T15:21:26Z</time>
      </trkpt>
      <trkpt lat="43.89491" lon="3.51118">
        <ele>350.299988</ele>
        <time>2013-04-25T15:21:37Z</time>
      </trkpt>
      <trkpt lat="43.89482" lon="3.51128">
        <ele>349</ele>
        <time>2013-04-25T15:21:52Z</time>
      </trkpt>
      <trkpt lat="43.89475" lon="3.51135">
        <ele>348.799988</ele>
        <time>2013-04-25T15:22:09Z</time>
      </trkpt>
      <trkpt lat="43.89475" lon="3.51136">
        <ele>349.5</ele>
        <time>2013-04-25T15:22:10Z</time>
      </trkpt>
      <trkpt lat="43.89481" lon="3.51144">
        <ele>349.899994</ele>
        <time>2013-04-25T15:22:56Z</time>
      </trkpt>
      <trkpt lat="43.89475" lon="3.51135">
        <ele>350.600006</ele>
        <time>2013-04-25T15:23:08Z</time>
      </trkpt>
      <trkpt lat="43.89467" lon="3.51137">
        <ele>351.200012</ele>
        <time>2013-04-25T15:23:18Z</time>
      </trkpt>
      <trkpt lat="43.89466" lon="3.51138">
        <ele>351.600006</ele>
        <time>2013-04-25T15:23:19Z</time>
      </trkpt>
      <trkpt lat="43.89454" lon="3.51151">
        <ele>354.399994</ele>
        <time>2013-04-25T15:23:39Z</time>
      </trkpt>
      <trkpt lat="43.89458" lon="3.51162">
        <ele>353.299988</ele>
        <time>2013-04-25T15:23:49Z</time>
      </trkpt>
      <trkpt lat="43.89461" lon="3.51173">
        <ele>354.399994</ele>
        <time>2013-04-25T15:24:09Z</time>
      </trkpt>
      <trkpt lat="43.89458" lon="3.51163">
        <ele>354.799988</ele>
        <time>2013-04-25T15:24:56Z</time>
      </trkpt>
      <trkpt lat="43.89459" lon="3.51161">
        <ele>355</ele>
        <time>2013-04-25T15:24:57Z</time>
      </trkpt>
      <trkpt lat="43.89465" lon="3.51142">
        <ele>356</ele>
        <time>2013-04-25T15:25:09Z</time>
      </trkpt>
      <trkpt lat="43.89459" lon="3.51132">
        <ele>355.799988</ele>
        <time>2013-04-25T15:25:19Z</time>
      </trkpt>
      <trkpt lat="43.89452" lon="3.51128">
        <ele>355.600006</ele>
        <time>2013-04-25T15:25:25Z</time>
      </trkpt>
      <trkpt lat="43.89445" lon="3.51123">
        <ele>356.299988</ele>
        <time>2013-04-25T15:25:33Z</time>
      </trkpt>
      <trkpt lat="43.89439" lon="3.51114">
        <ele>357.5</ele>
        <time>2013-04-25T15:25:42Z</time>
      </trkpt>
      <trkpt lat="43.89432" lon="3.51106">
        <ele>357.299988</ele>
        <time>2013-04-25T15:25:52Z</time>
      </trkpt>
      <trkpt lat="43.89425" lon="3.511">
        <ele>357.5</ele>
        <time>2013-04-25T15:26:02Z</time>
      </trkpt>
      <trkpt lat="43.89424" lon="3.511">
        <ele>357.299988</ele>
        <time>2013-04-25T15:26:03Z</time>
      </trkpt>
    </trkseg>
  </trk>
</gpx>